     2.10           OBSERVATION DATA    G (GPS)             RINEX VERSION / TYPE
teqc 2000Jul20 Karen Wendt 20040728 22:33:28UTC             PGM / RUN BY / DATE
Linux 2.0.36|Pentium II|gcc -static|Linux|486/DX+           COMMENT
teqc 2000Jul20 Karen Wendt 20040728 22:33:28UTC             COMMENT
BIT 2 OF LLI FLAGS DATA COLLECTED UNDER A/S CONDITION       COMMENT
01ne Unknown                                                MARKER NAME
JMS USGS                                                    OBSERVER / AGENCY
LP00108.707 ASHTECH Z-XII3 CD00                             REC # / TYPE / VERS
CR519993706 ASH701945B_M NONE                               ANT # / TYPE
 -2695773.0000 -4045946.0000  4115678.0000                  APPROX POSITION XYZ
        0.5014        0.0000        0.0000                  ANTENNA: DELTA H/E/N
     1     1                                                WAVELENGTH FACT L1/2
     5    C1    L1    L2    P1    P2                        # / TYPES OF OBSERV
    30.0000                                                 INTERVAL
                                                            COMMENT
National Earthquake Hazard Reduction Program                COMMENT
Crustal Strain Project                                      COMMENT
345 Middlefield Road, MS/977                                COMMENT
U.S. Geological Survey, Menlo Park, California 94025        COMMENT
Contact: kwendt@usgs.gov (Ph: 650-329-4866)                 COMMENT
Antenna height is vertical to base of antenna               COMMENT
                                                            COMMENT
SNR is mapped to RINEX snr flag value [1-9]                 COMMENT
L1: 1 -> 1; 90 -> 5; 210 -> 9                               COMMENT
L2: 1 -> 1; 150 -> 5; 250 -> 9                              COMMENT
  2004     7    19     0     0   30.0000000     GPS         TIME OF FIRST OBS
                                                            END OF HEADER
 04  7 19  0  0 30.0000000  0  8G16G20G27G 1G13G23G 3G 8
  22749788.652   -12675717.01549  -9855467.40546  22749788.150    22749793.363
  23268621.327    -8299093.47949  -5969425.86045  23268620.279    23268626.893
  22020216.189   -12283056.78149  -9558246.98747  22020215.732    22020221.819
  21553269.606   -13573246.03849 -10566447.66047  21553269.012    21553275.052
  20504775.789   -22669378.34049 -17653046.02648  20504775.739    20504779.491
  20977750.718   -17938071.01749 -13963285.30147  20977750.136    20977752.431
  23952449.147    -4816448.50349  -3599970.38844  23952449.315    23952456.602
  24071933.911    -2658603.46649  -2053476.70945  24071933.088    24071941.373
 04  7 19  0  1  0.0000000  0  8G16G20G27G 1G13G23G 3G 8
  22764157.913   -12600205.57149  -9796627.34546  22764157.501    22764162.704
  23289488.962    -8189432.66149  -5883975.97045  23289487.993    23289494.631
  22010536.099   -12333925.87549  -9597885.20447  22010535.604    22010541.735
  21563785.221   -13517986.20449 -10523388.08347  21563784.672    21563790.737
  20498602.053   -22701821.65749 -17678326.53548  20498602.023    20498605.771
  20987159.250   -17888628.86349 -13924758.96847  20987158.672    20987160.997
  23940514.387    -4879164.69849  -3648840.06044  23940514.387    23940521.631
  24055187.006    -2746607.44449  -2122051.14145  24055186.271    24055194.694
 04  7 19  0  1 30.0000000  0  8G16G20G27G 1G13G23G 3G 8
  22778601.614   -12524304.02349  -9737483.30746  22778601.132    22778606.293
  23310388.057    -8079607.30249  -5798397.84945  23310387.084    23310393.710
  22000893.131   -12384599.47549  -9637371.09447  22000892.669    22000898.778
  21574356.828   -13462432.56149 -10480099.56247  21574356.244    21574362.297
  20492489.768   -22733941.76849 -17703355.18948  20492489.715    20492493.572
  20996634.106   -17838837.74249 -13885960.70747  20996633.583    20996635.968
  23928636.751    -4941583.32849  -3697477.87244  23928636.370    23928643.458
  24038465.228    -2834480.55349  -2190523.54845  24038464.498    24038472.902
 04  7 19  0  2  0.0000000  0  8G16G20G27G 1G13G23G 3G 8
  22793119.010   -12448015.29249  -9678037.54946  22793118.413    22793123.612
  23331317.773    -7969620.52749  -5712693.96045  23331316.865    23331323.502
  21991287.315   -12435078.18049  -9676705.11647  21991286.909    21991292.897
  21584984.178   -13406585.48149 -10436582.38547  21584983.577    21584989.705
  20486439.244   -22765737.44649 -17728131.04448  20486439.203    20486443.095
  21006175.399   -17788698.14649 -13846890.90747  21006174.898    21006177.228
  23916815.897    -5003701.66249  -3745881.69444  23916815.653    23916822.634
  24021768.420    -2922222.81849  -2258894.05445  24021767.726    24021775.817
 04  7 19  0  2 30.0000000  0  8G16G20G27G 1G13G23G 3G 8
  22807709.335   -12371341.50749  -9618291.75946  22807708.862    22807714.240
  23352278.020    -7859474.63649  -5626866.07245  23352277.045    23352283.676
  21981718.673   -12485361.64249  -9715887.00147  21981718.233    21981724.228
  21595667.422   -13350444.67749 -10392836.32947  21595666.851    21595673.050
  20480450.794   -22797206.88849 -17752652.68548  20480450.739    20480454.675
  21015783.115   -17738209.67049 -13807549.25547  21015782.586    21015784.919
  23905052.844    -5065516.45249  -3794048.97745  23905052.498    23905059.486
  24005096.959    -3009832.79749  -2327161.41845  24005096.188    24005103.989
 04  7 19  0  3  0.0000000  0  8G16G20G27G 1G13G23G 3G 8
  22822372.649   -12294284.99949  -9558247.75046  22822372.161    22822377.652
  23373268.075    -7749172.35049  -5540916.34745  23373266.965    23373273.586
  21972187.122   -12535449.94149  -9754916.81347  21972186.702    21972192.707
  21606406.512   -13294010.07949 -10348861.33447  21606405.966    21606412.196
  20474524.766   -22828348.39849 -17776918.79348  20474524.722    20474528.665
  21025457.143   -17687372.40149 -13767935.81647  21025456.629    21025458.955
  23893348.039    -5127024.54149  -3841977.29745  23893347.700    23893354.989
  23988450.518    -3097310.45149  -2395325.73245  23988449.772    23988457.194
 04  7 19  0  3 30.0000000  0  8G16G20G27G 1G13G23G 3G 8
  22837108.488   -12216848.29749  -9497907.48746  22837107.979    22837113.393
  23394287.323    -7638716.59049  -5454847.02245  23394286.012    23394292.608
  21962692.735   -12585343.36049  -9793794.78647  21962692.315    21962698.321
  21617201.517   -13237281.83349 -10304657.52247  21617200.933    21617207.257
  20468661.282   -22859160.94849 -17800928.56748  20468661.221    20468665.221
  21035197.498   -17636186.82849 -13728050.97647  21035196.946    21035199.277
  23881702.514    -5188223.38149  -3889664.67545  23881701.981    23881709.423
  23971828.969    -3184655.56049  -2463386.73345  23971828.340    23971835.972
 04  7 19  0  4  0.0000000  0  8G16G20G27G 1G13G23G 3G 8
  22851916.181   -12139033.98349  -9437272.97546  22851915.688    22851921.068
  23415335.088    -7528109.98649  -5368660.12845  23415333.901    23415340.373
  21953235.385   -12635042.23949  -9832521.15147  21953234.952    21953240.867
  21628052.283   -13180260.07349 -10260225.00247  21628051.791    21628058.152
  20462860.696   -22889643.01749 -17824680.82248  20462860.656    20462864.708
  21045003.962   -17584653.11749 -13687894.85147  21045003.427    21045005.850
  23870116.157    -5249110.16449  -3937108.84045  23870115.683    23870123.117
  23955232.949    -3271867.27649  -2531343.79245  23955232.298    23955240.083
 04  7 19  0  4 30.0000000  0  8G16G20G27G 1G13G23G 3G 8
  22866795.269   -12060844.62149  -9376346.23446  22866794.738    22866800.130
  23436411.183    -7417355.51349  -5282358.03545  23436409.921    23436416.507
  21943815.070   -12684546.65249  -9871095.99547  21943814.593    21943820.346
  21638959.065   -13122945.04349 -10215563.95247  21638958.541    21638964.868
  20457123.263   -22919793.36449 -17848174.59648  20457123.218    20457127.322
  21054876.776   -17532771.55049 -13647467.67647  21054876.182    21054878.623
  23858589.884    -5309682.16549  -3984307.76745  23858589.392    23858596.676
  23938662.547    -3358945.02649  -2599196.45545  23938661.820    23938669.898
 04  7 19  0  5  0.0000000  0  8G16G20G27G 1G13G23G 3G 8
  22881745.189   -11982282.57349  -9315129.08946  22881744.588    22881750.097
  23457514.490    -7306455.72349  -5195942.73445  23457513.251    23457520.182
  21934431.714   -12733856.78249  -9909519.44847  21934431.199    21934436.908
  21649921.686   -13065336.65449 -10170674.33147  21649921.131    21649927.376
  20451449.248   -22949610.43149 -17871408.67348  20451449.206    20451453.332
  21064815.805   -17480541.99449 -13606769.33847  21064815.092    21064817.616
  23847124.050    -5369936.12149  -4031258.85745  23847123.301    23847131.044
  23922117.678    -3445888.45749  -2666944.48045  23922117.013    23922125.042
 04  7 19  0  5 30.0000000  0  8G16G20G27G 1G13G23G 3G 8
  22896765.416   -11903350.30349  -9253623.45246  22896764.919    22896770.397
  23478645.105    -7195413.02449  -5109416.08945  23478643.963    23478651.077
  21925085.291   -12782972.55749  -9947791.45747  21925084.800    21925090.541
  21660940.015   -13007434.92149 -10125556.11947  21660939.523    21660945.645
  20445838.966   -22979092.64449 -17894381.82848  20445838.930    20445843.058
  21074820.868   -17427964.56249 -13565799.93447  21074820.225    21074822.750
  23835719.184    -5429869.20949  -4077959.89345  23835718.285    23835726.109
  23905598.571    -3532697.05749  -2734587.42845  23905597.929    23905605.795
 04  7 19  0  6  0.0000000  0  8G16G20G27G 1G13G23G 3G 8
  22911855.773   -11824049.93349  -9191831.00746  22911855.352    22911860.825
  23499802.417    -7084229.82349  -5022779.92945  23499801.426    23499808.576
  21915775.864   -12831893.67349  -9985911.78847  21915775.344    21915781.157
  21672014.393   -12949239.49549 -10080209.07847  21672013.817    21672019.878
  20440292.718   -23008238.37749 -17917092.78948  20440292.690    20440296.825
  21084892.308   -17375039.16149 -13524559.38047  21084891.613    21084894.145
  23824375.910    -5489478.17749  -4124408.43245  23824375.138    23824382.766
  23889105.169    -3619369.58949  -2802124.33845  23889104.508    23889112.322
 04  7 19  0  6 30.0000000  0  8G16G20G27G 1G13G23G 3G 8
  22927015.872   -11744383.89049  -9129753.59446  22927015.467    22927020.765
  23520986.299    -6972908.99149  -4936036.51645  23520985.250    23520992.272
  21906503.369   -12880620.50449 -10023880.72647  21906502.884    21906508.758
  21683144.494   -12890750.58949 -10034633.35547  21683143.932    21683149.961
  20434810.937   -23037045.94349 -17939540.24748  20434810.875    20434814.891
  21095029.837   -17321766.11149 -13483047.93547  21095029.165    21095031.666
  23813094.455    -5548760.44149  -4170602.36645  23813093.959    23813101.837
  23872637.634    -3705906.03749  -2869555.26445  23872636.948    23872644.774
 04  7 19  0  7  0.0000000  0  8G16G20G27G 1G13G23G 3G 8
  22942245.199   -11664355.25549  -9067393.66446  22942244.534    22942249.679
  23542195.603    -6861453.85449  -4849188.44845  23542194.618    23542201.517
  21897267.845   -12929153.74849 -10061698.81647  21897267.328    21897273.139
  21694330.334   -12831968.66449  -9988829.28947  21694329.758    21694335.805
  20429393.620   -23065514.49349 -17961723.52548  20429393.525    20429397.450
  21105233.366   -17268146.11049 -13441266.13747  21105232.721    21105235.211
  23801876.083    -5607713.35449  -4216539.67445  23801875.454    23801883.423
  23856195.874    -3792306.25049  -2936879.99545  23856195.320    23856203.246
 04  7 19  0  7 30.0000000  0  8G16G20G27G 1G13G23G 3G 8
  22957542.607   -11583966.87249  -9004753.39346  22957541.915    22957547.144
  23563430.206    -6749867.31149  -4762237.97945  23563428.978    23563435.810
  21888068.982   -12977493.54249 -10099366.16347  21888068.486    21888074.405
  21705571.902   -12772894.12449  -9942797.20947  21705571.326    21705577.389
  20424040.961   -23093642.91849 -17983641.76748  20424040.911    20424044.792
  21115502.930   -17214179.63449 -13399214.35647  21115502.252    21115504.747
  23790720.706    -5666334.75049  -4262218.64845  23790720.237    23790728.202
  23839780.532    -3878569.72149  -3004098.18145  23839779.924    23839787.770
 04  7 19  0  8  0.0000000  0  8G16G20G27G 1G13G23G 3G 8
  22972907.929   -11503220.92049  -8941834.50146  22972907.338    22972912.705
  23584688.849    -6638151.66449  -4675186.91545  23584687.700    23584694.766
  21878907.023   -13025639.96249 -10136882.82647  21878906.528    21878912.509
  21716869.098   -12713526.76849  -9896536.95747  21716868.505    21716874.692
  20418753.243   -23121429.73649 -18005293.82548  20418753.171    20418757.034
  21125838.405   -17159866.36249 -13356892.34447  21125837.747    21125840.263
  23779629.034    -5724621.22849  -4307636.63945  23779628.715    23779636.714
  23823391.591    -3964695.62049  -3071209.19445  23823390.890    23823398.430
 04  7 19  0  8 30.0000000  0  8G16G20G27G 1G13G23G 3G 8
  22988340.958   -11422119.61049  -8878638.71646  22988340.413    22988345.833
  23605971.168    -6526309.50749  -4588037.30145  23605970.237    23605977.734
  21869781.850   -13073592.89449 -10174248.72347  21869781.345    21869787.344
  21728221.804   -12653866.49349  -9850048.45347  21728221.385    21728227.658
  20413530.976   -23148872.91649 -18026678.12648  20413530.917    20413534.776
  21136239.796   -17105206.60749 -13314300.34047  21136239.186    21136241.668
  23768601.712    -5782569.70849  -4352791.23645  23768601.550    23768609.481
  23807028.599    -4050683.43449  -3138212.59545  23807027.888    23807035.515
 04  7 19  0  9  0.0000000  0  8G16G20G27G 1G13G23G 3G 8
  23003841.093   -11340665.49449  -8815168.02546  23003840.613    23003846.086
  23627277.308    -6414343.22249  -4500790.94245  23627276.607    23627284.235
  21860693.575   -13121352.26049 -10211463.78347  21860693.037    21860699.036
  21739630.719   -12593913.44649  -9803331.81247  21739630.127    21739636.441
  20408374.311   -23175971.23049 -18047793.69148  20408374.227    20408378.160
  21146707.255   -17050200.34449 -13271438.33347  21146706.570    21146709.042
  23757639.246    -5840177.19749  -4397680.13045  23757639.289    23757646.993
  23790691.596    -4136532.65049  -3205107.96445  23790691.038    23790698.789
 04  7 19  0  9 30.0000000  0  8G16G20G27G 1G13G23G 3G 8
  23019407.968   -11258861.14349  -8751424.40646  23019407.526    23019412.965
  23648607.254    -6302255.79049  -4413450.22045  23648606.390    23648613.842
  21851641.893   -13168918.62949 -10248528.46547  21851641.384    21851647.355
  21751095.033   -12533667.82249  -9756387.18747  21751094.431    21751100.876
  20403283.497   -23202723.37749 -18068639.52448  20403283.471    20403287.356
  21157240.395   -16994847.84449 -13228306.53447  21157239.798    21157242.222
  23746742.510    -5897441.27349  -4442301.41245  23746742.223    23746749.796
  23774381.313    -4222243.32149  -3271895.44745  23774380.729    23774388.478
 04  7 19  0 10  0.0000000  0  8G16G20G27G 1G13G23G 3G 8
  23035040.772   -11176710.35249  -8687410.84646  23035040.323    23035045.732
  23669959.895    -6190051.16149  -4326018.14545  23669958.737    23669965.686
  21842626.738   -13216293.08849 -10285443.60447  21842626.265    21842632.229
  21762614.893   -12473130.83249  -9709215.53047  21762614.295    21762620.730
  20398258.741   -23229128.86049 -18089215.22748  20398258.679    20398262.601
  21167839.212   -16939150.60649 -13184906.09747  21167838.590    21167841.107
  23735911.297    -5954360.21449  -4486653.77545  23735910.910    23735918.320
  23758097.524    -4307815.52849  -3338574.99445  23758096.932    23758104.657
 04  7 19  0 10 30.0000000  0  8G16G20G27G 1G13G23G 3G 8
  23050739.081   -11094214.71049  -8623128.58346  23050738.736    23050744.087
  23691333.827    -6077731.34349  -4238496.29545  23691332.752    23691339.520
  21833648.235   -13263475.16849 -10322208.84447  21833647.790    21833653.740
  21774190.246   -12412302.04749  -9661816.49247  21774189.722    21774196.073
  20393300.301   -23255185.71149 -18109519.26648  20393300.252    20393304.153
  21178503.608   -16883108.43149 -13141236.88847  21178503.097    21178505.611
  23725146.389    -6010930.55949  -4530734.50645  23725145.784    23725153.296
  23741840.302    -4393248.10449  -3405145.76545  23741839.587    23741847.160
 04  7 19  0 11  0.0000000  0  8G16G20G27G 1G13G23G 3G 8
  23066502.809   -11011376.28049  -8558579.20746  23066502.493    23066507.696
  23712729.002    -5965298.42149  -4150886.32245  23712727.940    23712734.895
  21824706.507   -13310464.57349 -10358823.93747  21824706.041    21824711.941
  21785821.330   -12351180.84349  -9614189.61747  21785820.770    21785827.041
  20388408.485   -23280892.01149 -18129550.14448  20388408.498    20388412.377
  21189233.843   -16826720.73349 -13097298.44047  21189233.289    21189235.830
  23714448.044    -6067148.89749  -4574540.95045  23714447.719    23714455.104
  23725609.683    -4478540.06549  -3471606.95745  23725608.934    23725616.439
 04  7 19  0 11 30.0000000  0  8G16G20G27G 1G13G23G 3G 8
  23082331.233   -10928198.01749  -8493765.02546  23082330.835    23082335.963
  23734145.156    -5852755.43849  -4063190.59745  23734144.105    23734151.236
  21815801.382   -13357261.51949 -10395289.06847  21815800.925    21815806.778
  21797507.827   -12289767.87849  -9566335.38947  21797507.320    21797513.553
  20383583.677   -23306246.69749 -18149307.03948  20383583.679    20383587.540
  21200029.581   -16769988.41549 -13053091.46447  21200029.115    21200031.633
  23703817.252    -6123012.98549  -4618071.33745  23703817.019    23703824.606
  23709405.876    -4563691.38849  -3537958.54945  23709405.161    23709412.531
 04  7 19  0 12  0.0000000  0  8G16G20G27G 1G13G23G 3G 8
  23098223.719   -10844682.64549  -8428688.17046  23098223.272    23098228.417
  23755581.642    -5740105.19349  -3975411.30745  23755580.664    23755587.877
  21806932.759   -13403866.50849 -10431604.62447  21806932.295    21806938.074
  21809249.887   -12228063.34249  -9518253.97047  21809249.361    21809255.518
  20378826.008   -23331248.52849 -18168788.98548  20378825.963    20378829.855
  21210891.087   -16712911.60349 -13008616.05947  21210890.556    21210892.981
  23693254.563    -6178520.19749  -4661323.66245  23693254.282    23693261.949
  23693229.106    -4648701.74749  -3604200.31145  23693228.359    23693235.650
 04  7 19  0 12 30.0000000  0  8G16G20G27G 1G13G23G 3G 8
  23114179.884   -10760832.58749  -8363350.52046  23114179.466    23114184.600
  23777038.480    -5627350.11749  -3887550.32745  23777037.528    23777044.615
  21798100.712   -13450279.42549 -10467770.51647  21798100.239    21798105.921
  21821047.379   -12166067.21849  -9469945.34347  21821046.854    21821052.976
  20374135.835   -23355895.59949 -18187994.49748  20374135.789    20374139.687
  21221817.903   -16655490.55149 -12963872.40747  21221817.421    21221819.906
  23682760.440    -6233667.24649  -4704295.35245  23682760.106    23682767.624
  23677078.977    -4733570.12449  -3670331.44145  23677078.230    23677085.512
 04  7 19  0 13  0.0000000  0  8G16G20G27G 1G13G23G 3G 8
  23130199.331   -10676650.62649  -8297754.22946  23130198.837    23130203.924
  23798514.628    -5514493.57649  -3799610.29445  23798513.722    23798520.733
  21789305.034   -13496500.98849 -10503787.29747  21789304.549    21789310.227
  21832900.189   -12103780.28349  -9421410.10147  21832899.678    21832905.741
  20369513.331   -23380187.34649 -18206923.13348  20369513.249    20369517.172
  21232810.129   -16597726.11449 -12918861.18947  21232809.662    21232812.081
  23672335.424    -6288452.21949  -4746984.89645  23672334.754    23672342.381
  23660955.932    -4818296.94449  -3736352.25345  23660955.171    23660962.511
 04  7 19  0 13 30.0000000  0  8G16G20G27G 1G13G23G 3G 8
  23146281.281   -10592139.05649  -8231901.11546  23146280.803    23146285.924
  23820009.429    -5401537.71049  -3711592.86145  23820008.670    23820015.710
  21780545.765   -13542530.90549 -10539654.75047  21780545.282    21780551.016
  21844808.439   -12041202.33849  -9372648.09547  21844807.874    21844813.906
  20364958.714   -23404121.93749 -18225573.46148  20364958.673    20364962.598
  21243867.752   -16539617.81349 -12873582.02547  21243867.287    21243869.726
  23661979.502    -6342871.99649  -4789389.88345  23661979.062    23661986.641
  23644860.043    -4902881.04249  -3802261.84045  23644859.335    23644866.694
 04  7 19  0 14  0.0000000  0  8G16G20G27G 1G13G23G 3G 8
  23162425.514   -10507300.08549  -8165792.85446  23162425.166    23162430.184
  23841522.351    -5288485.04849  -3623499.96145  23841521.629    23841529.034
  21771822.989   -13588369.06649 -10575372.77647  21771822.511    21771828.286
  21856771.859   -11978333.44949  -9323659.38447  21856771.412    21856777.501
  20360472.392   -23427697.58149 -18243944.08948  20360472.368    20360476.309
  21254990.834   -16481165.89149 -12828035.09547  21254990.326    21254992.791
  23651693.951    -6396923.55749  -4831507.92145  23651693.513    23651700.980
  23628791.554    -4987321.67549  -3868059.65145  23628790.808    23628798.202
 04  7 19  0 14 30.0000000  0  8G16G20G27G 1G13G23G 3G 8
  23178631.618   -10422136.65249  -8099431.77246  23178631.317    23178636.281
  23863053.337    -5175338.68649  -3535334.05645  23863052.423    23863059.960
  21763136.614   -13634016.03649 -10610941.81847  21763136.144    21763141.992
  21868790.807   -11915174.06549  -9274444.31147  21868790.261    21868796.394
  20356054.731   -23450913.15149 -18262034.14248  20356054.637    20356058.525
  21266179.189   -16422371.12149 -12782221.01147  21266178.591    21266181.064
  23641479.004    -6450604.71149  -4873337.31545  23641478.355    23641485.727
  23612750.251    -5071619.03749  -3933745.82545  23612749.532    23612756.784
 04  7 19  0 15  0.0000000  0  8G16G20G27G 1G13G23G 3G 8
  23194899.106   -10336651.85849  -8032820.29246  23194898.606    23194903.495
  23884601.820    -5062101.70049  -3447097.58145  23884600.844    23884608.475
  21754486.570   -13679472.34149 -10646362.29147  21754486.103    21754491.955
  21880864.816   -11851724.81149  -9225003.36247  21880864.323    21880870.432
  20351705.542   -23473767.82749 -18279842.97448  20351705.488    20351709.434
  21277432.470   -16363234.38349 -12736140.44547  21277431.931    21277434.420
  23631334.624    -6503913.11949  -4914876.28545  23631334.108    23631341.474
  23596736.200    -5155773.21949  -3999320.42345  23596735.390    23596742.570
 04  7 19  0 15 30.0000000  0  8G16G20G27G 1G13G23G 3G 8
  23211227.177   -10250847.80049  -7965960.03046  23211226.583    23211231.514
  23906167.420    -4948776.42749  -3358792.30845  23906166.284    23906173.910
  21745872.749   -13724737.98349 -10681634.20647  21745872.316    21745878.180
  21892994.088   -11787985.63949  -9175336.51147  21892993.536    21892999.663
  20347425.396   -23496259.97849 -18297369.32748  20347425.341    20347429.259
  21288750.915   -16303755.78249 -12689793.50047  21288750.315    21288752.842
  23621261.863    -6556845.51149  -4956122.23945  23621261.361    23621268.712
  23580749.520    -5239783.07849  -4064782.54345  23580748.668    23580755.888
 04  7 19  0 16  0.0000000  0  8G16G20G27G 1G13G23G 3G 8
  23227615.416   -10164726.74349  -7898852.77845  23227614.806    23227619.894
  23927749.227    -4835365.44549  -3270420.23145  23927748.004    23927755.658
  21737295.328   -13769812.63549 -10716757.28247  21737294.854    21737300.712
  21905178.397   -11723956.55949  -9125443.74747  21905177.911    21905184.022
  20343214.606   -23518387.82549 -18314611.80048  20343214.526    20343218.476
  21300134.359   -16243935.25949 -12643180.12347  21300133.764    21300136.345
  23611261.091    -6609399.11449  -4997073.04345  23611260.585    23611267.984
  23564790.246    -5323648.02449  -4130131.77245  23564789.496    23564796.859
 04  7 19  0 16 30.0000000  0  8G16G20G27G 1G13G23G 3G 8
  23244063.508   -10078290.93949  -7831500.25045  23244062.980    23244068.040
  23949346.537    -4721870.60849  -3181982.83945  23949345.424    23949353.319
  21728754.259   -13814696.24649 -10751731.51247  21728753.767    21728759.600
  21917418.029   -11659637.25649  -9075324.83447  21917417.498    21917423.613
  20339073.404   -23540149.82249 -18331569.19148  20339073.333    20339077.291
  21311583.111   -16183772.60949 -12596300.15947  21311582.398    21311584.931
  23601333.022    -6661571.14749  -5037726.50845  23601332.328    23601340.002
  23548858.914    -5407367.24849  -4195367.46046  23548858.295    23548865.710
 04  7 19  0 17  0.0000000  0  8G16G20G27G 1G13G23G 3G 8
  23260570.997    -9991543.59749  -7763904.95445  23260570.412    23260575.659
  23970958.633    -4608295.47649  -3093482.82945  23970957.702    23970966.119
  21720249.381   -13859389.58749 -10786557.46447  21720248.924    21720254.767
  21929712.734   -11595028.52549  -9024980.41547  21929712.156    21929718.275
  20335001.955   -23561545.04549 -18348240.79748  20335001.941    20335005.899
  21323096.554   -16123269.05749 -12549154.56947  21323095.878    21323098.380
  23591477.684    -6713359.39449  -5078080.91845  23591477.051    23591484.892
  23532955.497    -5490940.68449  -4260489.53546  23532954.874    23532962.169
 04  7 19  0 17 30.0000000  0  8G16G20G27G 1G13G23G 3G 8
  23277137.325    -9904487.13649  -7696068.79245  23277136.753    23277142.116
  23992585.340    -4494642.87149  -3004922.47845  23992584.810    23992593.494
  21711780.788   -13903892.60149 -10821235.11447  21711780.327    21711786.133
  21942062.407   -11530130.71449  -8974410.71947  21942061.767    21942067.883
  20331000.584   -23582572.27249 -18364625.64248  20331000.571    20331004.546
  21334674.704   -16062424.83249 -12501743.51447  21334674.152    21334676.660
  23581695.913    -6764761.15049  -5118134.19145  23581695.552    23581703.455
  23517079.832    -5574368.49449  -4325498.13046  23517079.116    23517086.160
 04  7 19  0 18  0.0000000  0  8G16G20G27G 1G13G23G 3G 8
  23293761.916    -9817124.31349  -7627993.91045  23293761.295    23293766.839
  24014227.251    -4380915.63749  -2916303.99745  24014226.256    24014234.938
  21703348.181   -13948205.76849 -10855764.83547  21703347.725    21703353.565
  21954466.795   -11464944.27749  -8923616.11947  21954466.289    21954472.446
  20327069.625   -23603229.92049 -18380722.50848  20327069.602    20327073.528
  21346317.706   -16001240.43549 -12454067.39547  21346317.162    21346319.682
  23571988.513    -6815773.78349  -5157884.22345  23571988.162    23571995.976
  23501231.940    -5657649.66949  -4390392.45446  23501231.287    23501238.052
 04  7 19  0 18 30.0000000  0  8G16G20G27G 1G13G23G 3G 8
  23310444.163    -9729457.91849  -7559682.47745  23310443.655    23310449.313
  24035883.141    -4267116.54849  -2827629.51845  24035882.124    24035890.278
  21694951.655   -13992329.42749 -10890146.88747  21694951.188    21694957.008
  21966926.290   -11399469.65549  -8872596.96646  21966925.644    21966931.846
  20323209.198   -23623517.25449 -18396530.81648  20323209.105    20323212.980
  21358025.285   -15939716.58149 -12406126.76447  21358024.757    21358027.299
  23562355.304    -6866395.29549  -5197329.50945  23562355.081    23562362.922
  23485411.858    -5740784.66049  -4455172.86746  23485411.178    23485417.967
 04  7 19  0 19  0.0000000  0  8G16G20G27G 1G13G23G 3G 8
  23327183.870    -9641490.40349  -7491136.38645  23327183.447    23327189.121
  24057552.403    -4153248.07649  -2738900.99045  24057551.313    24057558.723
  21686591.215   -14036263.64749 -10924381.33147  21686590.766    21686596.536
  21979440.559   -11333706.97649  -8821353.36446  21979439.930    21979446.086
  20319419.437   -23643432.59849 -18412049.26448  20319419.369    20319423.200
  21369797.470   -15877853.53049 -12357921.81347  21369796.948    21369799.515
  23552797.523    -6916622.90049  -5236467.83745  23552797.127    23552804.808
  23469619.612    -5823772.52349  -4519838.67046  23469618.911    23469625.922
 04  7 19  0 19 30.0000000  0  8G16G20G27G 1G13G23G 3G 8
  23343980.269    -9553224.65349  -7422357.92345  23343979.849    23343985.572
  24079233.959    -4039313.08549  -2650120.60645  24079232.854    24079239.976
  21678266.785   -14080008.87349 -10958468.50347  21678266.318    21678272.003
  21992009.612   -11267656.75649  -8769885.70847  21992008.939    21992015.072
  20315700.648   -23662974.94249 -18427277.06548  20315700.573    20315704.408
  21381633.957   -15815651.94849 -12309453.07747  21381633.523    21381636.121
  23543314.942    -6966454.24449  -5275297.42645  23543314.562    23543322.194
  23453855.541    -5906613.15749  -4584389.74846  23453854.824    23453861.808
 04  7 19  0 20  0.0000000  0  8G16G20G27G 1G13G23G 3G 8
  23360833.132    -9464662.94249  -7353348.84645  23360832.592    23360838.352
  24100927.449    -3925313.96449  -2561290.26345  24100926.446    24100933.633
  21669978.295   -14123565.02149 -10992408.34047  21669977.827    21669983.524
  22004633.151   -11201319.05749  -8718194.03947  22004632.590    22004638.760
  20312053.181   -23682142.52949 -18442212.84448  20312053.108    20312056.925
  21393534.999   -15753112.01449 -12260720.68047  21393534.504    21393537.070
  23533908.249    -7015886.27649  -5313815.85045  23533908.064    23533915.575
  23438119.715    -5989305.67749  -4648825.39946  23438118.919    23438125.770
 04  7 19  0 20 30.0000000  0  8G16G20G27G 1G13G23G 3G 8
  23377741.882    -9375807.55949  -7284110.92845  23377741.247    23377746.963
  24122632.343    -3811253.41849  -2472412.01745  24122631.241    24122638.803
  21661725.799   -14166931.94349 -11026200.72047  21661725.330    21661731.098
  22017311.453   -11134694.04649  -8666278.47947  22017310.983    22017317.180
  20308477.305   -23700933.84249 -18456855.42648  20308477.244    20308481.053
  21405500.465   -15690233.96149 -12211724.80847  21405499.861    21405502.409
  23524578.252    -7064916.42049  -5352021.10945  23524577.914    23524585.513
  23422412.033    -6071849.56249  -4713145.24446  23422411.223    23422418.038
 04  7 19  0 21  0.0000000  0  8G16G20G27G 1G13G23G 3G 8
  23394705.992    -9286660.94349  -7214646.08045  23394705.392    23394710.896
  24144348.568    -3697133.50249  -2383487.55345  24144347.316    24144355.089
  21653509.366   -14210109.60149 -11059845.63547  21653508.888    21653514.646
  22030044.495   -11067781.60649  -8614138.95447  22030043.988    22030050.304
  20304973.348   -23719347.38449 -18471203.63848  20304973.289    20304977.052
  21417530.070   -15627017.97449 -12162465.62547  21417529.433    21417532.052
  23515325.049    -7113541.76049  -5389910.93145  23515324.829    23515332.319
  23406732.576    -6154244.15749  -4777348.75446  23406731.866    23406738.698
 04  7 19  0 21 30.0000000  0  8G16G20G27G 1G13G23G 3G 8
  23411724.839    -9197227.32349  -7144957.57945  23411724.131    23411729.512
  24166075.581    -3582958.94349  -2294520.52745  24166074.314    24166081.612
  21645328.660   -14253099.80349 -11093344.48247  21645328.181    21645333.889
  22042831.662   -11000583.96049  -8561777.17347  22042831.226    22042837.679
  20301541.167   -23737383.41449 -18485257.68748  20301541.136    20301544.931
  21429623.683   -15563466.06349 -12112944.68347  21429623.031    21429625.609
  23506149.199    -7161761.56949  -5427484.76045  23506148.832    23506156.360
  23391081.500    -6236490.49749  -4841436.71646  23391080.782    23391087.658
 04  7 19  0 22  0.0000000  0  8G16G20G27G 1G13G23G 3G 8
  23428797.935    -9107507.68649  -7075046.23445  23428797.291    23428802.651
  24187812.427    -3468730.71049  -2205511.68245  24187811.496    24187818.443
  21637183.762   -14295901.37049 -11126696.33947  21637183.310    21637188.950
  22055673.539   -10933099.80149  -8509192.14447  22055673.065    22055679.518
  20298181.394   -23755039.14849 -18499015.40048  20298181.351    20298185.153
  21441781.439   -15499577.31249 -12063161.26147  21441780.654    21441783.191
  23497051.046    -7209571.82149  -5464739.45445  23497050.770    23497058.318
  23375458.958    -6318587.16449  -4905408.07846  23375458.227    23375465.130
 04  7 19  0 22 30.0000000  0  8G16G20G27G 1G13G23G 3G 8
  23445924.962    -9017503.77149  -7004913.36745  23445924.365    23445929.796
  24209559.126    -3354450.69549  -2116462.50045  24209558.381    24209565.127
  21629074.973   -14338513.53849 -11159900.60847  21629074.493    21629080.081
  22068570.041   -10865328.57649  -8456383.42547  22068569.557    22068575.958
  20294894.433   -23772312.34349 -18512475.03148  20294894.347    20294898.176
  21454003.116   -15435351.11649 -12013114.91147  21454002.483    21454005.081
  23488031.480    -7256969.12949  -5501672.37545  23488031.344    23488038.814
  23359865.102    -6400532.46149  -4969261.49146  23359864.502    23359871.459
 04  7 19  0 23  0.0000000  0  8G16G20G27G 1G13G23G 3G 8
  23463105.506    -8927218.98649  -6934561.62645  23463104.921    23463110.453
  24231315.202    -3240122.28749  -2027375.55745  24231314.381    24231321.429
  21621002.029   -14380937.34349 -11192958.10847  21621001.542    21621007.112
  22081520.906   -10797271.54649  -8403352.02347  22081520.461    22081526.823
  20291680.264   -23789202.86049 -18525636.47348  20291680.202    20291684.025
  21466288.976   -15370789.34049 -11962807.06747  21466288.238    21466290.807
  23479090.875    -7303952.09549  -5538282.45045  23479090.753    23479098.162
  23344300.158    -6482326.50149  -5032997.04346  23344299.507    23344306.611
 04  7 19  0 23 30.0000000  0  8G16G20G27G 1G13G23G 3G 8
  23480338.893    -8836656.34149  -6863993.37845  23480338.509    23480343.878
  24253079.577    -3125748.70249  -1938253.39845  24253078.794    24253086.348
  21612964.738   -14423173.51749 -11225869.39647  21612964.256    21612969.842
  22094526.135   -10728929.55449  -8350098.56546  22094525.598    22094531.906
  20288539.061   -23805709.76849 -18538498.99948  20288539.037    20288542.837
  21478638.411   -15305892.56149 -11912238.17947  21478637.709    21478640.318
  23470229.931    -7350518.35249  -5574567.78745  23470229.579    23470236.867
  23328763.620    -6563970.35849  -5096615.57846  23328763.053    23328770.283
 04  7 19  0 24  0.0000000  0  9G19G16G20G27G 1G13G23G 3G 8
  24719092.115    -3919775.26849  -3042003.27745  24719090.321    24719096.568
  23497624.651    -8745819.69049  -6793211.62045  23497624.174    23497629.538
  24274851.527    -3011333.58849  -1849098.86545  24274851.020    24274858.982
  21604962.953   -14465223.16649 -11258635.33447  21604962.436    21604968.096
  22107585.095   -10660303.95349  -8296624.11646  22107584.608    22107590.931
  20285470.960   -23821832.62249 -18551062.25948  20285470.911    20285474.751
  21491051.235   -15240662.47149 -11861409.57047  21491050.575    21491053.218
  23461448.118    -7396666.85149  -5610527.62545  23461447.738    23461454.968
  23313255.736    -6645463.90149  -5160116.98146  23313255.298    23313262.513
 04  7 19  0 24 30.0000000  0  9G19G16G20G27G 1G13G23G 3G 8
  24703282.511    -4002850.21649  -3106736.95045  24703281.056    24703287.662
  23514962.028    -8654710.84849  -6722217.75745  23514961.640    23514966.903
  24296631.841    -2896879.05849  -1759913.68345  24296631.242    24296639.128
  21596996.710   -14507085.80649 -11291255.56847  21596996.211    21597001.934
  22120698.284   -10591394.56649  -8242928.54146  22120697.640    22120703.966
  20282476.359   -23837569.72249 -18563324.93448  20282476.274    20282480.079
  21503527.612   -15175098.79649 -11810321.02847  21503526.968    21503529.557
  23452746.357    -7442394.42549  -5646159.46145  23452745.993    23452753.253
  23297776.823    -6726806.88749  -5223501.05046  23297776.305    23297783.385
 04  7 19  0 25  0.0000000  0  9G19G16G20G27G 1G13G23G 3G 8
  24687482.937    -4085876.32949  -3171432.44045  24687481.681    24687488.134
  23532351.308    -8563331.02249  -6651012.75845  23532350.713    23532356.074
  24318419.657    -2782386.38149  -1670698.79945  24318418.998    24318426.451
  21589066.218   -14548760.49649 -11323729.33747  21589065.721    21589071.518
  22133865.547   -10522200.41349  -8189011.06146  22133864.874    22133871.220
  20279555.627   -23852918.09049 -18575284.70148  20279555.546    20279559.358
  21516067.639   -15109200.86249 -11758972.00947  21516066.987    21516069.586
  23444125.623    -7487697.20949  -5681460.31145  23444125.199    23444132.403
  23282327.038    -6807996.82549  -5286765.84546  23282326.451    23282333.488
 04  7 19  0 25 30.0000000  0  9G19G16G20G27G 1G13G23G 3G 8
  24671693.456    -4168851.58849  -3236088.31845  24671692.322    24671698.498
  23549791.437    -8471683.82649  -6579599.41045  23549790.729    23549796.054
  24340213.664    -2667859.37949  -1581457.17445  24340212.811    24340219.734
  21581171.306   -14590248.35249 -11356057.52547  21581170.816    21581176.638
  22147086.622   -10452722.95449  -8134872.81046  22147086.041    22147092.352
  20276708.841   -23867877.82049 -18586941.62748  20276708.797    20276712.618
  21528670.925   -15042970.34449 -11707363.84447  21528670.262    21528672.913
  23435586.073    -7532573.88849  -5716429.12745  23435585.601    23435592.566
  23266906.084    -6889034.81249  -5349912.26346  23266905.308    23266912.446
 04  7 19  0 26  0.0000000  0  9G19G16G20G27G 1G13G23G 3G 8
  24655914.261    -4251772.33549  -3300701.77245  24655913.127    24655919.575
  23567281.755    -8379771.17949  -6507979.20645  23567281.151    23567286.552
  24362013.486    -2553299.84449  -1492190.16544  24362012.871    24362020.098
  21573312.111   -14631548.51449 -11388239.46347  21573311.647    21573317.470
  22160361.740   -10382961.73349  -8080513.46246  22160361.161    22160367.502
  20273936.433   -23882446.77349 -18598294.05348  20273936.416    20273940.258
  21541337.658   -14976406.71949 -11655496.11647  21541336.963    21541339.604
  23427128.210    -7577021.30749  -5751063.44545  23427127.507    23427134.383
  23251514.037    -6969919.33549  -5412939.11746  23251513.362    23251520.613
 04  7 19  0 26 30.0000000  0  9G19G16G20G27G 1G13G23G 3G 8
  24640145.398    -4334635.39849  -3365270.31045  24640144.354    24640151.382
  23584822.271    -8287595.32449  -6436153.92245  23584821.707    23584827.149
  24383819.120    -2438710.07449  -1402899.56544  24383818.264    24383826.386
  21565488.594   -14672661.26449 -11420275.35747  21565488.113    21565493.926
  22173690.832   -10312916.99349  -8025933.19246  22173690.254    22173696.621
  20271238.716   -23896623.50449 -18609340.85248  20271238.683    20271242.488
  21554067.632   -14909510.39649 -11603369.13447  21554066.950    21554069.531
  23418752.171    -7621036.91849  -5785361.28145  23418751.506    23418758.421
  23236151.561    -7050649.61249  -5475845.77846  23236150.957    23236158.044
 04  7 19  0 27  0.0000000  0  9G19G16G20G27G 1G13G23G 3G 8
  24624388.448    -4417437.84849  -3429791.60545  24624387.022    24624394.718
  23602412.342    -8195158.82749  -6364125.55645  23602411.790    23602417.136
  24405629.939    -2324092.77249  -1313587.53645  24405629.263    24405637.721
  21557700.707   -14713586.63649 -11452165.25447  21557700.235    21557706.064
  22187073.790   -10242589.23449  -7971132.39146  22187073.209    22187079.636
  20268615.881   -23910406.81049 -18620081.09248  20268615.809    20268619.555
  21566860.701   -14842282.16349 -11550983.53047  21566860.033    21566862.647
  23410458.574    -7664618.39949  -5819320.85045  23410458.197    23410465.056
  23220818.254    -7131226.05249  -5538632.54346  23220817.653    23220824.698
 04  7 19  0 27 30.0000000  0  9G19G16G20G27G 1G13G23G 3G 8
  24608643.899    -4500177.31449  -3494263.77545  24608642.471    24608649.606
  23620051.351    -8102464.91349  -6291896.58245  23620050.868    23620056.186
  24427446.040    -2209451.11149  -1224256.51645  24427445.270    24427453.611
  21549948.375   -14754325.24949 -11483909.61547  21549947.941    21549953.775
  22200510.529   -10171979.26149  -7916111.67446  22200509.907    22200516.240
  20266068.009   -23923795.91349 -18630514.15548  20266067.953    20266071.721
  21579716.736   -14774722.99049 -11498340.04247  21579716.104    21579718.789
  23402248.230    -7707763.86049  -5852940.65545  23402247.881    23402254.746
  23205514.143    -7211648.47649  -5601299.28046  23205513.568    23205520.748
 04  7 19  0 28  0.0000000  0  9G19G16G20G27G 1G13G23G 3G 8
  24592911.899    -4582851.20249  -3558684.83945  24592910.333    24592916.844
  23637738.777    -8009516.66949  -6219469.45945  23637738.274    23637743.799
  24449266.238    -2094788.06849  -1134908.84445  24449265.344    24449273.481
  21542231.553   -14794877.90949 -11515509.07847  21542231.064    21542236.857
  22214000.534   -10101088.01149  -7860871.76146  22213999.978    22214006.365
  20263595.256   -23936790.23949 -18640639.60348  20263595.205    20263598.962
  21592635.565   -14706833.95449 -11445439.52747  21592634.990    21592637.637
  23394121.329    -7750471.54749  -5886219.33245  23394120.807    23394127.744
  23190239.552    -7291916.77449  -5663845.95146  23190238.992    23190246.084
 04  7 19  0 28 30.0000000  0  9G19G16G20G27G 1G13G23G 3G 8
  24577192.079    -4665456.48849  -3623052.48945  24577190.836    24577197.422
  23655474.214    -7916316.67749  -6146846.13045  23655473.756    23655479.247
  24471089.901    -1980106.27249  -1045546.55945  24471088.788    24471096.700
  21534550.002   -14835244.89049 -11546963.85947  21534549.492    21534555.248
  22227544.019   -10029916.18049  -7805413.22646  22227543.512    22227550.019
  20261198.007   -23949388.01249 -18650456.05348  20261197.954    20261201.712
  21605616.993   -14638615.64449 -11392282.43447  21605616.453    21605619.165
  23386077.954    -7792739.22249  -5919155.15345  23386077.446    23386084.498
  23174994.358    -7372030.68649  -5726272.27246  23174993.716    23175000.791
 04  7 19  0 29  0.0000000  0  9G19G16G20G27G 1G13G23G 3G 8
  24561485.883    -4747989.31549  -3687363.68245  24561484.978    24561492.249
  23673257.183    -7822866.44449  -6074027.83945  23673256.676    23673262.264
  24492916.456    -1865407.79449   -956171.30344  24492914.997    24492922.698
  21526903.861   -14875425.33049 -11578273.28847  21526903.345    21526909.106
  22241141.178    -9958463.18649  -7749735.60346  22241140.609    22241147.196
  20258876.497   -23961587.45349 -18659962.11448  20258876.452    20258880.221
  21618661.341   -14570067.73549 -11338868.52547  21618660.782    21618663.417
  23378119.076    -7834563.53349  -5951745.47345  23378118.485    23378125.688
  23159778.682    -7451988.94149  -5788577.37146  23159778.178    23159785.252
 04  7 19  0 29 30.0000000  0  9G19G16G20G27G 1G13G23G 3G 8
  24545794.804    -4830446.56349  -3751616.00645  24545793.811    24545801.004
  23691087.171    -7729168.56449  -6001016.55345  23691086.742    23691092.402
  24514745.091    -1750695.14449   -866785.00044  24514744.004    24514750.670
  21519293.169   -14915419.41249 -11609437.50647  21519292.723    21519298.435
  22254791.619    -9886729.41149  -7693839.19146  22254791.128    22254797.737
  20256631.088   -23973387.34549 -18669156.83848  20256631.056    20256634.800
  21631768.236   -14501190.81149 -11285198.23347  21631767.659    21631770.220
  23370244.799    -7875942.14349  -5983988.52345  23370244.287    23370251.607
  23144592.788    -7531791.13049  -5850760.84546  23144592.183    23144599.514
 04  7 19  0 30  0.0000000  0  9G19G16G20G27G 1G13G23G 3G 8
  24530118.743    -4912825.57549  -3815807.34945  24530117.683    24530124.655
  23708963.794    -7635225.78949  -5927814.44745  23708963.536    23708969.266
  24536576.473    -1635971.12549   -777389.83344  24536575.284    24536581.400
  21511718.012   -14955227.54749 -11640456.82047  21511717.528    21511723.195
  22268495.516    -9814715.47149  -7637724.48546  22268495.021    22268501.441
  20254461.875   -23984786.88849 -18678039.60248  20254461.768    20254465.484
  21644937.651   -14431985.71149 -11231272.22847  21644937.002    21644939.572
  23362455.581    -7916873.26449  -6015882.88345  23362455.258    23362462.633
  23129436.571    -7611436.94649  -5912822.44246  23129435.995    23129443.374
 04  7 19  0 30 30.0000000  0  9G19G16G20G27G 1G13G23G 3G 8
  24514457.902    -4995124.48049  -3879936.24645  24514456.774    24514463.442
  23726886.622    -7541041.85849  -5854424.43945  23726886.239    23726892.039
  24558409.782    -1521239.20749   -687988.55744  24558408.497    24558415.262
  21504178.009   -14994850.86149 -11671332.11847  21504177.518    21504183.134
  22282252.371    -9742423.01649  -7581392.76946  22282251.908    22282258.178
  20252368.868   -23995785.81649 -18686610.19848  20252368.777    20252372.502
  21658168.970   -14362454.27549 -11177091.92347  21658168.402    21658171.075
  23354752.127    -7957355.51249  -6047427.46045  23354751.702    23354759.138
  23114310.095    -7690927.26349  -5974762.88346  23114309.556    23114316.554
 04  7 19  0 31  0.0000000  0  9G19G16G20G27G 1G13G23G 3G 8
  24498812.577    -5077340.66649  -3944000.69745  24498811.486    24498818.156
  23744854.879    -7446619.67149  -5780848.73845  23744854.429    23744860.152
  24580244.000    -1406502.66649   -598583.60544  24580242.362    24580250.032
  21496672.991   -15034290.13749 -11702064.01447  21496672.463    21496678.035
  22296062.022    -9669852.90649  -7524844.67946  22296061.607    22296067.772
  20250352.249   -24006383.19349 -18694867.90048  20250352.133    20250355.924
  21671462.258   -14292597.57049 -11122658.16847  21671461.689    21671464.425
  23347134.457    -7997387.19949  -6078620.94545  23347133.806    23347141.378
  23099213.191    -7770262.06149  -6036582.13346  23099212.608    23099219.344
 04  7 19  0 31 30.0000000  0  9G19G16G20G27G 1G13G23G 3G 8
  24483183.829    -5159469.65349  -4007997.20045  24483182.736    24483189.658
  23762868.277    -7351960.63949  -5707088.52745  23762867.569    23762873.350
  24602078.511    -1291762.47149   -509175.83845  24602076.796    24602085.477
  21489203.188   -15073544.13849 -11732651.53847  21489202.635    21489208.204
  22309924.714    -9597004.17249  -7468079.47446  22309924.261    22309930.443
  20248412.563   -24016576.39249 -18702810.66448  20248412.496    20248416.245
  21684817.686   -14222414.59449 -11067970.16047  21684817.074    21684819.876
  23339602.960    -8036964.66549  -6109460.51445  23339602.389    23339609.979
  23084145.832    -7849439.86249  -6098279.03946  23084145.379    23084152.373
 04  7 19  0 32  0.0000000  0  9G19G16G20G27G 1G13G23G 3G 8
  24467572.362    -5241508.42049  -4071923.41945  24467571.283    24467578.405
  23780926.109    -7257067.15849  -5633145.62045  23780925.378    23780931.166
  24623913.077    -1177021.52549   -419767.41144  24623911.201    24623920.362
  21481768.565   -15112612.88249 -11763094.70247  21481768.061    21481773.680
  22323840.339    -9523877.44849  -7411097.65346  22323839.817    22323846.110
  20246549.985   -24026364.42149 -18710437.70048  20246549.905    20246553.685
  21698234.942   -14151906.08449 -11013028.49147  21698234.435    21698237.304
  23332158.369    -8076085.83849  -6139944.52445  23332157.864    23332165.422
  23069108.806    -7928460.22149  -6159853.32046  23069108.329    23069115.240
 04  7 19  0 32 30.0000000  0  9G19G16G20G27G 1G13G23G 3G 8
  24451978.216    -5323454.13449  -4135777.14645  24451977.189    24451984.388
  23799027.923    -7161941.62249  -5559021.86145  23799027.246    23799032.960
  24645746.926    -1062282.22849   -330360.30344  24645745.392    24645754.630
  21474369.307   -15151496.69949 -11793393.77747  21474368.774    21474374.344
  22337808.657    -9450473.19649  -7353899.58146  22337808.187    22337814.637
  20244764.678   -24035746.12849 -18717748.13048  20244764.631    20244768.406
  21711714.216   -14081072.57649 -10957833.58147  21711713.673    21711716.525
  23324801.118    -8114748.34749  -6170071.14745  23324800.586    23324808.106
  23054101.815    -8007322.61549  -6221304.47946  23054101.288    23054108.125
 04  7 19  0 33  0.0000000  0  9G19G16G20G27G 1G13G23G 3G 8
  24436402.005    -5405303.72749  -4199555.93645  24436401.462    24436408.633
  23817173.525    -7066586.76849  -5484719.44845  23817172.665    23817178.438
  24667580.206     -947547.33749   -240956.69644  24667578.939    24667588.052
  21467005.148   -15190195.65849 -11823548.79947  21467004.612    21467010.168
  22351829.793    -9376792.04049  -7296485.72546  22351829.310    22351835.847
  20243056.919   -24044720.28149 -18724740.97648  20243056.883    20243060.694
  21725255.117   -14009915.00749 -10902386.15647  21725254.549    21725257.298
  23317531.731    -8152950.31649  -6199838.88445  23317531.119    23317538.527
  23039124.978    -8086026.93349  -6282632.46346  23039124.435    23039130.991
 04  7 19  0 33 30.0000000  0  9G19G16G20G27G 1G13G23G 3G 8
  24420845.320    -5487054.27649  -4263257.55245  24420844.651    24420851.590
  23835361.755    -6971005.27449  -5410240.42645  23835361.302    23835366.792
  24689412.647     -832819.23449   -151558.47144  24689411.447    24689419.567
  21459676.070   -15228710.06049 -11853560.01447  21459675.536    21459681.103
  22365903.579    -9302834.42349  -7238856.45146  22365903.037    22365909.652
  20241426.982   -24053285.66949 -18731415.30748  20241426.972    20241430.806
  21738857.563   -13938433.96049 -10846686.68747  21738857.022    21738859.720
  23310350.147    -8190689.39649  -6229245.93745  23310349.700    23310357.023
  23024178.214    -8164572.45249  -6343836.70446  23024177.554    23024184.180
 04  7 19  0 34  0.0000000  0  9G19G16G20G27G 1G13G23G 3G 8
  24405308.450    -5568702.66349  -4326879.54545  24405307.607    24405314.298
  23853593.125    -6875199.39149  -5335586.57945  23853592.492    23853597.929
  24711243.137     -718100.38449    -62167.38144  24711241.773    24711249.618
  21452382.132   -15267039.86249 -11883427.38147  21452381.625    21452387.247
  22380029.888    -9228600.80749  -7181012.12346  22380029.298    22380035.980
  20239875.088   -24061441.29149 -18737770.34048  20239875.036    20239878.853
  21752521.482   -13866630.15649 -10790735.70847  21752520.933    21752523.561
  23303257.411    -8227963.42949  -6258290.60345  23303256.801    23303263.906
  23009261.557    -8242959.08149  -6404917.16446  23009261.120    23009267.656
 04  7 19  0 34 30.0000000  0  9G19G16G20G27G 1G13G23G 3G 8
  24389791.214    -5650246.38049  -4390420.00445  24389790.280    24389797.152
  23871866.223    -6779172.36249  -5260760.36945  23871865.671    23871871.220
  24733071.155     -603394.23649     27213.87444  24733070.161    24733077.852
  21445123.159   -15305185.83749 -11913151.50147  21445122.661    21445128.300
  22394208.454    -9154092.37449  -7122953.64746  22394207.823    22394214.515
  20238401.311   -24069186.25949 -18743805.38248  20238401.236    20238405.028
  21766246.691   -13794504.62849 -10734534.04847  21766245.981    21766248.518
  23296253.319    -8264770.77249  -6286971.62745  23296252.649    23296259.506
  22994375.415    -8321187.10849  -6465873.99646  22994374.856    22994381.282
 04  7 19  0 35  0.0000000  0  9G19G16G20G27G 1G13G23G 3G 8
  24374294.693    -5731681.85149  -4453876.15845  24374293.518    24374300.423
  23890181.100    -6682926.10049  -5185763.36645  23890180.732    23890186.272
  24754896.594     -488702.64949    116583.76144  24754895.443    24754903.761
  21437899.285   -15343147.66049 -11942732.12347  21437898.801    21437904.476
  22408439.233    -9079309.03449  -7064680.97046  22408438.651    22408445.236
  20237005.927   -24076518.92049 -18749519.14548  20237005.872    20237009.679
  21780032.923   -13722057.65449 -10678081.90047  21780032.178    21780034.731
  23289338.154    -8301108.87949  -6315287.01545  23289337.667    23289344.632
  22979519.704    -8399255.30649  -6526706.30046  22979519.059    22979525.460
 04  7 19  0 35 30.0000000  0  9G19G16G20G27G 1G13G23G 3G 8
  24358819.124    -5813006.70449  -4517246.09945  24358817.992    24358824.605
  23908537.696    -6586463.75949  -5110597.99945  23908537.134    23908542.632
  24776718.068     -374028.91349    205939.81244  24776717.255    24776725.927
  21430710.361   -15380925.90549 -11972169.70547  21430709.858    21430715.556
  22422722.113    -9004252.06449  -7006195.07446  22422721.543    22422728.097
  20235689.108   -24083439.00549 -18754911.41848  20235689.044    20235692.852
  21793880.044   -13649290.83849 -10621380.52047  21793879.281    21793881.887
  23282512.949    -8336976.36649  -6343235.67045  23282512.381    23282519.247
  22964694.174    -8477163.78549  -6587414.15546  22964693.505    22964700.036
 04  7 19  0 36  0.0000000  0  8G19G16G27G 1G13G23G 3G 8
  24343366.119    -5894213.29549  -4580523.83345  24343364.949    24343371.250
  23926935.595    -6489783.28949  -5035262.64145  23926934.857    23926940.387
  21423557.071   -15418516.42549 -12001461.01047  21423556.590    21423562.247
  22437057.943    -8928917.40349  -6947492.79846  22437057.269    22437063.927
  20234451.855   -24089940.73749 -18759977.70248  20234451.791    20234455.610
  21807788.658   -13576199.97349 -10564426.62947  21807787.943    21807790.659
  23275778.407    -8372366.56549  -6370812.40945  23275777.875    23275784.542
  22949899.683    -8554907.97749  -6647994.00546  22949899.095    22949905.828
 04  7 19  0 36 30.0000000  0  8G19G16G27G 1G13G23G 3G 8
  24327935.045    -5975304.85149  -4643711.92845  24327933.732    24327939.516
  23945373.309    -6392893.45549  -4959764.12745  23945372.672    23945378.021
  21416438.319   -15455925.51649 -12030610.93247  21416437.869    21416443.512
  22451445.113    -8853311.90549  -6888579.48246  22451444.558    22451451.277
  20233293.358   -24096028.93149 -18764721.74948  20233293.233    20233297.054
  21821757.781   -13502792.03649 -10507225.67447  21821757.062    21821759.810
  23269133.995    -8407283.50149  -6398020.38545  23269133.385    23269140.004
  22935135.770    -8632493.38849  -6708450.14346  22935135.126    22935141.829
 04  7 19  0 37  0.0000000  0  8G19G16G27G 1G13G23G 3G 8
  24312526.446    -6056277.17949  -4706807.16345  24312524.930    24312531.083
  23963850.233    -6295796.01349  -4884103.82145  23963849.702    23963855.132
  21409354.356   -15493152.17349 -12059618.70247  21409353.913    21409359.442
  22465884.139    -8777434.98449  -6829454.65546  22465883.492    22465890.260
  20232213.858   -24101701.66049 -18769142.06248  20232213.750    20232217.588
  21835787.369   -13429066.75949 -10449777.43047  21835786.599    21835789.366
  23262579.969    -8441724.17749  -6424857.25045  23262579.582    23262586.124
  22920402.191    -8709919.04849  -6768781.78046  22920401.556    22920408.195
 04  7 19  0 37 30.0000000  0  8G19G16G27G 1G13G23G 3G 8
  24297141.062    -6137126.66349  -4769806.69745  24297139.521    24297146.031
  23982366.452    -6198492.33249  -4808282.85045  23982365.834    23982371.489
  21402305.246   -15530195.83549 -12088483.88547  21402304.733    21402310.213
  22480374.811    -8701286.40249  -6770118.14646  22480374.200    22480380.953
  20231213.682   -24106957.03249 -18773237.16148  20231213.622    20231217.531
  21849877.198   -13355024.02749 -10392081.84047  21849876.485    21849879.252
  23256117.427    -8475685.97949  -6451320.94046  23256116.866    23256123.357
  22905699.119    -8787183.87249  -6828988.06046  22905698.465    22905705.087
 04  7 19  0 38  0.0000000  0  8G19G16G27G 1G13G23G 3G 8
  24281779.932    -6217850.35749  -4832708.19745  24281778.414    24281784.974
  24000921.472    -6100985.17249  -4732303.30145  24000920.659    24000926.502
  21395290.769   -15567056.85149 -12117206.74947  21395290.289    21395295.803
  22494916.994    -8624867.10249  -6710570.67846  22494916.294    22494923.171
  20230293.196   -24111794.23249 -18777006.41248  20230293.159    20230297.023
  21864027.218   -13280665.05949 -10334139.82847  21864026.579    21864029.343
  23249746.101    -8509167.01649  -6477410.03646  23249745.626    23249752.150
  22891026.784    -8864287.43849  -6889068.73746  22891026.162    22891032.744
 04  7 19  0 38 30.0000000  0  8G19G16G27G 1G13G23G 3G 8
  24266443.539    -6298444.82849  -4895508.98445  24266441.851    24266448.324
  24019514.635    -6003276.78249  -4656166.97345  24019513.897    24019519.753
  21388311.181   -15603734.99849 -12145787.12047  21388310.661    21388316.248
  22509510.439    -8548177.23449  -6650812.40546  22509509.900    22509516.811
  20229452.604   -24116211.40949 -18780448.37248  20229452.591    20229456.501
  21878237.387   -13205990.03749 -10275951.53947  21878236.772    21878239.548
  23243466.837    -8542164.99849  -6503122.74146  23243466.363    23243472.875
  22876385.194    -8941229.29949  -6949023.39646  22876384.539    22876391.132
 04  7 19  0 39  0.0000000  0  8G19G16G27G 1G13G23G 3G 8
  24251132.160    -6378906.95449  -4958206.64945  24251130.411    24251136.756
  24038145.593    -5905369.49949  -4579875.66545  24038144.939    24038151.194
  21381366.254   -15640230.29749 -12174225.00947  21381365.769    21381371.388
  22524155.479    -8471217.26549  -6590843.65446  22524154.942    22524161.753
  20228692.157   -24120207.73649 -18783562.39548  20228692.088    20228696.002
  21892507.508   -13130999.67949 -10217517.52247  21892506.933    21892509.670
  23237279.847    -8574677.80349  -6528457.36846  23237279.327    23237285.886
  22861774.599    -9018008.58449  -7008851.36546  22861773.943    22861780.506
 04  7 19  0 39 30.0000000  0  8G19G16G27G 1G13G23G 3G 8
  24235846.199    -6459233.98349  -5020799.03745  24235844.614    24235850.707
  24056814.019    -5807265.94149  -4503431.40245  24056813.464    24056819.731
  21374456.065   -15676543.01149 -12202520.61647  21374455.612    21374461.267
  22538851.618    -8393988.12649  -6530665.17046  22538851.148    22538857.883
  20228011.857   -24123782.33749 -18786347.80148  20228011.859    20228015.761
  21906837.628   -13055694.72649 -10158838.38447  21906837.042    21906839.767
  23231185.487    -8606703.53649  -6553412.47246  23231184.995    23231191.680
  22847194.891    -9094625.28449  -7068552.61846  22847194.237    22847200.753
 04  7 19  0 40  0.0000000  0  8G19G16G27G 1G13G23G 3G 8
  24220586.490    -6539422.70249  -5083283.65945  24220585.129    24220591.206
  24075519.601    -5708968.70449  -4426836.26745  24075518.915    24075525.247
  21367580.719   -15712673.25649 -12230674.05147  21367580.272    21367585.904
  22553599.036    -8316490.40349  -6470277.38846  22553598.459    22553605.253
  20227412.110   -24126934.13249 -18788803.74648  20227412.114    20227416.015
  21921227.478   -12980076.11749 -10099914.83247  21921226.850    21921229.617
  23225184.272    -8638240.49149  -6577986.70946  23225183.720    23225190.335
  22832646.207    -9171079.15149  -7128127.01346  22832645.578    22832652.054
 04  7 19  0 40 30.0000000  0  8G19G16G27G 1G13G23G 3G 8
  24205353.934    -6619469.99849  -5145658.08145  24205352.604    24205358.691
  24094261.331    -5610480.24049  -4350092.07745  24094260.610    24094267.195
  21360740.107   -15748621.32349 -12258685.52847  21360739.618    21360745.158
  22568397.452    -8238724.76049  -6409680.83746  22568396.864    22568403.619
  20226893.034   -24129661.94349 -18790929.31948  20226893.033    20226896.888
  21935676.717   -12904144.53749 -10040747.42047  21935676.118    21935678.930
  23219276.181    -8669286.88249  -6602178.69546  23219275.620    23219282.436
  22818128.500    -9247369.96649  -7187574.35446  22818127.839    22818134.473
 04  7 19  0 41  0.0000000  0  8G19G16G27G 1G13G23G 3G 8
  24190148.985    -6699372.51649  -5207919.70045  24190147.749    24190153.808
  24113038.764    -5511802.77949  -4273200.58345  24113038.361    24113044.930
  21353934.204   -15784386.97449 -12286554.85947  21353933.699    21353939.182
  22583246.665    -8160691.49849  -6348875.74746  22583246.104    22583252.903
  20226454.869   -24131964.62549 -18792723.61548  20226454.857    20226458.741
  21950185.369   -12827900.67149  -9981336.64747  21950184.863    21950187.694
  23213462.045    -8699840.32949  -6625986.58646  23213461.385    23213468.397
  22803642.031    -9323496.77949  -7246893.90346  22803641.319    22803648.197
 04  7 19  0 41 30.0000000  0  8G19G16G27G 1G13G23G 3G 8
  24174972.036    -6779127.56549  -5270066.41745  24174970.807    24174976.990
  24131852.086    -5412938.97549  -4196163.93045  24131851.716    24131858.220
  21347162.905   -15819970.44449 -12314282.23347  21347162.417    21347167.912
  22598146.942    -8082391.54949  -6287862.87146  22598146.169    22598153.022
  20226097.815   -24133841.24049 -18794185.91848  20226097.754    20226101.599
  21964753.511   -12751345.47749  -9921683.28747  21964752.888    21964755.803
  23207741.989    -8729899.05049  -6649408.95146  23207741.405    23207748.355
  22789186.673    -9399459.79449  -7306085.83646  22789186.015    22789192.867
 04  7 19  0 42  0.0000000  0  9G19G16G10G27G 1G13G23G 3G 8
  24159823.033    -6858735.92649  -5332098.80845  24159821.664    24159827.995
  24150699.566    -5313894.83149  -4118986.74745  24150699.269    24150705.581
  24613343.273    -3285503.31949  -2550395.57045  24613342.097    24613350.716
  21340425.461   -15855375.69749 -12341870.73847  21340424.981    21340430.553
  22613096.996    -8003829.22449  -6226645.53546  22613096.269    22613102.974
  20225821.409   -24135294.06649 -18795317.99048  20225821.355    20225825.199
  21979379.788   -12674483.35449  -9861790.76047  21979379.212    21979382.243
  23202115.634    -8759464.99049  -6672447.33846  23202115.150    23202122.175
  22774762.047    -9475262.03249  -7365152.45346  22774761.371    22774768.081
 04  7 19  0 42 30.0000000  0  9G19G16G10G27G 1G13G23G 3G 8
  24144703.708    -6938189.06749  -5394010.24845  24144702.150    24144708.286
  24169581.917    -5214667.67549  -4041666.96845  24169581.686    24169587.852
  24597056.649    -3371090.02749  -2617086.34845  24597055.792    24597063.838
  21333722.920   -15890597.37449 -12369316.18747  21333722.461    21333728.141
  22628097.504    -7924999.73249  -6165220.02046  22628097.025    22628103.657
  20225626.768   -24136317.04049 -18796115.11848  20225626.700    20225630.469
  21994065.513   -12597310.00849  -9801655.71347  21994064.875    21994067.787
  23196584.431    -8788531.06149  -6695096.21146  23196584.009    23196591.071
  22760369.023    -9550897.94449  -7424089.47846  22760368.265    22760374.967
 04  7 19  0 43  0.0000000  0  9G19G16G10G27G 1G13G23G 3G 8
  24129614.138    -7017484.91149  -5455799.11245  24129612.527    24129618.625
  24188498.711    -5115261.07449  -3964207.35145  24188498.151    24188504.310
  24580835.873    -3456331.85249  -2683508.46545  24580834.972    24580842.831
  21327055.154   -15925636.73049 -12396619.57047  21327054.697    21327060.350
  22643148.679    -7845904.88349  -6103587.73746  22643148.215    22643154.840
  20225513.831   -24136910.39749 -18796577.47348  20225513.768    20225517.589
  22008810.124   -12519827.09349  -9741279.45647  22008809.478    22008812.338
  23191148.700    -8817096.50949  -6717354.98946  23191148.212    23191155.191
  22746007.232    -9626367.89449  -7482897.18146  22746006.577    22746013.331
 04  7 19  0 43 30.0000000  0  9G19G16G10G27G 1G13G23G 3G 8
  24114554.879    -7096620.75049  -5517463.30645  24114553.452    24114559.497
  24207448.948    -5015677.56149  -3886609.90345  24207448.322    24207454.602
  24564680.786    -3541226.07049  -2749659.79945  24564679.687    24564687.993
  21320422.019   -15960494.16149 -12423781.19547  21320421.539    21320427.184
  22658250.375    -7766545.43949  -6041749.26446  22658249.870    22658256.484
  20225482.827   -24137073.05649 -18796704.22748  20225482.790    20225486.653
  22023613.376   -12442035.66449  -9680662.80747  22023612.720    22023615.685
  23185808.388    -8845159.70249  -6739222.37546  23185807.979    23185814.935
  22731677.179    -9701672.24849  -7541575.87546  22731676.588    22731683.332
 04  7 19  0 44  0.0000000  0  9G19G16G10G27G 1G13G23G 3G 8
  24099526.760    -7175593.12449  -5579000.14045  24099525.456    24099531.424
  24226432.287    -4915919.17549  -3808876.16445  24226431.780    24226438.091
  24548592.305    -3625770.16249  -2815538.24545  24548591.095    24548599.882
  21313823.601   -15995169.21049 -12450800.71147  21313823.117    21313828.701
  22673402.270    -7686921.89949  -5979705.01546  22673401.800    22673408.427
  20225534.066   -24136803.98649 -18796494.56148  20225534.004    20225537.896
  22038475.256   -12363936.22949  -9619806.15047  22038474.592    22038477.441
  23180564.245    -8872718.65649  -6760696.85246  23180563.720    23180570.595
  22717378.780    -9776810.46249  -7600125.06046  22717378.137    22717384.999
 04  7 19  0 44 30.0000000  0  9G19G16G10G27G 1G13G23G 3G 8
  24084530.089    -7254400.51749  -5640408.42545  24084528.849    24084534.727
  24245448.371    -4815990.00949  -3731009.36745  24245447.686    24245454.089
  24532570.682    -3709962.99749  -2881143.03045  24532569.575    24532578.703
  21307259.553   -16029663.72349 -12477679.55147  21307259.052    21307264.560
  22688604.107    -7607036.39549  -5917456.63946  22688603.606    22688610.202
  20225667.459   -24136103.37249 -18795948.63748  20225667.322    20225671.186
  22053395.111   -12285531.26949  -9558711.42647  22053394.473    22053397.265
  23175415.904    -8899773.10249  -6781778.21446  23175415.444    23175422.227
  22703111.953    -9851783.26149  -7658545.38846  22703111.214    22703118.102
 04  7 19  0 45  0.0000000  0  9G19G16G10G27G 1G13G23G 3G 8
  24069565.572    -7333038.64549  -5701684.82445  24069564.327    24069570.361
  24264496.502    -4715891.42549  -3653010.52645  24264495.929    24264502.332
  24516617.009    -3793800.68949  -2946471.03645  24516616.079    24516625.177
  21300729.988   -16063976.56549 -12504416.82647  21300729.482    21300734.962
  22703855.716    -7526888.51449  -5855003.78746  22703855.288    22703861.954
  20225883.246   -24134969.30149 -18795064.95148  20225883.162    20225887.029
  22068373.185   -12206820.53349  -9497378.44246  22068372.673    22068375.517
  23170363.949    -8926319.99349  -6802464.05746  23170363.631    23170370.493
  22688876.678    -9926589.35049  -7716835.81946  22688876.018    22688882.796
 04  7 19  0 45 30.0000000  0  9G19G16G10G27G 1G13G23G 3G 8
  24054633.722    -7411504.76649  -5762827.19045  24054632.654    24054638.722
  24283576.334    -4615626.02549  -3574881.73945  24283575.880    24283582.442
  24500731.465    -3877281.15549  -3011520.69245  24500730.337    24500738.799
  21294234.884   -16098108.22549 -12531012.91347  21294234.418    21294239.904
  22719157.167    -7446479.26049  -5792347.26946  22719156.645    22719163.542
  20226181.705   -24133401.05349 -18793842.94048  20226181.566    20226185.433
  22083409.460   -12127804.96549  -9435807.92146  22083408.824    22083411.815
  23165409.161    -8952358.15749  -6822753.51346  23165408.761    23165415.584
  22674673.129   -10001228.67149  -7774996.29946  22674672.531    22674679.366
 04  7 19  0 46  0.0000000  0  9G19G16G10G27G 1G13G23G 3G 8
  24039735.314    -7489796.50149  -5823833.64745  24039734.248    24039740.071
  24302687.471    -4515197.09049  -3496625.45545  24302687.130    24302693.524
  24484914.055    -3960402.43849  -3076290.39745  24484912.928    24484920.779
  21287774.122   -16132059.28349 -12557468.27447  21287773.671    21287779.257
  22734507.771    -7365809.81149  -5729488.00346  22734507.398    22734514.483
  20226562.747   -24131398.33949 -18792282.39148  20226562.652    20226566.537
  22098503.313   -12048486.10349  -9374001.06947  22098502.695    22098505.657
  23160551.433    -8977886.54749  -6842645.72346  23160550.895    23160557.588
  22660501.479   -10075701.34849  -7833026.91146  22660500.852    22660507.641
 04  7 19  0 46 30.0000000  0  9G19G16G10G27G 1G13G23G 3G 8
  24024870.690    -7567910.55149  -5884701.63445  24024869.609    24024875.338
  24321829.105    -4414606.45449  -3418243.25445  24321829.017    24321835.501
  24469165.497    -4043161.52749  -3140777.93445  24469164.300    24469171.747
  21281347.795   -16165829.68549 -12583782.87047  21281347.370    21281353.042
  22749908.127    -7284880.71949  -5666426.43446  22749907.736    22749914.741
  20227026.744   -24128960.04449 -18790382.42548  20227026.651    20227030.531
  22113654.870   -11968864.70449  -9311958.47147  22113654.235    22113657.159
  23155790.787    -9002903.17849  -6862139.19346  23155790.251    23155797.188
  22646361.707   -10150006.84649  -7890927.25746  22646361.030    22646367.744
 04  7 19  0 47  0.0000000  0  9G19G16G10G27G 1G13G23G 3G 8
  24010040.335    -7645843.89949  -5945428.84645  24010039.296    24010044.959
  24341001.422    -4313856.94549  -3339737.20545  24341001.105    24341007.533
  24453486.214    -4125555.96949  -3204981.37245  24453485.195    24453492.494
  21274955.966   -16199419.65049 -12609956.86747  21274955.504    21274961.144
  22765357.851    -7203693.06249  -5603163.40146  22765357.450    22765364.114
  20227573.776   -24126085.25849 -18788142.33348  20227573.652    20227577.590
  22128863.780   -11888941.89449  -9249680.98347  22128863.147    22128866.150
  23151127.714    -9027406.40149  -6881232.56146  23151127.418    23151134.315
  22632253.737   -10224144.96349  -7948697.17046  22632253.068    22632259.716
 04  7 19  0 47 30.0000000  0  9G19G16G10G27G 1G13G23G 3G 8
  23995245.014    -7723593.41149  -6006012.80045  23995243.978    23995249.558
  24360203.556    -4212950.69349  -3261109.03045  24360203.152    24360209.371
  24437876.939    -4207583.24749  -3268898.70445  24437875.781    24437883.119
  21268598.464   -16232829.07049 -12635990.16947  21268597.966    21268603.593
  22780856.644    -7122247.34149  -5539699.28146  22780856.222    22780862.742
  20228204.062   -24122772.81949 -18785561.21748  20228203.996    20228207.926
  22144129.754   -11808718.14949  -9187169.01447  22144129.208    22144132.273
  23146562.972    -9051394.73749  -6899924.75746  23146562.518    23146569.425
  22618177.657   -10298115.18449  -8006336.27546  22618177.021    22618183.647
 04  7 19  0 48  0.0000000  0  9G19G16G10G27G 1G13G23G 3G 8
  23980485.504    -7801155.75049  -6066450.89445  23980484.336    23980490.004
  24379435.104    -4111889.91549  -3182360.41545  24379434.458    24379440.389
  24422337.998    -4289240.50049  -3332527.69245  24422336.938    24422344.596
  21262275.236   -16266058.03949 -12661882.86647  21262274.753    21262280.272
  22796404.060    -7040544.13449  -5476034.50846  22796403.759    22796410.491
  20228917.846   -24119021.83649 -18782638.37248  20228917.762    20228921.652
  22159452.903   -11728194.41549  -9124423.27646  22159452.390    22159455.428
  23142096.476    -9074866.22149  -6918214.19446  23142096.031    23142102.961
  22604133.667   -10371917.08249  -8063844.20646  22604132.945    22604139.669
 04  7 19  0 48 30.0000000  0  9G19G16G10G27G 1G13G23G 3G 8
  23965762.176    -7878528.44449  -6126741.21345  23965760.850    23965766.427
  24398695.237    -4010677.48649  -3103493.70545  24398694.476    24398700.567
  24406870.165    -4370525.64349  -3395866.71045  24406868.986    24406876.756
  21255986.247   -16299106.90249 -12687635.22047  21255985.718    21255991.145
  22812000.590    -6958584.44749  -5412169.86646  22812000.201    22812007.094
  20229715.240   -24114831.63549 -18779373.28648  20229715.150    20229718.980
  22174833.014   -11647371.83449  -9061444.68946  22174832.453    22174835.515
  23137728.521    -9097819.71049  -6936100.01545  23137728.065    23137735.038
  22590121.457   -10445550.86649  -8121221.14646  22590120.795    22590127.722
 04  7 19  0 49  0.0000000  0  9G19G16G10G27G 1G13G23G 3G 8
  23951075.393    -7955707.86549  -6186880.95345  23951074.097    23951079.665
  24417983.873    -3909314.96549  -3024509.95245  24417983.182    24417989.307
  24391473.486    -4451435.73849  -3458913.45545  24391472.465    24391480.226
  21249731.487   -16331975.28649 -12713246.94147  21249730.987    21249736.451
  22827645.771    -6876368.46349  -5348105.47546  22827645.410    22827652.396
  20230596.473   -24110200.76949 -18775764.82548  20230596.399    20230600.227
  22190269.842   -11566250.88049  -8998233.61446  22190269.296    22190272.323
  23133459.662    -9120252.96849  -6953580.44445  23133459.080    23133466.072
  22576141.573   -10519015.49049  -8178466.27746  22576140.942    22576147.749
 04  7 19  0 49 30.0000000  0  9G19G16G10G27G 1G13G23G 3G 8
  23936425.788    -8032691.37749  -6246868.01845  23936424.529    23936430.011
  24437300.305    -3807805.55949  -2945411.78145  24437299.820    24437306.045
  24376148.501    -4531968.54849  -3521666.25345  24376147.195    24376155.193
  21243511.069   -16364663.49149 -12738718.25947  21243510.584    21243516.062
  22843339.659    -6793897.53849  -5283842.49346  22843339.125    22843346.239
  20231561.596   -24105128.79349 -18771812.63948  20231561.551    20231565.356
  22205763.123   -11484833.11349  -8934791.26046  22205762.581    22205765.567
  23129289.679    -9142164.94949  -6970654.70345  23129289.376    23129296.384
  22562193.952   -10592311.20149  -8235579.76946  22562193.259    22562199.889
 04  7 19  0 50  0.0000000  0  9G19G16G10G27G 1G13G23G 3G 8
  23921813.930    -8109475.29049  -6306699.56445  23921812.894    23921818.373
  24456644.528    -3706150.99649  -2866200.53145  24456644.058    24456650.471
  24360895.721    -4612120.96949  -3584122.61045  24360894.674    24360902.124
  21237325.112   -16397171.29249 -12764049.00647  21237324.606    21237330.072
  22859082.006    -6711171.92949  -5219381.05046  22859081.377    22859088.558
  20232610.948   -24099614.33449 -18767515.66448  20232610.905    20232614.727
  22221312.990   -11403118.75449  -8871117.78546  22221312.385    22221315.270
  23125219.589    -9163553.70749  -6987321.24045  23125219.254    23125226.181
  22548278.602   -10665436.76849  -8292560.67346  22548277.882    22548284.446
 04  7 19  0 50 30.0000000  0  9G19G16G10G27G 1G13G23G 3G 8
  23907240.711    -8186056.81949  -6366373.41545  23907239.683    23907245.344
  24476015.891    -3604353.74249  -2786878.05745  24476015.467    24476021.958
  24345715.566    -4691890.56749  -3646280.70145  24345714.823    24345722.008
  21231173.448   -16429498.70449 -12789239.19347  21231172.925    21231178.430
  22874872.539    -6628192.47749  -5154721.81946  22874871.976    22874879.023
  20233744.635   -24093656.76549 -18762873.40648  20233744.590    20233748.403
  22236918.960   -11321108.71049  -8807213.89946  22236918.382    22236921.339
  23121249.105    -9184417.91949  -7003579.06145  23121248.813    23121255.781
  22534395.644   -10738392.07449  -8349408.95146  22534394.903    22534401.518
 04  7 19  0 51  0.0000000  0  9G19G16G10G27G 1G13G23G 3G 8
  23892706.698    -8262433.11049  -6425887.35045  23892705.654    23892711.506
  24495413.956    -3502416.33249  -2707446.39245  24495413.518    24495420.148
  24330608.792    -4771275.11449  -3708138.73545  24330607.881    24330615.376
  21225055.961   -16461646.09749 -12814289.10447  21225055.470    21225060.919
  22890711.223    -6544960.25949  -5089865.62346  22890710.641    22890717.419
  20234962.818   -24087255.44849 -18757885.37348  20234962.747    20234966.496
  22252580.828   -11238804.25849  -8743080.60146  22252580.339    22252583.484
  23117378.955    -9204756.19949  -7019427.06745  23117378.571    23117385.597
  22520544.954   -10811176.90249  -8406124.35946  22520544.282    22520551.081
 04  7 19  0 51 30.0000000  0  9G19G16G10G27G 1G13G23G 3G 8
  23878212.404    -8338601.16649  -6485238.99345  23878211.248    23878217.333
  24514838.402    -3400341.31449  -2627907.48745  24514838.011    24514844.606
  24315576.006    -4850272.19649  -3769694.84445  24315575.287    24315582.985
  21218972.813   -16493613.52449 -12839198.77547  21218972.311    21218977.764
  22906597.664    -6461476.11949  -5024813.11146  22906596.943    22906603.928
  20236265.626   -24080409.38149 -18752550.77948  20236265.515    20236269.309
  22268298.708   -11156206.42349  -8678718.68646  22268298.228    22268301.442
  23113609.301    -9224567.18149  -7034864.16945  23113608.781    23113615.645
  22506727.082   -10883790.92049  -8462706.66846  22506726.378    22506733.114
 04  7 19  0 52  0.0000000  0  9G19G16G10G27G 1G13G23G 3G 8
  23863758.494    -8414558.97749  -6544426.82245  23863756.936    23863763.037
  24534288.388    -3298131.99549  -2548263.95645  24534287.906    24534294.616
  24300617.763    -4928880.18649  -3830947.78745  24300616.872    24300624.582
  21212923.602   -16525402.26349 -12863969.20947  21212923.089    21212928.604
  22922531.369    -6377741.98649  -4959565.78346  22922530.912    22922538.176
  20237652.881   -24073119.09549 -18746870.04548  20237652.824    20237656.578
  22284072.189   -11073317.32049  -8614129.82746  22284071.628    22284074.796
  23109939.724    -9243850.54749  -7049890.15246  23109939.232    23109946.153
  22492941.362   -10956235.51049  -8519156.97346  22492940.741    22492947.248
 04  7 19  0 52 30.0000000  0  9G19G16G10G27G 1G13G23G 3G 8
  23849344.884    -8490302.60949  -6603447.72545  23849343.353    23849349.234
  24553763.468    -3195790.09449  -2468517.10345  24553763.072    24553769.810
  24285734.188    -5007095.97149  -3891895.08545  24285733.166    24285740.825
  21206908.389   -16557011.74349 -12888599.96947  21206907.903    21206913.507
  22938513.220    -6293757.90149  -4894123.68646  22938512.608    22938519.997
  20239125.038   -24065382.96349 -18740841.89148  20239124.925    20239128.731
  22299900.894   -10990137.20849  -8549314.20146  22299900.320    22299903.478
  23106370.819    -9262604.28849  -7064503.43646  23106370.443    23106377.425
  22479188.152   -11028509.14649  -8575474.05946  22479187.442    22479193.952
 04  7 19  0 53  0.0000000  0  9G19G16G10G27G 1G13G23G 3G 8
  23834972.358    -8565828.87549  -6662299.30045  23834971.083    23834976.842
  24573263.473    -3093317.68649  -2388668.53845  24573262.894    24573269.777
  24270925.321    -5084916.81549  -3952534.65545  24270924.299    24270931.956
  21200927.455   -16588441.66249 -12913090.81247  21200926.964    21200932.611
  22954542.698    -6209524.33049  -4828487.20646  22954541.881    22954549.210
  20240682.226   -24057199.92549 -18734465.50748  20240682.117    20240685.906
  22315784.979   -10906666.75249  -8484272.34746  22315784.314    22315787.406
  23102903.286    -9280826.65549  -7078702.67046  23102902.883    23102909.824
  22465467.342   -11100611.46149  -8631657.65146  22465466.761    22465473.329
 04  7 19  0 53 30.0000000  0  9G19G16G10G27G 1G13G23G 3G 8
  23820642.187    -8641134.79849  -6720979.16945  23820640.804    23820646.596
  24592787.640    -2990717.18649  -2308720.16745  24592787.138    24592793.997
  24256192.337    -5162340.29549  -4012864.59245  24256191.178    24256198.596
  21194980.682   -16619691.98849 -12937441.71147  21194980.191    21194985.821
  22970619.098    -6125042.27849  -4762657.12846  22970618.361    22970625.678
  20242324.587   -24048569.10949 -18727740.19948  20242324.510    20242328.312
  22331723.976   -10822907.01949  -8419005.08146  22331723.319    22331726.409
  23099537.274    -9298516.17549  -7092486.68946  23099536.614    23099543.556
  22451779.385   -11172542.11649  -8687707.48346  22451778.797    22451785.318
 04  7 19  0 54  0.0000000  0  9G19G16G10G27G 1G13G23G 3G 8
  23806354.283    -8716217.79249  -6779485.35045  23806352.895    23806358.946
  24612335.874    -2887991.12249  -2228673.98245  24612335.285    24612342.212
  24241535.148    -5239364.08249  -4072883.04245  24241534.146    24241541.239
  21189068.079   -16650763.04149 -12961652.90947  21189067.614    21189073.170
  22986742.585    -6040312.83349  -4696634.26246  22986741.929    22986749.158
  20244052.278   -24039489.86849 -18720665.47348  20244052.214    20244056.021
  22347717.637   -10738859.24449  -8353513.35346  22347717.048    22347720.137
  23096272.494    -9315671.96849  -7105854.82946  23096272.013    23096278.867
  22438124.259   -11244300.76749  -8743623.27446  22438123.590    22438130.001
 04  7 19  0 54 30.0000000  0  9G19G16G10G27G 1G13G23G 3G 8
  23792109.494    -8791073.98049  -6837814.78245  23792108.147    23792114.254
  24631907.454    -2785141.12149  -2148531.18645  24631906.956    24631913.820
  24226954.159    -5315985.43649  -4132587.89744  24226952.941    24226960.654
  21183189.734   -16681654.39349 -12985724.07647  21183189.233    21183194.744
  23002913.545    -5955336.06849  -4630418.67446  23002912.554    23002919.700
  20245865.559   -24029960.91149 -18713240.31348  20245865.499    20245869.353
  22363765.993   -10654523.88349  -8287797.54246  22363765.498    22363768.587
  23093109.873    -9332291.93549  -7118805.42446  23093109.393    23093116.266
  22424501.990   -11315886.35549  -8799404.22646  22424501.281    22424507.585
 04  7 19  0 55  0.0000000  0  9G19G16G10G27G 1G13G23G 3G 8
  23777908.244    -8865701.04949  -6895965.69045  23777907.067    23777913.126
  24651502.174    -2682170.16249  -2068294.11345  24651501.781    24651508.756
  24212450.477    -5392202.12149  -4191977.49444  24212449.150    24212456.484
  21177345.377   -16712366.51849 -13009655.60647  21177344.849    21177350.419
  23019130.903    -5870113.57749  -4564011.61546  23019129.917    23019137.081
  20247764.429   -24019982.12949 -18705464.64448  20247764.404    20247768.304
  22379869.201   -10569902.36149  -8221858.73546  22379868.499    22379871.588
  23090049.219    -9348375.33849  -7131337.92646  23090048.762    23090055.589
  22410912.435   -11387299.47449  -8855050.77446  22410911.749    22410918.016
 04  7 19  0 55 30.0000000  0  9G19G16G10G27G 1G13G23G 3G 8
  23763751.477    -8940095.55249  -6953935.34545  23763750.349    23763756.194
  24671119.462    -2579080.17949  -1987964.37445  24671119.010    24671126.081
  24198024.415    -5468011.39749  -4251049.59045  24198023.056    24198030.381
  21171535.208   -16742898.99149 -13033447.13547  21171534.721    21171540.302
  23035394.558    -5784645.85349  -4497413.43046  23035393.879    23035401.215
  20249749.189   -24009552.30649 -18697337.51348  20249749.110    20249752.998
  22396026.600   -10484995.32149  -8155697.45546  22396025.824    22396028.990
  23087090.923    -9363920.49549  -7143451.02446  23087090.540    23087097.459
  22397355.918   -11458539.07649  -8910562.11747  22397355.274    22397361.514
 04  7 19  0 56  0.0000000  0  9G19G16G10G27G 1G13G23G 3G 8
  23749639.296    -9014254.25449  -7011721.26145  23749638.307    23749643.931
  24690758.804    -2475873.54149  -1907543.66745  24690758.493    24690765.639
  24183676.654    -5543411.10949  -4309802.54445  24183675.260    24183682.433
  21165759.276   -16773252.13749 -13057098.92647  21165758.740    21165764.275
  23051705.032    -5698933.67849  -4430624.78846  23051704.397    23051711.876
  20251819.846   -23998670.93449 -18688858.52348  20251819.767    20251823.689
  22412237.997   -10399804.03649  -8089314.67946  22412237.310    22412240.441
  23084235.414    -9378926.34749  -7155143.88546  23084235.027    23084241.974
  22383832.521   -11529605.20349  -8965938.28747  22383831.905    22383838.148
 04  7 19  0 56 30.0000000  0  9G19G16G10G27G 1G13G23G 3G 8
  23735572.504    -9088175.45249  -7069322.13545  23735571.516    23735577.028
  24710419.859    -2372553.43449  -1827034.57445  24710419.563    24710426.900
  24169406.910    -5618399.56949  -4368235.02745  24169405.648    24169412.794
  21160017.121   -16803427.00849 -13080611.80847  21160016.605    21160022.131
  23068061.816    -5612978.92149  -4363647.14746  23068061.163    23068068.564
  20253976.434   -23987338.37049 -18680027.96248  20253976.314    20253980.231
  22428503.143   -10314330.36749  -8022711.87846  22428502.521    22428505.605
  23081482.602    -9393392.79249  -7166416.42646  23081482.173    23081488.995
  22370342.108   -11600498.21649  -9021179.56447  22370341.485    22370347.798
 04  7 19  0 57  0.0000000  0  9G19G16G10G27G 1G13G23G 3G 8
  23721551.764    -9161855.44649  -7126735.07745  23721550.682    23721556.168
  24730102.276    -2269121.79549  -1746438.54645  24730102.016    24730109.584
  24155215.884    -5692973.92749  -4426344.88645  24155214.903    24155221.860
  21154309.003   -16833422.97749 -13103985.28247  21154308.517    21154314.015
  23084464.500    -5526782.11249  -4296480.86146  23084463.808    23084471.249
  20256219.010   -23975553.37049 -18670844.85148  20256218.941    20256222.859
  22444821.866   -10228574.96449  -7955889.53946  22444821.284    22444824.410
  23078832.743    -9407318.03849  -7177267.24546  23078832.207    23078839.161
  22356884.680   -11671217.39049  -9076285.38447  22356883.992    22356890.434
 04  7 19  0 57 30.0000000  0  9G19G16G10G27G 1G13G23G 3G 8
  23707577.506    -9235290.96249  -7183957.51345  23707576.237    23707581.857
  24749805.757    -2165580.29949  -1665756.94245  24749805.485    24749812.853
  24141103.904    -5767131.44049  -4484129.94645  24141102.993    24141110.335
  21148635.040   -16863239.77149 -13127219.14347  21148634.535    21148640.030
  23100913.376    -5440343.66249  -4229126.30545  23100912.471    23100919.818
  20258548.038   -23963314.57649 -18661308.14048  20258547.949    20258551.795
  22461194.059   -10142538.50449  -7888848.19346  22461193.419    22461196.651
  23076285.949    -9420700.38749  -7187695.04746  23076285.610    23076292.539
  22343460.308   -11741762.26849  -9131255.38647  22343459.645    22343466.124
 04  7 19  0 58  0.0000000  0  8G19G10G27G 1G13G23G 3G 8
  23693650.035    -9308478.94349  -7240987.06546  23693648.948    23693654.802
  24127071.724    -5840869.82049  -4541588.35045  24127070.857    24127078.316
  21142995.139   -16892877.44049 -13150313.42747  21142994.629    21143000.223
  23117407.856    -5353664.54149  -4161584.20745  23117407.161    23117414.338
  20260963.461   -23950621.22049 -18651417.22148  20260963.407    20260967.260
  22477619.380   -10056222.10849  -7821588.71546  22477618.878    22477622.087
  23073843.075    -9433538.73249  -7197698.92846  23073842.591    23073849.444
  22330069.372   -11812132.34549  -9186089.18847  22330068.655    22330075.001
 04  7 19  0 58 30.0000000  0  8G19G10G27G 1G13G23G 3G 8
  23679770.407    -9381417.03049  -7297821.89445  23679769.387    23679775.031
  24113119.575    -5914187.30849  -4598718.80945  24113118.595    24113126.441
  21137389.248   -16922336.81149 -13173268.77347  21137388.750    21137394.305
  23133947.653    -5266746.52549  -4093855.95646  23133947.311    23133954.402
  20263465.432   -23937473.64649 -18641172.36448  20263465.335    20263469.160
  22494097.962    -9969627.36049  -7754112.34346  22494097.380    22494100.576
  23071503.576    -9445832.82349  -7207278.73146  23071503.071    23071510.019
  22316711.669   -11882327.80349  -9240786.91247  22316710.943    22316717.316
 04  7 19  0 59  0.0000000  0  8G19G10G27G 1G13G23G 3G 8
  23665938.969    -9454101.77349  -7354459.27545  23665937.942    23665943.189
  24099248.653    -5987081.19349  -4655519.17045  24099247.547    24099254.887
  21131817.442   -16951617.18749 -13196084.64947  21131816.928    21131822.445
  23150533.280    -5179590.02849  -4025941.89746  23150532.839    23150539.862
  20266053.942   -23923870.72549 -18630572.69548  20266053.893    20266057.736
  22510629.384    -9882755.13849  -7686419.76546  22510628.646    22510631.931
  23069268.125    -9457580.71649  -7216432.92446  23069267.559    23069274.361
  22303387.136   -11952348.10649  -9295348.15847  22303386.457    22303392.893
 04  7 19  0 59 30.0000000  0  8G19G10G27G 1G13G23G 3G 8
  23652156.222    -9526530.30149  -7410897.00445  23652155.094    23652160.262
  24085458.448    -6059549.24549  -4711987.71445  24085457.435    24085464.614
  21126279.614   -16980718.76649 -13218761.20247  21126279.081    21126284.520
  23167164.039    -5092195.82349  -3957842.59946  23167163.506    23167170.517
  20268729.277   -23909811.83449 -18619617.72248  20268729.181    20268733.042
  22527213.190    -9795606.20549  -7618511.56146  22527212.595    22527215.893
  23067136.618    -9468781.59449  -7225160.85846  23067136.104    23067142.856
  22290096.087   -12022192.68449  -9349772.47647  22290095.418    22290101.901
 04  7 19  1  0  0.0000000  0  8G19G10G27G 1G13G23G 3G 8
  23638422.771    -9598699.44149  -7467132.65545  23638421.601    23638426.859
  24071749.635    -6131588.66949  -4768122.24845  24071748.545    24071756.094
  21120775.773   -17009641.40149 -13241298.31047  21120775.252    21120780.712
  23183839.426    -5004564.72649  -3889558.68745  23183839.072    23183846.283
  20271491.568   -23895295.96249 -18608306.65948  20271491.498    20271495.338
  22543849.616    -9708181.76149  -7550388.65146  22543848.968    22543852.271
  23065109.547    -9479433.96249  -7233461.39546  23065109.017    23065115.855
  22276838.683   -12091861.11449  -9404059.53147  22276838.026    22276844.326
 04  7 19  1  0 30.0000000  0  8G19G10G27G 1G13G23G 3G 8
  23624739.080    -9670606.24849  -7523163.89845  23624738.064    23624743.393
  24058123.028    -6203197.40849  -4823921.22645  24058122.018    24058129.440
  21115305.890   -17038385.23549 -13263696.09447  21115305.428    21115310.993
  23200559.736    -4916697.90649  -3821091.10345  23200559.547    23200566.911
  20274340.785   -23880323.03749 -18596639.44848  20274340.716    20274344.576
  22560538.059    -9620483.20049  -7482052.15846  22560537.365    22560540.780
  23063187.051    -9489537.30749  -7241334.11446  23063186.458    23063193.140
  22263614.879   -12161353.38249  -9458209.29547  22263614.111    22263620.319
 04  7 19  1  1  0.0000000  0  8G19G10G27G 1G13G23G 3G 8
  23611106.266    -9742248.16949  -7578988.71046  23611105.202    23611110.443
  24044578.548    -6274373.39849  -4879382.98445  24044577.595    24044585.142
  21109870.092   -17066950.59749 -13285954.81347  21109869.611    21109875.242
  23217325.257    -4828596.59249  -3752440.80645  23217324.730    23217332.163
  20277277.145   -23864892.37949 -18584615.56648  20277277.093    20277280.969
  22577278.543    -9532511.72149  -7413503.01846  22577277.885    22577281.122
  23061368.976    -9499090.79249  -7248778.38946  23061368.477    23061375.106
  22250424.394   -12230669.04649  -9512221.48647  22250423.663    22250429.787
 04  7 19  1  1 30.0000000  0  8G19G10G27G 1G13G23G 3G 8
  23597524.564    -9813622.13149  -7634604.72146  23597523.324    23597528.573
  24031117.151    -6345114.22749  -4934505.69045  24031116.174    24031123.779
  21104468.316   -17095337.33749 -13308074.34247  21104467.801    21104473.490
  23234134.945    -4740261.68649  -3683608.49445  23234134.423    23234141.842
  20280300.750   -23849003.38849 -18572234.53048  20280300.690    20280304.573
  22594070.906    -9444268.47649  -7344742.11146  22594070.211    22594073.180
  23059655.828    -9508093.40249  -7255793.39346  23059655.333    23059662.005
  22237267.537   -12299808.07249  -9566096.02047  22237266.841    22237273.125
 04  7 19  1  2  0.0000000  0  8G19G10G27G 1G13G23G 3G 8
  23583994.031    -9884724.93049  -7690009.44346  23583992.911    23583998.025
  24017738.816    -6415417.86849  -4989287.70045  24017737.836    24017745.368
  21099100.402   -17123545.63149 -13330054.82647  21099099.907    21099105.576
  23250988.849    -4651694.35149  -3614595.04945  23250988.326    23250995.791
  20283411.589   -23832655.77249 -18559496.13648  20283411.576    20283415.424
  22610914.576    -9355754.54449  -7275770.29546  22610913.910    22610916.846
  23058047.613    -9516544.23149  -7262378.43346  23058047.246    23058053.844
  22224144.473   -12368770.36649  -9619832.83247  22224143.756    22224150.013
 04  7 19  1  2 30.0000000  0  8G19G10G27G 1G13G23G 3G 8
  23570515.698    -9955553.47249  -7745200.47745  23570514.503    23570519.677
  24004444.039    -6485281.36149  -5043726.73145  24004443.021    24004450.784
  21093766.649   -17151574.99449 -13351895.88247  21093766.169    21093771.697
  23267886.956    -4562894.87349  -3545400.72445  23267886.347    23267893.823
  20286609.969   -23815848.24949 -18546399.36948  20286609.962    20286613.798
  22627809.566    -9266970.46449  -7206587.96846  22627808.984    22627811.944
  23056544.703    -9524441.74949  -7268532.33746  23056544.337    23056551.037
  22211055.314   -12437554.98449  -9673431.19647  22211054.547    22211060.681
 04  7 19  1  3  0.0000000  0  8G19G10G27G 1G13G23G 3G 8
  23557089.686   -10026104.68349  -7800175.41045  23557088.857    23557094.135
  23991233.603    -6554702.38949  -5097820.98545  23991232.725    23991240.224
  21088467.022   -17179425.42749 -13373597.51447  21088466.448    21088471.847
  23284829.088    -4473864.33849  -3476026.36345  23284828.378    23284835.718
  20289895.961   -23798580.26549 -18532943.79748  20289895.947    20289899.771
  22644755.843    -9177917.68049  -7137196.22046  22644755.192    22644758.323
  23055147.181    -9531785.13149  -7274254.43946  23055146.924    23055153.742
  22197999.821   -12506161.31749  -9726890.64446  22197999.105    22198005.189
 04  7 19  1  3 30.0000000  0  8G19G10G27G 1G13G23G 3G 8
  23543717.660   -10096376.25949  -7854932.40946  23543716.614    23543721.875
  23978108.068    -6623679.42149  -5151569.25445  23978106.962    23978113.971
  21083201.075   -17207097.45849 -13395160.13047  21083200.614    21083206.006
  23301814.875    -4384604.47749  -3406473.32145  23301814.019    23301821.276
  20293269.581   -23780852.13349 -18519129.67448  20293269.522    20293273.331
  22661752.872    -9088597.90249  -7067596.42846  22661752.136    22661755.504
  23053855.448    -9538573.94149  -7279544.39545  23053855.058    23053861.804
  22184978.138   -12574589.85849  -9780211.54546  22184977.440    22184983.538
 04  7 19  1  4  0.0000000  0  8G19G10G27G 1G13G23G 3G 8
  23530399.438   -10166365.29749  -7909469.26446  23530398.214    23530403.509
  23965066.918    -6692210.30149  -5204969.88545  23965065.861    23965072.940
  21077969.195   -17234591.24649 -13416583.85547  21077968.696    21077974.164
  23318843.819    -4295116.24349  -3336742.31945  23318843.051    23318850.281
  20296730.757   -23762663.37649 -18504956.61748  20296730.716    20296734.538
  22678800.410    -8999012.25449  -6997789.49046  22678799.733    22678803.262
  23052669.116    -9544807.66849  -7284401.83545  23052668.760    23052675.471
  22171990.559   -12642840.11449  -9833393.52146  22171989.910    22171995.975
 04  7 19  1  4 30.0000000  0  8G19G10G27G 1G13G23G 3G 8
  23517135.166   -10236068.09449  -7963783.08846  23517134.227    23517139.598
  23952111.182    -6760292.14349  -5258020.62645  23952110.309    23952117.391
  21072771.322   -17261905.91849 -13437868.01847  21072770.834    21072776.369
  23335916.070    -4205399.79549  -3266833.47645  23335915.432    23335922.840
  20300279.900   -23744012.66749 -18490423.60448  20300279.849    20300283.643
  22695898.496    -8909161.27949  -6927775.80346  22695897.887    22695901.352
  23051588.851    -9550484.81749  -7288825.57345  23051588.437    23051595.178
  22159037.278   -12710910.99449  -9886435.73347  22159036.558    22159042.497
 04  7 19  1  5  0.0000000  0  8G19G10G27G 1G13G23G 3G 8
  23503926.092   -10305482.38249  -8017872.09646  23503924.992    23503930.484
  23939241.356    -6827923.21549  -5310720.11445  23939240.449    23939247.400
  21067607.447   -17289042.31949 -13459013.25747  21067606.959    21067612.468
  23353031.706    -4115456.83049  -3196748.11645  23353030.923    23353038.515
  20303916.883   -23724900.12049 -18475530.70848  20303916.841    20303920.625
  22713046.979    -8819046.75849  -6857556.77246  22713046.285    22713049.528
  23050614.639    -9555604.81749  -7292815.16745  23050614.092    23050620.812
  22146117.779   -12778803.30349  -9939338.79146  22146117.022    22146122.942
 04  7 19  1  5 30.0000000  0  8G19G10G27G 1G13G23G 3G 8
  23490772.176   -10374605.21949  -8071734.01945  23490771.058    23490776.790
  23926457.944    -6895101.25249  -5363066.60245  23926457.028    23926463.806
  21062477.513   -17316000.23449 -13480019.41747  21062477.011    21062482.489
  23370190.067    -4025288.65549  -3126487.24445  23370189.465    23370197.112
  20307641.842   -23705325.25149 -18460277.56948  20307641.822    20307645.620
  22730245.118    -8728669.76649  -6787133.21746  22730244.510    22730247.734
  23049746.378    -9560166.97349  -7296370.07845  23049745.973    23049752.655
  22133232.329   -12846516.08749  -9992101.97746  22133231.553    22133237.507
 04  7 19  1  6  0.0000000  0  8G19G10G27G 1G13G23G 3G 8
  23477674.371   -10443433.09349  -8125366.07845  23477673.505    23477679.103
  23913761.318    -6961823.31949  -5415057.78745  23913760.179    23913767.000
  21057381.639   -17342778.91349 -13500885.91147  21057381.168    21057386.722
  23387391.277    -3934895.34749  -3056050.98445  23387390.856    23387398.407
  20311454.990   -23685286.90449 -18444663.27648  20311454.972    20311458.808
  22747492.945    -8638030.82149  -6716505.54046  22747492.439    22747495.812
  23048984.507    -9564170.09549  -7299489.39045  23048984.151    23048990.804
  22120381.126   -12914048.64549 -10044724.70947  22120380.459    22120386.450
 04  7 19  1  6 30.0000000  0  8G19G10G27G 1G13G23G 3G 8
  23464633.719   -10511963.80249  -8178766.52846  23464632.612    23464638.095
  23901151.280    -7028088.22649  -5466692.75245  23901150.428    23901157.421
  21052319.757   -17369379.35049 -13521613.52447  21052319.273    21052324.857
  23404635.362    -3844278.82149  -2985440.80345  23404634.779    23404642.268
  20315356.256   -23664785.51249 -18428688.17548  20315356.222    20315360.080
  22764790.379    -8547132.21349  -6645675.49546  22764789.834    22764793.341
  23048329.097    -9567614.11649  -7302173.01645  23048328.804    23048335.350
  22107564.395   -12981401.55649 -10097207.46047  22107563.712    22107569.619
 04  7 19  1  7  0.0000000  0  8G19G10G27G 1G13G23G 3G 8
  23451649.879   -10580194.55049  -8231933.25946  23451648.711    23451654.188
  23888628.719    -7093894.18949  -5517970.06445  23888627.738    23888634.955
  21047291.759   -17395801.79649 -13542202.44247  21047291.264    21047296.874
  23421921.585    -3753440.50649  -2914657.79145  23421920.822    23421928.326
  20319345.674   -23643820.94749 -18412352.15748  20319345.620    20319349.481
  22782137.025    -8455975.16349  -6574644.07046  22782136.525    22782140.058
  23047780.456    -9570498.55149  -7304420.62345  23047779.914    23047786.486
  22094781.768   -13048574.49749 -10149549.96947  22094781.051    22094787.107
 04  7 19  1  7 30.0000000  0  8G19G10G27G 1G13G23G 3G 8
  23438723.612   -10648121.89449  -8284863.56946  23438722.570    23438728.032
  23876194.169    -7159238.06849  -5568887.31245  23876193.086    23876199.979
  21042297.788   -17422045.09449 -13562651.76447  21042297.350    21042302.921
  23439249.626    -3662380.60549  -2843702.09245  23439249.035    23439256.639
  20323423.550   -23622391.72149 -18395654.06348  20323423.477    20323427.328
  22799532.780    -8364560.13449  -6503411.63946  22799532.252    22799535.924
  23047337.996    -9572822.18149  -7306231.25445  23047337.650    23047344.259
  22082033.377   -13115566.69049 -10201751.66147  22082032.697    22082038.921
 04  7 19  1  8  0.0000000  0  8G19G10G27G 1G13G23G 3G 8
  23425855.729   -10715742.69749  -8337555.06046  23425854.639    23425860.209
  23863848.047    -7224117.62049  -5619442.77445  23863847.132    23863853.561
  21037338.000   -17448109.33749 -13582961.55547  21037337.554    21037343.024
  23456619.919    -3571100.07049  -2772574.48445  23456619.290    23456626.820
  20327589.859   -23600497.65149 -18378593.75948  20327589.792    20327593.639
  22816977.273    -8272888.34349  -6431979.15246  22816976.876    22816980.601
  23047002.867    -9574583.78249  -7307603.90445  23047002.392    23047009.079
  22069319.640   -13182377.36849 -10253811.89647  22069318.989    22069325.251
 04  7 19  1  8 30.0000000  0  8G19G10G27G 1G13G23G 3G 8
  23413046.481   -10783054.92749  -8390006.12046  23413045.406    23413051.206
  23851590.653    -7288531.72149  -5669635.53445  23851589.598    23851595.992
  21032412.059   -17473995.43249 -13603132.53447  21032411.565    21032416.993
  23474031.860    -3479600.77649  -2701276.41845  23474031.076    23474038.587
  20331844.514   -23578139.22449 -18361171.61548  20331844.457    20331848.290
  22834470.638    -8180961.87349  -6360348.19846  22834470.045    22834473.554
  23046774.710    -9575783.88349  -7308539.03145  23046774.121    23046780.839
  22056640.518   -13249007.27549 -10305731.26247  22056639.816    22056645.965
 04  7 19  1  9  0.0000000  0  8G19G10G27G 1G13G23G 3G 8
  23400296.586   -10850055.57349  -8442214.37746  23400295.583    23400301.389
  23839421.964    -7352478.06449  -5719463.83145  23839420.963    23839427.506
  21027519.933   -17499703.14149 -13623164.50547  21027519.471    21027524.977
  23491484.838    -3387883.94349  -2629808.85445  23491484.164    23491491.902
  20336187.759   -23555315.75249 -18343387.09848  20336187.660    20336191.463
  22852012.083    -8088781.78749  -6288519.63146  22852011.352    22852014.841
  23046653.237    -9576421.58449  -7309035.96545  23046652.665    23046659.391
  22043995.909   -13315455.54749 -10357509.10047  22043995.150    22044001.325
 04  7 19  1  9 30.0000000  0  8G19G10G27G 1G13G23G 3G 8
  23387606.790   -10916741.33349  -8494177.22746  23387605.737    23387611.557
  23827342.721    -7415954.01149  -5768925.60045  23827341.506    23827348.617
  21022661.952   -17525231.76449 -13643056.92947  21022661.494    21022667.063
  23508979.360    -3295949.91549  -2558172.01845  23508978.693    23508986.482
  20340619.601   -23532026.31749 -18325239.49548  20340619.532    20340623.332
  22869601.271    -7996348.56749  -6216493.80846  22869600.735    22869604.338
  23046638.984    -9576495.96649  -7309093.90245  23046638.534    23046645.175
  22031385.831   -13381721.32749 -10409144.74747  22031385.070    22031391.426
 04  7 19  1 10  0.0000000  0  8G19G10G27G 1G13G23G 3G 8
  23374977.480   -10983109.08549  -8545892.28046  23374976.390    23374982.110
  23815353.627    -7478957.22149  -5818019.00645  23815352.434    23815359.584
  21017838.186   -17550581.04149 -13662809.60748  21017837.724    21017843.267
  23526515.170    -3203799.51049  -2486366.57545  23526514.433    23526522.236
  20345140.245   -23508270.35649 -18306728.36248  20345140.123    20345143.949
  22887238.654    -7903663.54049  -6144271.77746  22887238.155    22887241.780
  23046731.971    -9576006.00549  -7308712.12745  23046731.630    23046738.421
  22018810.519   -13447804.36449 -10460638.00547  22018809.805    22018816.155
 04  7 19  1 10 30.0000000  0  8G19G10G27G 1G13G23G 3G 8
  23362408.936   -11049156.90549  -8597358.05546  23362407.911    23362413.504
  23803454.758    -7541486.51549  -5866743.14045  23803453.631    23803460.466
  21013048.360   -17575752.14249 -13682423.44848  21013047.880    21013053.359
  23544091.527    -3111435.11849  -2414394.40645  23544090.805    23544098.650
  20349749.493   -23484048.62949 -18287854.29348  20349749.392    20349753.183
  22904923.597    -7810728.90549  -6071855.24346  22904923.102    22904926.696
  23046932.440    -9574952.41349  -7307891.14945  23046931.971    23046938.918
  22006270.054   -13513705.09849 -10511989.18747  22006269.317    22006275.610
 04  7 19  1 11  0.0000000  0  8G19G10G27G 1G13G23G 3G 8
  23349901.909   -11114881.41149  -8648571.90046  23349900.940    23349906.565
  23791646.383    -7603539.60549  -5915096.18445  23791645.237    23791652.103
  21008292.518   -17600744.27549 -13701897.82847  21008292.012    21008297.501
  23561708.324    -3018857.01849  -2342255.71145  23561707.779    23561715.713
  20354447.586   -23459360.17249 -18268616.53748  20354447.429    20354451.276
  22922655.986    -7717545.18449  -5999244.60246  22922655.366    22922659.065
  23047240.547    -9573333.85949  -7306629.93745  23047240.028    23047247.017
  21993764.364   -13579423.03849 -10563197.93647  21993763.624    21993769.854
 04  7 19  1 11 30.0000000  0  8G19G10G27G 1G13G23G 3G 8
  23337457.072   -11180279.85449  -8699531.67846  23337456.075    23337461.457
  23779929.209    -7665114.29349  -5963076.44445  23779927.939    23779934.714
  21003570.628   -17625557.53449 -13721232.82547  21003570.171    21003575.687
  23579365.860    -2926066.27449  -2269951.33645  23579365.315    23579373.303
  20359234.380   -23434205.10949 -18249015.20248  20359234.275    20359238.144
  22940435.509    -7624113.94349  -5926441.09346  22940434.747    22940438.568
  23047656.039    -9571149.72749  -7304928.01745  23047655.590    23047662.574
  21981293.443   -13644957.50349 -10614263.71747  21981292.728    21981299.063
 04  7 19  1 12  0.0000000  0  8G19G10G27G 1G13G23G 3G 8
  23325074.912   -11245349.49549  -8750235.23146  23325073.827    23325078.909
  23768303.307    -7726209.01549  -6010682.71045  23768302.057    23768308.752
  20998882.908   -17650191.93149 -13740428.44747  20998882.426    20998887.890
  23597063.556    -2833064.61449  -2197482.61545  23597063.113    23597071.001
  20364110.108   -23408583.09749 -18229050.00648  20364109.970    20364113.822
  22958261.721    -7530436.78549  -5853445.96646  22958260.997    22958264.855
  23048179.333    -9568400.27349  -7302785.57445  23048178.907    23048185.796
  21968857.470   -13710308.82349 -10665186.80847  21968856.807    21968863.081
 04  7 19  1 12 30.0000000  0  8G19G10G27G 1G13G23G 3G 8
  23312755.577   -11310087.92649  -8800680.70246  23312754.456    23312759.467
  23756768.882    -7786821.84049  -6057913.41745  23756767.802    23756774.209
  20994229.223   -17674647.80349 -13759484.96648  20994228.698    20994234.091
  23614801.351    -2739853.35449  -2124850.53845  23614800.745    23614808.595
  20369074.656   -23382493.87849 -18208720.75048  20369074.533    20369078.434
  22976134.598    -7436515.08649  -5780260.30446  22976133.813    22976137.641
  23048810.279    -9565085.12849  -7300202.33345  23048809.741    23048816.712
  21956456.617   -13775476.35549 -10715966.67547  21956455.902    21956462.094
 04  7 19  1 13  0.0000000  0  8G19G10G27G 1G13G23G 3G 8
  23300499.789   -11374491.88649  -8850865.55146  23300498.770    23300503.698
  23745326.808    -7846950.28549  -6104766.71445  23745325.823    23745331.991
  20989609.534   -17698924.48049 -13778401.85048  20989609.006    20989614.377
  23632578.981    -2646433.09549  -2052055.62545  23632577.957    23632586.045
  20374128.211   -23355937.10149 -18188027.16948  20374128.145    20374132.048
  22994053.786    -7342349.84349  -5706884.87146  22994052.968    22994056.771
  23049548.787    -9561203.47649  -7297177.66545  23049548.439    23049555.400
  21944090.758   -13840459.38049 -10766602.75747  21944090.013    21944096.157
 04  7 19  1 13 30.0000000  0  8G19G10G27G 1G13G23G 3G 8
  23288308.272   -11438558.41549  -8900787.45746  23288307.181    23288312.136
  23733977.264    -7906592.47949  -6151241.12345  23733976.060    23733982.200
  20985023.916   -17723021.98649 -13797179.11848  20985023.381    20985028.780
  23650395.806    -2552804.97649  -1979098.72745  23650394.592    23650402.914
  20379270.851   -23328912.26649 -18166968.86748  20379270.764    20379274.676
  23012019.141    -7247942.07949  -5633320.46646  23012018.281    23012022.042
  23050395.510    -9556754.96349  -7293711.27145  23050394.954    23050401.888
  21931759.948   -13905258.16549 -10817095.29247  21931759.189    21931765.297
 04  7 19  1 14  0.0000000  0  8G19G10G27G 1G13G23G 3G 8
  23276181.490   -11502284.08749  -8950443.77946  23276180.356    23276185.407
  23722720.367    -7965745.68749  -6197334.51945  23722719.234    23722725.981
  20980472.478   -17746939.66049 -13815816.25848  20980471.962    20980477.358
  23668251.758    -2458969.58749  -1905980.33945  23668251.070    23668259.258
  20384502.601   -23301418.80649 -18145545.40148  20384502.603    20384506.493
  23030030.192    -7153292.76449  -5559567.82846  23030029.493    23030033.269
  23051349.976    -9551738.42049  -7289802.28945  23051349.533    23051356.498
  21919464.399   -13969871.08649 -10867443.00047  21919463.701    21919469.803
 04  7 19  1 14 30.0000000  0  9G19G10G27G 1G13G23G28G 3G 8
  23264120.152   -11565666.84049  -8999832.89546  23264119.005    23264123.996
  23711557.385    -8024408.68449  -6243045.93544  23711556.122    23711563.460
  20975955.243   -17770677.89349 -13834313.56848  20975954.699    20975960.102
  23686147.344    -2364928.67849  -1832701.82345  23686146.781    23686154.700
  20389823.628   -23273456.83149 -18123756.85948  20389823.589    20389827.479
  23048087.123    -7058403.57049  -5485628.24446  23048086.332    23048090.207
                   -981933.75649   -748202.02543
  23052412.749    -9546154.12849  -7285450.88045  23052412.237    23052419.102
  21907204.283   -14034298.42549 -10917646.09247  21907203.619    21907209.681
 04  7 19  1 15  0.0000000  0  9G19G10G27G 1G13G23G28G 3G 8
  23252124.415   -11628704.65749  -9048953.21746  23252123.310    23252128.304
  23700487.773    -8082580.40349  -6288374.51744  23700486.447    23700494.218
  20971471.933   -17794237.52149 -13852671.70348  20971471.412    20971476.812
  23704081.723    -2270684.18949  -1759264.65245  23704080.956    23704088.881
  20395233.596   -23245026.93249 -18101603.69748  20395233.594    20395237.485
  23066189.138    -6963276.73549  -5411503.51846  23066188.389    23066192.375
                  -1084458.44049   -828091.29543
  23053583.366    -9540002.30349  -7280657.25045  23053582.876    23053589.885
  21894979.439   -14098541.01049 -10967705.23047  21894978.721    21894984.730
 04  7 19  1 15 30.0000000  0  9G19G10G27G 1G13G23G28G 3G 8
  23240195.018   -11691394.01449  -9097802.01146  23240193.938    23240198.850
  23689511.833    -8140258.17249  -6333318.19544  23689510.754    23689518.326
  20967022.874   -17817617.44649 -13870889.81448  20967022.333    20967027.775
  23722054.443    -2176236.40449  -1685669.06145  23722053.734    23722061.773
  20400732.932   -23216128.15749 -18079085.18448  20400732.886    20400736.758
  23084336.351    -6867912.82749  -5337194.04646  23084335.627    23084339.583
                  -1186847.28849   -907874.66545                  24247352.392
  23054862.322    -9533282.19349  -7275420.78445  23054861.781    23054868.597
  21882789.856   -14162597.53349 -11017619.38547  21882789.140    21882795.097
 04  7 19  1 16  0.0000000  0  9G19G10G27G 1G13G23G28G 3G 8
  23228332.272   -11753733.41049  -9146378.12246  23228331.061    23228336.039
  23678630.380    -8197441.47149  -6377876.53544  23678629.234    23678635.947
  20962607.676   -17840819.21849 -13888969.11648  20962607.149    20962612.616
  23740065.288    -2081588.05449  -1611917.19845  23740064.805    23740072.949
  20406321.132   -23186762.01649 -18056202.48948  20406321.078    20406324.976
  23102528.022    -6772314.52049  -5262701.93846  23102527.433    23102531.283
  24227887.358    -1289099.91949   -987551.88045  24227887.463    24227894.557
  23056249.056    -9525995.07949  -7269742.52945  23056248.481    23056255.229
  21870635.470   -14226469.02549 -11067389.34647  21870634.745    21870640.608
 04  7 19  1 16 30.0000000  0  9G19G10G27G 1G13G23G28G 3G 8
  23216536.359   -11815720.39149  -9194679.62246  23216535.257    23216540.266
  23667843.147    -8254128.54048  -6422048.15744  23667842.513
  20958226.461   -17863842.66749 -13906909.45748  20958225.962    20958231.428
  23758114.231    -1986740.61249  -1538010.18745  23758113.860    23758122.067
  20411998.278   -23156928.40049 -18032955.52148  20411998.218    20412002.150
  23120764.271    -6676483.42949  -5188028.44346  23120763.528    23120767.380
  24208455.424    -1391214.84649  -1067121.82145  24208454.485    24208462.215
  23057743.595    -9518140.75549  -7263622.27045  23057743.116    23057749.958
  21858516.398   -14290155.23249 -11117014.93947  21858515.674    21858521.459
 04  7 19  1 17  0.0000000  0  9G19G10G27G 1G13G23G28G 3G 8
  23204808.650   -11877349.92449  -9242702.57346  23204807.466    23204812.419
  23657150.472    -8310315.26649  -6465829.90944  23657149.738
  20953879.606   -17886685.55649 -13924709.10248  20953879.081    20953884.524
  23776201.556    -1891692.90549  -1463947.13745  23776201.048    23776209.177
  20417764.973   -23126624.70149 -18009342.26048  20417764.836    20417768.770
  23139044.713    -6580418.54649  -5113172.75446  23139044.153    23139047.925
  24189050.489    -1493187.86449  -1146581.13945  24189050.649    24189057.119
  23059346.501    -9509716.74849  -7257058.10545  23059346.167    23059352.896
  21846433.125   -14353653.59849 -11166494.15647  21846432.370    21846438.144
 04  7 19  1 17 30.0000000  0  9G19G10G27G 1G13G23G28G 3G 8
  23193149.369   -11938619.23849  -9290444.85146  23193148.328    23193153.241
  23646553.911    -8365999.84949  -6509220.57444  23646553.592    23646559.895
  20949567.126   -17909348.03649 -13942368.16548  20949566.607    20949572.009
  23794326.364    -1796446.37249  -1389729.18245  23794325.892    23794334.025
  20423620.855   -23095851.32249 -17985363.01148  20423620.811    20423624.752
  23157369.359    -6484121.48349  -5038136.14046  23157368.887    23157372.777
  24169673.002    -1595017.54749  -1225928.79545  24169672.655    24169679.619
  23061058.167    -9500722.93249  -7250049.92145  23061057.663    23061064.318
  21834385.445   -14416963.97049 -11215826.89247  21834384.690    21834390.554
 04  7 19  1 18  0.0000000  0  9G19G10G27G 1G13G23G28G 3G 8
  23181559.215   -11999526.08449  -9337904.65546  23181558.181    23181563.043
  23636053.501    -8421180.82749  -6552218.70444  23636052.562    23636059.103
  20945288.982   -17931830.08049 -13959886.63448  20945288.409    20945293.826
  23812488.712    -1701002.41349  -1315357.35745  23812488.198    23812496.282
  20429566.332   -23064608.02149 -17961017.58348  20429566.226    20429570.192
  23175738.183    -6387593.85249  -4962919.87246  23175737.560    23175741.430
  24150322.805    -1696702.33649  -1305163.57845  24150322.341    24150329.662
  23062877.926    -9491159.40249  -7242597.82845  23062877.452    23062884.174
  21822373.638   -14480085.79349 -11265012.71347  21822372.906    21822378.901
 04  7 19  1 18 30.0000000  0  9G19G10G27G 1G13G23G28G 3G 8
  23170038.738   -12060067.18549  -9385079.49146  23170037.497    23170042.320
  23625649.256    -8475855.87049  -6594822.62244  23625648.384    23625655.159
  20941045.189   -17954131.16349 -13977264.09848  20941044.637    20941050.099
  23830688.324    -1605361.77249  -1240832.29545  23830688.038    23830696.092
  20435601.172   -23032894.39649 -17936305.67448  20435601.098    20435605.080
  23194150.616    -6290836.49149  -4887524.59546  23194149.984    23194153.799
  24131000.436    -1798240.08349  -1384283.78045  24131000.156    24131007.672
  23064806.466    -9481025.53849  -7234701.30645  23064805.897    23064812.605
  21810397.834   -14543018.79449 -11314051.38447  21810397.126    21810403.088
 04  7 19  1 19  0.0000000  0  9G19G10G27G 1G13G23G28G 3G 8
  23158587.919   -12120241.09449  -9431968.19846  23158586.704    23158591.570
  23615341.301    -8530024.29149  -6637031.73345  23615340.630    23615347.333
  20936835.653   -17976252.32349 -13994501.35948  20936835.111    20936840.549
  23848925.641    -1509526.58449  -1166155.62445  23848925.112    23848933.033
  20441725.382   -23000711.35849 -17911227.99448  20441725.338    20441729.324
  23212606.358    -6193851.85949  -4811952.23246  23212605.618    23212609.333
  24111706.551    -1899630.32549  -1463289.03845  24111706.193    24111713.779
  23066843.264    -9470322.45949  -7226361.22445  23066842.687    23066849.278
  21798457.913   -14605763.57749 -11362943.39147  21798457.212    21798463.153
 04  7 19  1 19 30.0000000  0  9G19G10G27G 1G13G23G28G 3G 8
  23147207.530   -12180044.39549  -9478568.13946  23147206.342    23147211.305
  23605130.182    -8583683.81549  -6678844.29545  23605129.439    23605136.459
  20932660.495   -17998192.86949 -14011597.88548  20932659.951    20932665.400
  23867199.463    -1413497.79949  -1091328.08045  23867198.903    23867206.877
  20447939.093   -22968058.39149 -17885784.13048  20447939.046    20447943.046
  23231104.966    -6096640.80849  -4736203.44346  23231104.212    23231107.976
  24092441.164    -2000870.56349  -1542177.37945  24092440.740    24092448.307
  23068988.363    -9459049.43349  -7217577.05045  23068987.922    23068994.472
  21786554.011   -14668319.23049 -11411688.03947  21786553.343    21786559.246
 04  7 19  1 20  0.0000000  0  9G19G10G27G 1G13G23G28G 3G 8
  23135898.226   -12239474.70549  -9524877.42846  23135897.072    23135902.085
  23595016.396    -8636832.94849  -6720259.18345  23595015.630    23595022.606
  20928519.642   -18019952.77549 -14028553.64548  20928519.138    20928524.649
  23885509.429    -1317276.97649  -1016350.87345  23885508.977    23885517.232
  20454242.087   -22934935.99649 -17859974.48148  20454242.003    20454246.022
  23249646.249    -5999205.01749  -4660279.51146  23249645.496    23249649.435
  24073204.532    -2101959.26649  -1620947.64945  24073204.098    24073211.659
  23071242.019    -9447206.66449  -7208348.92345  23071241.502    23071248.099
  21774686.119   -14730685.76449 -11460285.32147  21774685.399    21774691.270
 04  7 19  1 20 30.0000000  0  9G19G10G27G 1G13G23G28G 3G 8
  23124660.536   -12298529.73449  -9570894.28546  23124659.321    23124664.252
  23584999.870    -8689470.37949  -6761275.31445  23584999.115    23585005.705
  20924413.158   -18041532.40649 -14045368.93548  20924412.641    20924418.215
  23903855.816    -1220865.60449   -941225.25845  23903855.505    23903863.845
  20460634.397   -22901344.43549 -17833799.24948  20460634.298    20460638.293
  23268230.009    -5901546.17849  -4584181.77746  23268229.350    23268233.386
  24053997.227    -2202895.10649  -1699598.81445  24053996.754    24054004.179
  23073603.959    -9434794.34449  -7198676.98045  23073603.516    23073610.020
  21762854.137   -14792862.88849 -11508735.00947  21762853.440    21762859.380
 04  7 19  1 21  0.0000000  0  9G19G10G27G 1G13G23G28G 3G 8
  23113494.855   -12357206.44149  -9616616.35446  23113493.482    23113498.449
  23575080.721    -8741593.83449  -6801890.94345  23575080.043    23575086.238
  20920340.988   -18062931.08949 -14062043.22948  20920340.520    20920346.098
  23922238.783    -1124264.42349   -865951.70945  23922238.358    23922246.449
  20467116.185   -22867282.76749 -17807257.70348  20467116.060    20467120.064
  23286856.148    -5803665.23449  -4507910.97846  23286855.655    23286859.689
  24034819.021    -2303675.98749  -1778129.22245  24034818.732    24034826.115
  23076074.326    -9421812.29149  -7188561.08845  23076073.876    23076080.454
  21751058.338   -14854850.10149 -11557036.70447  21751057.656    21751063.556
 04  7 19  1 21 30.0000000  0  9G19G10G27G 1G13G23G28G 3G 8
  23102401.195   -12415502.01249  -9662041.44846  23102400.111    23102405.165
  23565260.027    -8793202.09249  -6842105.13045  23565259.340    23565265.484
  20916303.404   -18084148.74349 -14078576.45748  20916302.945    20916308.517
  23940657.594    -1027474.99749   -790531.48745  23940656.949    23940664.870
  20473687.256   -22832751.49549 -17780350.22748  20473687.141    20473691.195
  23305524.564    -5705563.63249  -4431468.23446  23305524.011    23305527.934
  24015670.871    -2404300.29449  -1856537.65345  24015670.398    24015677.887
  23078653.233    -9408260.46249  -7178001.21145  23078652.751    23078659.303
  21739298.852   -14916646.54949 -11605189.75947  21739298.127    21739303.919
 04  7 19  1 22  0.0000000  0  9G19G10G27G 1G13G23G28G 3G 8
  23091380.693   -12473414.57249  -9707168.07346  23091379.701    23091384.753
  23555537.674    -8844293.23749  -6881916.38345  23555536.842    23555543.224
  20912300.224   -18105185.79949 -14094968.96648  20912299.736    20912305.350
  23959111.519     -930498.97649   -714965.81345  23959110.832    23959118.862
  20480347.671   -22797750.83049 -17753076.99048  20480347.550    20480351.588
  23324234.517    -5607243.44149  -4354855.18946  23324233.730    23324237.671
  23996552.565    -2504766.90349  -1934823.20845  23996552.153    23996559.523
  23081340.511    -9394139.28249  -7166997.68945  23081340.021    23081346.403
  21727575.510   -14978252.79549 -11653194.59747  21727574.783    21727580.683
 04  7 19  1 22 30.0000000  0  9G19G10G27G 1G13G23G28G 3G 8
  23080433.756   -12530940.96749  -9751993.79446  23080432.649    23080437.750
  23545914.042    -8894865.44049  -6921323.28145  23545913.223    23545919.931
  20908331.422   -18126041.66649 -14111220.28348  20908330.954    20908336.644
  23977600.731     -833337.26449   -639255.47045  23977600.183    23977608.304
  20487097.471   -22762280.49449 -17725437.77848  20487097.367    20487101.364
  23342985.373    -5508705.69549  -4278072.59745  23342984.748    23342988.677
  23977464.852    -2605073.77549  -2012984.22645  23977464.308    23977471.599
  23084135.970    -9379448.51549  -7155550.33245  23084135.556    23084141.945
  21715888.547   -15039668.18049 -11701050.73247  21715887.814    21715893.737
 04  7 19  1 23  0.0000000  0  9G19G10G27G 1G13G23G28G 3G 8
  23069560.950   -12588078.40749  -9796516.42246  23069559.836    23069564.819
  23536389.589    -8944917.19649  -6960324.61745  23536388.767    23536395.789
  20904397.146   -18146716.08149 -14127330.21048  20904396.687    20904402.403
  23996125.423     -735991.00849   -563401.34445  23996124.787    23996132.924
  20493936.668   -22726340.51849 -17697432.61148  20493936.523    20493940.574
  23361777.450    -5409951.67949  -4201121.50745  23361776.968    23361780.895
  23958407.817    -2705219.02249  -2091019.37545  23958407.219    23958414.644
  23087039.951    -9364188.09849  -7143659.09345  23087039.565    23087045.972
  21704238.140   -15100892.00249 -11748757.58447  21704237.339    21704243.257
 04  7 19  1 23 30.0000000  0  9G19G10G27G 1G13G23G28G 3G 8
  23058762.523   -12644825.05749  -9840734.53146  23058761.342    23058766.243
  23526964.371    -8994447.69949  -6998919.79245  23526963.422    23526970.511
  20900497.353   -18167209.67849 -14143299.24348  20900496.897    20900502.583
  24014684.567     -638462.24249   -487405.00345  24014684.049    24014692.184
  20500865.024   -22689931.48949 -17669061.94848  20500864.917    20500868.995
  23380610.548    -5310983.41949  -4124003.45546  23380610.130    23380614.003
  23939382.017    -2805201.70249  -2168927.79945  23939381.341    23939388.502
  23090052.149    -9348359.00949  -7131324.74745  23090051.700    23090058.102
  21692623.963   -15161924.59849 -11796315.43247  21692623.180    21692629.048
 04  7 19  1 24  0.0000000  0  9G19G10G27G 1G13G23G28G 3G 8
  23048038.897   -12701177.72249  -9884645.64846  23048037.755    23048042.587
  23517638.642    -9043454.39349  -7037106.83245  23517637.778    23517644.946
  20896632.217   -18187521.48149 -14159126.61848  20896631.743    20896637.298
  24033278.020     -540751.63849   -411266.98445  24033277.668    24033285.940
  20507882.697   -22653053.22749 -17640325.64748  20507882.598    20507886.639
  23399484.576    -5211801.84749  -4046719.19846  23399483.924    23399487.818
  23920387.231    -2905019.25949  -2246707.61145  23920386.482    23920393.733
  23093172.561    -9331960.66149  -7118546.81845  23093172.130    23093178.641
  21681046.380   -15222764.85249 -11843723.40047  21681045.595    21681051.414
 04  7 19  1 24 30.0000000  0  9G19G10G27G 1G13G23G28G 3G 8
  23037390.800   -12757133.50149  -9928247.49946  23037389.637    23037394.531
  23508412.860    -9091935.45849  -7074884.23845  23508411.915    23508419.309
  20892801.802   -18207650.98849 -14174811.93948  20892801.294    20892806.750
  24051906.306     -442860.07349   -334987.90145  24051905.692    24051914.053
  20514989.744   -22615705.25749 -17611223.34648  20514989.658    20514993.726
  23418398.668    -5112407.93849  -3969269.46546  23418398.090    23418402.109
  23901424.046    -3004669.79749  -2324357.23945  23901423.369    23901430.760
  23096401.231    -9314992.65749  -7105324.97245  23096400.894    23096407.446
  21669505.425   -15283412.47049 -11890981.26647  21669504.694    21669510.570
 04  7 19  1 25  0.0000000  0  9G19G10G27G 1G13G23G28G 3G 8
  23026818.592   -12812690.02849  -9971538.26446  23026817.486    23026822.472
  23499287.465    -9139889.53449  -7112251.03245  23499286.522    23499293.854
  20889005.996   -18227598.40449 -14190355.37048  20889005.462    20889010.892
  24070568.518     -344789.01649   -258568.99845  24070568.093    24070576.249
  20522186.081   -22577887.90649 -17581755.29348  20522186.036    20522190.144
  23437352.914    -5012803.52249  -3891655.69146  23437352.238    23437356.390
  23882492.840    -3104152.20349  -2401875.90545  23882492.375    23882499.797
  23099738.482    -9297455.49349  -7091659.68145  23099738.174    23099744.669
  21658001.425   -15343867.12949 -11938088.76947  21658000.638    21658006.483
 04  7 19  1 25 30.0000000  0  9G19G10G27G 1G13G23G28G 3G 8
  23016322.939   -12867845.69949 -10014516.67346  23016321.722    23016326.683
  23490262.649    -9187315.97049  -7149206.67045  23490261.710    23490268.639
  20885244.664   -18247364.40249 -14205757.44348  20885244.126    20885249.526
  24089265.135     -246540.77249   -182012.03945  24089264.389    24089272.284
  20529471.589   -22539602.15849 -17551922.25348  20529471.533    20529475.647
  23456346.579    -4912990.84349  -3813879.65045  23456345.950    23456350.095
  23863594.332    -3203465.58049  -2479262.80645  23863593.638    23863601.001
  23103183.810    -9279350.45449  -7077551.85245  23103183.529    23103190.046
  21646533.944   -15404129.04249 -11985046.07947  21646533.137    21646539.045
 04  7 19  1 26  0.0000000  0  9G19G10G27G 1G13G23G28G 3G 8
  23005904.014   -12922597.85349 -10057180.65246  23005902.735    23005907.706
  23481338.524    -9234212.90349  -7185749.71045  23481337.558    23481344.389
  20881517.898   -18266948.66049 -14221017.90748  20881517.366    20881522.747
  24107994.904     -148116.47149   -105317.87945  24107994.132    24108002.077
  20536846.239   -22500848.22849 -17521724.39848  20536846.177    20536850.253
  23475379.988    -4812971.19349  -3735942.36645  23475379.164    23475383.119
  23844728.160    -3302607.96249  -2556516.51645  23844727.479    23844734.669
  23106737.130    -9260677.50049  -7063001.50645  23106736.849    23106743.390
  21635103.090   -15464197.80149 -12031852.87447  21635102.320    21635108.317
 04  7 19  1 26 30.0000000  0  9G19G10G27G 1G13G23G28G 3G 8
  22995562.355   -12976943.04349 -10099527.52546  22995561.214    22995566.134
  23472515.546    -9280578.63249  -7221878.82245  23472514.566    23472521.212
  20877825.895   -18286350.26949 -14236136.04148  20877825.402    20877830.777
  24126757.559      -49516.99249    -28487.21745  24126756.974    24126765.089
  20544310.104   -22461625.48049 -17491161.23448  20544310.010    20544314.102
  23494452.456    -4712745.57649  -3657844.59245  23494451.589    23494455.437
  23825894.640    -3401577.09549  -2633635.18245  23825893.937    23825901.404
  23110398.689    -9241436.51149  -7048008.53145  23110398.304    23110404.850
  21623709.351   -15524072.04149 -12078508.09847  21623708.648    21623714.536
 04  7 19  1 27  0.0000000  0  9G19G10G27G 1G13G23G28G 3G 8
  22985298.678   -13030879.04449 -10141555.52546  22985297.530    22985302.420
  23463793.852    -9326411.50149  -7257592.75345  23463792.934    23463799.731
  20874168.724   -18305569.19249 -14251111.81448  20874168.174    20874173.531
  24145553.297       49256.38349     48478.95745  24145552.862    24145561.249
  20551863.172   -22421934.08449 -17460232.88348  20551863.101    20551867.172
  23513563.715    -4612315.49549  -3579587.47946  23513562.869    23513566.807
  23807094.504    -3500371.30849  -2710617.56945  23807093.942    23807101.026
  23114168.391    -9221627.67149  -7032573.08345  23114167.874    23114174.351
  21612352.582   -15583752.30349 -12125012.15847  21612351.840    21612357.692
 04  7 19  1 27 30.0000000  0  9G19G10G27G 1G13G23G28G 3G 8
  22975113.346   -13084403.27049 -10183262.66446  22975112.121    22975117.043
  23455173.982    -9371709.91349  -7292890.17745  23455172.922    23455179.818
  20870546.335   -18324604.97149 -14265944.88348  20870545.772    20870551.123
  24164382.195      148202.43649    125579.67045  24164381.517    24164390.144
  20559505.465   -22381774.02149 -17428939.34248  20559505.371    20559509.388
  23532713.632    -4511682.06149  -3501171.88646  23532712.822    23532716.925
  23788328.318    -3598988.94249  -2787462.33945  23788327.544    23788334.512
  23118045.680    -9201250.87449  -7016695.07145  23118045.340    23118051.916
  21601032.868   -15643237.64649 -12171364.35047  21601032.127    21601037.936
 04  7 19  1 28  0.0000000  0  9G19G10G27G 1G13G23G28G 3G 8
  22965006.832   -13137513.12649 -10224646.93846  22965005.617    22965010.524
  23446655.754    -9416472.51549  -7327770.12845  23446654.828    23446661.700
  20866958.776   -18343457.43749 -14280635.11448  20866958.255    20866963.611
  24183243.375      247319.73849    202813.84645  24183242.959    24183251.604
  20567236.765   -22341145.79349 -17397280.99048  20567236.668    20567240.688
  23551901.667    -4410846.91349  -3422599.10645  23551901.078    23551905.477
  23769595.838    -3697428.41349  -2864168.32045  23769595.172    23769602.131
  23122031.120    -9180306.57749  -7000374.81345  23122030.902    23122037.512
  21589750.344   -15702527.51549 -12217564.22347  21589749.607    21589755.475
 04  7 19  1 28 30.0000000  0  9G19G10G27G 1G13G23G28G 3G 8
  22954979.569   -13190206.10449 -10265706.35846  22954978.370    22954983.299
  23438239.691    -9460697.72849  -7362231.32245  23438238.945    23438246.126
  20863406.170   -18362126.41749 -14295182.36948  20863405.625    20863411.038
  24202137.129      346606.89449    280180.37845  24202136.739    24202145.702
  20575057.200   -22300049.38749 -17365257.82548  20575057.044    20575061.134
  23571127.948    -4309811.56449  -3343870.33045  23571127.318    23571132.039
  23750897.619    -3795687.98849  -2940734.11345  23750896.856    23750903.929
  23126124.643    -9158795.13049  -6983612.66445  23126124.328    23126130.917
  21578505.133   -15761621.50749 -12263611.45647  21578504.392    21578510.326
 04  7 19  1 29  0.0000000  0  9G19G10G27G 1G13G23G28G 3G 8
  22945032.118   -13242480.14449 -10306439.33746  22945030.926    22945035.805
  23429926.135    -9504384.47349  -7396272.90845  23429925.351    23429932.838
  20859888.473   -18380612.00449 -14309586.72148  20859887.930    20859893.391
  24221063.114      446062.45949    357678.12945  24221062.607    24221071.700
  20582966.499   -22258485.43949 -17332870.34547  20582966.389    20582970.518
  23590391.978    -4208577.74849  -3264986.91345  23590391.492    23590396.278
  23732233.759    -3893766.35649  -3017158.69245  23732233.037    23732240.200
  23130326.100    -9136717.34749  -6966409.22845  23130325.619    23130332.198
  21567297.183   -15820519.85049 -12309506.23147  21567296.401    21567302.293
 04  7 19  1 29 30.0000000  0  9G19G10G27G 1G13G23G28G 3G 8
  22935164.939   -13294333.07749 -10346844.16546  22935163.647    22935168.424
  23421715.670    -9547531.48149  -7429893.95845  23421714.724    23421722.327
  20856405.630   -18398914.24449 -14323848.20348  20856405.091    20856410.606
  24240020.702      545684.64349    435305.67145  24240020.103    24240029.156
  20590964.698   -22216454.41649 -17300118.91247  20590964.602    20590968.802
  23609693.855    -4107147.16149  -3185950.18445  23609693.239    23609697.883
  23713604.708    -3991662.27749  -3093441.12945  23713603.954    23713611.136
  23134634.846    -9114073.92349  -6948765.01045  23134634.476    23134641.155
  21556126.478   -15879222.21749 -12355248.29947  21556125.675    21556131.574
 04  7 19  1 30  0.0000000  0  9G19G10G27G 1G13G23G28G 3G 8
  22925378.049   -13345762.76049 -10386919.19746  22925376.882    22925381.614
  23413608.086    -9590137.94249  -7463093.78445  23413607.287    23413614.618
  20852957.631   -18417033.19449 -14337966.86148  20852957.118    20852962.695
  24259009.667      645471.73149    513061.73645  24259008.857    24259018.028
  20599051.673   -22173956.91649 -17267003.99447  20599051.583    20599055.860
  23629033.023    -4005521.78249  -3106761.67545  23629032.111    23629036.515
  23695010.677    -4089374.39249  -3169580.31645  23695009.956    23695017.127
  23139051.261    -9090865.60349  -6930680.60745  23139050.829    23139057.490
  21544992.986   -15937728.88649 -12400837.88547  21544992.202    21544998.125
 04  7 19  1 30 30.0000000  0  9G19G10G27G 1G13G23G28G 3G 8
  22915672.321   -13396766.05749 -10426661.97646  22915671.211    22915675.940
  23405603.676    -9632201.92749  -7495870.89345  23405602.788    23405609.955
  20849544.775   -18434968.05949 -14351942.07748  20849544.241    20849549.808
  24278029.499      745423.07749    590945.83545  24278028.950    24278038.161
  20607227.492   -22130992.62149 -17233525.33347  20607227.403    20607231.730
  23648408.866    -3903702.68249  -3027422.19145  23648407.838    23648411.984
  23676451.802    -4186900.26249  -3245574.38845  23676451.374    23676458.456
  23143575.193    -9067092.12549  -6912155.82345  23143574.817    23143581.246
  21533897.135   -15996038.00949 -12446273.53547  21533896.384    21533902.240
 04  7 19  1 31  0.0000000  0  9G19G10G27G 1G13G23G28G 3G 8
  22906048.308   -13447340.62749 -10466070.69146  22906047.134    22906051.925
  23397702.832    -9673721.84549  -7528224.07345  23397702.018    23397708.664
  20846167.025   -18452718.43549 -14365773.53948  20846166.449    20846171.996
  24297080.643      845537.56049    668957.02045  24297080.250    24297089.528
  20615492.148   -22087561.71849 -17199683.08547  20615492.062    20615496.358
  23667821.135    -3801690.88749  -2947932.58145  23667820.089    23667824.197
  23657928.967    -4284238.41249  -3321422.16345  23657928.417    23657935.466
  23148206.427    -9042753.91249  -6893190.99645  23148206.101    23148212.522
  21522838.964   -16054149.32449 -12491555.05747  21522838.169    21522843.973
 04  7 19  1 31 30.0000000  0  9G19G10G27G 1G13G23G28G 3G 8
  22896506.144   -13497484.06149 -10505143.45846  22896505.070    22896509.927
  23389905.505    -9714696.50649  -7560152.35045  23389904.636    23389911.231
  20842824.242   -18470284.22449 -14379461.15848  20842823.713    20842829.328
  24316163.115      945813.61049    747094.11045  24316162.570    24316171.681
  20623845.561   -22043664.47449 -17165477.45247  20623845.459    20623849.719
  23687269.353    -3699488.17649  -2868294.14245  23687268.556    23687272.817
  23639442.362    -4381387.33749  -3397122.48945  23639441.566    23639448.555
  23152945.130    -9017851.47249  -6873786.50045  23152945.020    23152951.395
  21511818.259   -16112062.79449 -12536682.39647  21511817.509    21511823.375
 04  7 19  1 32  0.0000000  0  9G19G10G27G 1G13G23G28G 3G 8
  22887046.655   -13547194.31649 -10543878.69546  22887045.488    22887050.323
  23382212.186    -9755125.07749  -7591655.10445  23382211.302    23382217.877
  20839516.685   -18487665.63649 -14393005.11448  20839516.183    20839521.775
  24335275.736     1046249.28449    825355.55245  24335275.129    24335283.871
  20632287.506   -21999301.84549 -17130909.18447  20632287.415    20632291.661
  23706753.858    -3597096.39749  -2788508.44045  23706753.126    23706757.484
  23620991.723    -4478345.78649  -3472674.41045  23620990.850    23620997.726
  23157791.474    -8992385.61649  -6853942.99345  23157791.104    23157797.529
  21500835.279   -16169778.56749 -12581655.69947  21500834.542    21500840.343
 04  7 19  1 32 30.0000000  0  9G19G10G27G 1G13G23G28G 3G 8
  22877670.098   -13596468.57649 -10582274.19546  22877668.949    22877673.718
  23374623.166    -9795005.83649  -7622731.01245  23374622.257    23374628.845
  20836244.398   -18504861.88549 -14406404.79248  20836243.859    20836249.446
  24354418.145     1146843.57549    903740.63745  24354417.457    24354426.274
  20640818.063   -21954473.71249 -17095978.18347  20640817.939    20640822.086
  23726274.114    -3494516.79549  -2708576.34745  23726273.413    23726277.984
  23602577.510    -4575111.75749  -3548076.36745  23602576.727    23602583.513
  23162744.446    -8966356.55749  -6833660.61845  23162744.156    23162750.589
  21489890.051   -16227295.76149 -12626474.27147  21489889.319    21489895.189
 04  7 19  1 33  0.0000000  0  9G19G10G27G 1G13G23G28G 3G 8
  22868376.926   -13645304.52449 -10620328.12846  22868375.753    22868380.532
  23367138.619    -9834337.29849  -7653378.89945  23367137.717    23367144.414
  20833007.323   -18521872.72449 -14419659.99648  20833006.780    20833012.380
  24373590.181     1247595.11749    982248.23245  24373589.455    24373598.270
  20649437.062   -21909180.13149 -17060684.49847  20649437.022    20649441.158
  23745829.647    -3391750.73249  -2628498.98145  23745829.105    23745833.850
  23584200.375    -4671683.56849  -3623327.02745  23584199.678    23584206.397
  23167804.790    -8939764.78549  -6812939.76345  23167804.463    23167810.870
  21478982.880   -16284613.28449 -12671137.26047  21478982.160    21478988.036
 04  7 19  1 33 30.0000000  0  9G19G10G27G 1G13G23G28G 3G 8
  22859167.483   -13693700.42649 -10658039.19846  22859166.318    22859170.999
  23359758.853    -9873118.94749  -7683598.35445  23359757.846    23359764.486
  20829805.469   -18538698.52849 -14432771.01548  20829804.936    20829810.504
  24392792.791     1348502.10849   1060876.95845  24392791.632    24392799.711
  20658144.505   -21863422.32249 -17025029.07747  20658144.424    20658148.573
  23765420.432    -3288800.38549  -2548278.01745  23765419.962    23765424.678
  23565860.421    -4768060.14549  -3698425.55745  23565859.805    23565866.471
  23172971.915    -8912611.55649  -6791781.42545  23172971.515    23172978.034
  21468113.655   -16341731.69549 -12715645.09447  21468112.915    21468118.718
 04  7 19  1 34  0.0000000  0  9G19G10G27G 1G13G23G28G 3G 8
  22850042.093   -13741653.89549 -10695405.50746  22850040.956    22850045.667
  23352483.752    -9911349.39749  -7713388.29145  23352482.732    23352489.460
  20826638.866   -18555338.96949 -14445737.58848  20826638.358    20826643.906
  24412024.187     1449563.24349   1139625.80045  24412023.367    24412031.616
  20666940.164   -21817200.51049 -16989012.09047  20666940.125    20666944.247
  23785045.965    -3185667.26649  -2467914.64645  23785045.605    23785050.269
  23547558.061    -4864240.12949  -3773370.88245  23547557.296    23547563.992
  23178245.850    -8884897.57349  -6770186.11245  23178245.365    23178251.919
  21457282.203   -16398650.67249 -12759997.52647  21457281.493    21457287.326
 04  7 19  1 34 30.0000000  0  9G19G10G27G 1G13G23G28G 3G 8
  22841001.616   -13789162.10649 -10732424.85346  22841000.404    22841005.122
  23345313.928    -9949027.11549  -7742747.53045  23345312.847    23345319.666
  20823507.711   -18571793.13249 -14458559.00848  20823507.246    20823512.786
  24431284.613     1550777.51449   1218493.94245  24431283.923    24431292.581
  20675824.221   -21770514.44749 -16952633.34847  20675824.175    20675828.270
  23804706.099    -3082352.35349  -2387409.60045  23804705.833    23804710.378
  23529293.322    -4960221.20349  -3848161.25945  23529292.640    23529299.120
  23183626.174    -8856622.87349  -6748153.89745  23183625.839    23183632.419
  21446488.906   -16455369.28849 -12804193.82647  21446488.235    21446494.060
 04  7 19  1 35  0.0000000  0  9G19G10G27G 1G13G23G28G 3G 8
  22832046.234   -13836222.99349 -10769095.64246  22832045.124    22832049.698
  23338249.293    -9986151.13949  -7771675.32446  23338248.337    23338255.004
  20820412.006   -18588061.04049 -14471235.30248  20820411.539    20820417.127
  24450573.477     1652143.18849   1297480.12245  24450572.942    24450582.262
  20684796.421   -21723365.11049 -16915893.62347  20684796.403    20684800.489
  23824400.754    -2978857.54749  -2306764.37045  23824400.411    23824405.062
  23511066.745    -5056002.09249  -3922795.63145  23511066.058    23511072.366
  23189113.216    -8827788.31849  -6725685.41845  23189112.941    23189119.465
  21435734.037   -16511887.03249 -12848233.60747  21435733.320    21435739.189
 04  7 19  1 35 30.0000000  0  9G19G10G27G 1G13G23G28G 3G 8
  22823176.566   -13882834.22849 -10805416.04146  22823175.334    22823179.770
  23331290.502   -10022720.38649  -7800170.81446  23331289.514    23331295.941
  20817351.828   -18604142.41749 -14483766.24448  20817351.367    20817356.905
  24469891.043     1753658.66949   1376583.07245  24469890.536    24469900.169
  20693856.659   -21675753.05749 -16878793.33147  20693856.701    20693860.837
  23844129.254    -2875184.27649  -2225980.07445  23844128.844    23844133.638
  23492878.393    -5151581.32749  -3997272.86145  23492877.799    23492884.291
  23194706.824    -8798394.50749  -6702781.15746  23194706.369    23194712.970
  21425017.432   -16568203.42949 -12892116.50347  21425016.670    21425022.570
 04  7 19  1 36  0.0000000  0  9G19G10G27G 1G13G23G28G 3G 8
  22814392.637   -13928994.02149 -10841384.66546  22814391.366    22814395.826
  23324437.268   -10058734.22449  -7828233.49846  23324436.259    23324442.610
  20814327.209   -18620037.31149 -14496151.88348  20814326.721    20814332.210
  24489237.323     1855322.57049   1455801.57445  24489236.893    24489245.771
  20703005.058   -21627678.43949 -16841332.61247  20703005.058    20703009.166
  23863891.376    -2771334.41849  -2145058.21445  23863890.942    23863895.708
  23474728.684    -5246957.54449  -4071591.89145  23474728.154    23474734.903
  23200406.404    -8768442.54149  -6679441.96746  23200406.053    23200412.656
  21414339.038   -16624318.52249 -12935842.52847  21414338.322    21414344.197
 04  7 19  1 36 30.0000000  0  9G19G10G27G 1G13G23G28G 3G 8
  22805695.118   -13974699.87349 -10876999.56646  22805693.826    22805698.203
  23317689.963   -10094191.15649  -7855862.26946  23317689.069    23317695.265
  20811338.137   -18635745.19149 -14508391.78948  20811337.641    20811343.070
  24508611.997     1957133.45449   1535134.58744  24508611.070    24508619.073
  20712241.245   -21579141.89849 -16803511.94147  20712241.234    20712245.362
  23883686.703    -2667309.36249  -2063999.82045  23883686.257    23883691.122
  23456618.315    -5342128.96449  -4145751.36345  23456617.691    23456624.278
  23206212.262    -8737932.91549  -6655668.24946  23206211.824    23206218.471
  21403699.208   -16680231.80449 -12979411.30547  21403698.438    21403704.152
 04  7 19  1 37  0.0000000  0  9G19G10G27G 1G13G23G28G 3G 8
  22797084.314   -14019949.77649 -10912259.17646  22797082.978    22797087.402
  23311048.918   -10129090.61149  -7883056.64046  23311047.898    23311054.153
  20808384.621   -18651266.22749 -14520486.09948  20808384.105    20808389.451
  24528013.871     2059089.47949   1614580.69945  24528013.210    24528020.817
  20721565.182   -21530144.07249 -16765331.83147  20721565.189    20721569.405
  23903515.151    -2563111.07349  -1982806.45245  23903514.611    23903519.405
  23438547.047    -5437094.52549  -4219750.41545  23438546.382    23438552.836
  23212123.906    -8706866.95549  -6631461.01146  23212123.561    23212130.127
  21393097.664   -16735943.11649 -13022822.69947  21393096.877    21393102.526
 04  7 19  1 37 30.0000000  0  8G19G10G27G13G23G28G 3G 8
  22788560.805   -14064739.61049 -10947160.31646  22788559.658    22788564.082
  23304514.295   -10163429.57649  -7909814.24446  23304513.341    23304519.617
  20805467.044   -18666598.19249 -14532433.07648  20805466.525    20805471.859
  20730977.159   -21480683.86049 -16726791.41947  20730977.103    20730981.394
  23923376.447    -2458739.36249  -1901477.92145  23923375.941    23923380.679
  23420515.577    -5531851.01349  -4293586.53846  23420514.746    23420521.199
  23218141.580    -8675243.63949  -6606819.47946  23218141.226    23218147.861
  21382534.971   -16791450.01749 -13066074.81347  21382534.200    21382539.932
 04  7 19  1 38  0.0000000  0  8G19G10G27G13G23G28G 3G 8
  22780125.414   -14109068.41849 -10981702.20146  22780124.118    22780128.506
  23298086.401   -10197207.80749  -7936134.91846  23298085.441    23298091.941
  20802585.333   -18681741.49049 -14544233.04348  20802584.840    20802590.186
  20740476.905   -21430762.47449 -16687891.65847  20740476.867    20740481.117
  23943270.392    -2354196.31349  -1820015.91845  23943269.779    23943274.550
  23402523.596    -5626397.53249  -4367259.07146  23402522.950    23402529.486
  23224265.159    -8643064.02949  -6581744.47346  23224264.856    23224271.350
  21372011.236   -16846752.75749 -13109167.84547  21372010.475    21372016.135
 04  7 19  1 38 30.0000000  0  8G19G10G27G13G23G28G 3G 8
  22771777.897   -14152934.95849 -11015883.91346  22771776.527    22771781.013
  23291765.202   -10230425.62849  -7962018.91846  23291764.227    23291770.944
  20799739.351   -18696697.26649 -14555886.89748  20799738.841    20799744.200
  20750064.046   -21380381.59849 -16648633.84947  20750064.010    20750068.273
  23963196.438    -2249485.00249  -1738422.76445  23963195.785    23963200.424
  23384571.966    -5720733.76749  -4440767.73746  23384571.338    23384577.757
  23230494.158    -8610330.44849  -6556237.80246  23230493.864    23230500.315
  21361525.999   -16901852.92649 -13152103.02047  21361525.214    21361530.893
 04  7 19  1 39  0.0000000  0  8G19G10G27G13G23G28G 3G 8
  22763518.661   -14196336.86349 -11049703.54846  22763517.415    22763521.874
  23285550.846   -10263081.57449  -7987465.11246  23285549.840    23285556.759
  20796929.113   -18711464.83349 -14567394.09348  20796928.606    20796934.015
  20759738.462   -21329541.85649 -16609018.47747  20759738.492    20759742.789
  23983154.171    -2144606.83649  -1656699.61945  23983153.647    23983158.273
  23366660.761    -5814857.99449  -4514111.21046  23366660.068    23366666.426
  23236828.628    -8577043.55749  -6530299.98246  23236828.158    23236834.623
  21351079.431   -16956749.34749 -13194879.43547  21351078.706    21351084.385
 04  7 19  1 39 30.0000000  0  8G19G10G27G13G23G28G 3G 8
  22755348.325   -14239272.17749 -11083159.62046  22755347.081    22755351.486
  23279443.458   -10295174.99149  -8012472.95146  23279442.507    23279449.616
  20794154.780   -18726044.11449 -14578754.57648  20794154.287    20794159.693
  20769500.280   -21278243.94649 -16569046.09147  20769500.234    20769504.479
  24003143.670    -2039563.41849  -1574847.69645  24003142.909    24003147.509
  23348789.926    -5908768.77549  -4587288.37946  23348789.320    23348795.688
  23243268.035    -8543204.06649  -6503931.54746  23243267.631    23243274.028
  21340671.933   -17011441.22349 -13237496.45747  21340671.171    21340676.818
 04  7 19  1 40  0.0000000  0  8G19G10G27G13G23G28G 3G 8
  22747267.299   -14281738.05849 -11116249.89146  22747266.076    22747270.520
  23273443.410   -10326704.51649  -8037041.41146  23273442.541    23273449.805
  20791416.434   -18740434.07249 -14589967.52748  20791415.932    20791421.358
  20779349.283   -21226487.19749 -16528716.17147  20779349.246    20779353.432
  24023164.264    -1934355.71949  -1492867.76045  24023163.410    24023167.972
  23330960.229    -6002464.15249  -4660297.67246  23330959.533    23330966.011
  23249812.487    -8508812.67949  -6477133.07746  23249812.129    23249818.457
  21330303.428   -17065927.81449 -13279953.53647  21330302.709    21330308.382
 04  7 19  1 40 30.0000000  0  8G19G10G27G13G23G28G 3G 8
  22739275.769   -14323733.24549 -11148973.38846  22739274.618    22739279.132
  23267550.952   -10357669.61949  -8061170.04046  23267550.100    23267557.204
  20788714.104   -18754635.16749 -14601033.31048  20788713.613    20788718.959
  20789285.363   -21174273.31549 -16488030.04347  20789285.287    20789289.432
  24043215.316    -1828986.32949  -1410761.79845  24043214.569    24043219.218
  23313171.763    -6095943.35649  -4733138.54046  23313170.968    23313177.541
  23256461.740    -8473871.27249  -6449906.03346  23256461.277    23256467.593
  21319973.906   -17120209.51649 -13322250.93647  21319973.210    21319978.982
 04  7 19  1 41  0.0000000  0  8G19G10G27G13G23G28G 3G 8
  22731374.350   -14365255.17649 -11181328.11846  22731373.198    22731377.723
  23261766.323   -10388069.10449  -8084857.91346  23261765.275    23261772.289
  20786047.770   -18768646.60949 -14611951.31048  20786047.259    20786052.618
  20799308.268   -21121602.77249 -16446988.08347  20799308.189    20799312.334
  24063296.872    -1723456.11349  -1328530.55645  24063296.166    24063301.069
  23295424.884    -6189204.30649  -4805809.32746  23295424.104    23295430.561
  23263215.696    -8438379.78649  -6422250.34946  23263215.081    23263221.507
  21309683.694   -17174285.17649 -13364387.79747  21309682.963    21309688.665
 04  7 19  1 41 30.0000000  0  8G19G10G27G13G23G28G 3G 8
  22723563.457   -14406301.68849 -11213312.37746  22723562.245    22723566.861
  23256089.186   -10417902.35749  -8108104.58446  23256088.255    23256095.228
  20783417.586   -18782468.10949 -14622721.31248  20783417.100    20783422.451
  20809417.874   -21068476.36849 -16405590.90347  20809417.800    20809421.950
  24083408.907    -1617766.75649  -1246175.31145  24083408.143    24083412.971
  23277719.641    -6282245.79549  -4878309.10446  23277718.881    23277725.093
  23270073.921    -8402339.45949  -6394166.98746  23270073.254    23270079.738
  21299432.701   -17228154.82349 -13406364.12747  21299431.930    21299437.623
 04  7 19  1 42  0.0000000  0  8G19G10G27G13G23G28G 3G 8
  22715843.381   -14446871.01649 -11244924.79746  22715842.200    22715846.758
  23250520.240   -10447168.31749  -8130909.22146  23250519.181    23250526.123
  20780823.650   -18796099.48149 -14633343.16448  20780823.096    20780828.504
  20819614.202   -21014894.30949 -16363838.66847  20819614.141    20819618.262
  24103550.988    -1511920.13649  -1163697.51845  24103550.249    24103555.022
  23260056.183    -6375066.42549  -4950636.78446  23260055.479    23260061.571
  23277036.392    -8365751.45349  -6365656.85446  23277035.754    23277042.222
  21289221.023   -17281817.63849 -13448179.28647  21289220.250    21289226.036
 04  7 19  1 42 30.0000000  0  8G19G10G27G13G23G28G 3G 8
  22708214.390   -14486960.97049 -11276163.68546  22708213.301    22708217.757
  23245059.092   -10475866.20849  -8153271.21346  23245058.072    23245065.101
  20778265.915   -18809540.19949 -14643816.45148  20778265.406    20778270.795
  20829897.286   -20960856.60949 -16321731.38647  20829897.192    20829901.317
  24123722.583    -1405917.46549  -1081098.12245  24123722.034    24123726.760
  23242435.244    -6467664.31649  -5022790.89146  23242434.637    23242440.690
  23284103.109    -8328616.45649  -6336720.50246  23284102.401    23284108.831
  21279048.748   -17335273.04349 -13489832.83047  21279047.992    21279053.870
 04  7 19  1 43  0.0000000  0  8G19G10G27G13G23G28G 3G 8
  22700677.198   -14526569.07249 -11307027.08746  22700676.039    22700680.521
  23239706.403   -10503994.89549  -8175189.67946  23239705.357    23239712.361
  20775744.684   -18822789.51549 -14654140.59148  20775744.172    20775749.535
  20840266.752   -20906364.45249 -16279269.99047  20840266.683    20840270.865
  24143923.836    -1299760.32349   -998378.34145  24143923.100    24143927.954
  23224857.031    -6560037.91049  -5094770.22546  23224856.536    23224862.455
  23291273.352    -8290934.98249  -6307358.33246  23291272.838    23291279.450
  21268916.163   -17388520.37249 -13531324.23947  21268915.446    21268921.248
 04  7 19  1 43 30.0000000  0  8G19G10G27G13G23G28G 3G 8
  22693232.094   -14565693.51849 -11337513.62746  22693230.933    22693235.344
  23234461.975   -10531553.70049  -8196664.05946  23234461.018    23234468.230
  20773259.840   -18835847.26349 -14664315.45548  20773259.342    20773264.741
  20850722.651   -20851418.66849 -16236455.11347  20850722.555    20850726.763
  24164153.871    -1193450.37749   -915539.49745  24164153.014    24164158.286
  23207321.883    -6652185.79749  -5166573.66846  23207321.316    23207327.361
  23298547.502    -8252708.46549  -6277571.44746  23298547.091    23298553.702
  21258823.235   -17441559.22749 -13572653.20247  21258822.484    21258828.195
 04  7 19  1 44  0.0000000  0  8G19G10G27G13G23G28G 3G 8
  22685879.263   -14604332.89349 -11367622.19746  22685878.094    22685882.476
  23229326.104   -10558542.38949  -8217694.21545  23229325.133    23229332.555
  20770811.496   -18848713.49449 -14674341.08948  20770810.987    20770816.370
  20861264.641   -20796019.85649 -16193287.22647  20861264.597    20861268.792
  24184412.643    -1086989.75349   -832583.25245  24184411.819    24184417.032
  23189829.875    -6744106.98849  -5238200.48346  23189829.215    23189835.374
  23305925.435    -8213938.28349  -6247360.91646  23305924.834    23305931.491
  21248769.889   -17494389.74649 -13613819.82547  21248769.133    21248774.814
 04  7 19  1 44 30.0000000  0  8G19G10G27G13G23G28G 3G 8
  22678619.116   -14642485.01149 -11397351.10546  22678617.940    22678622.376
  23224298.964   -10584960.20349  -8238279.50145  23224297.974    23224305.379
  20768399.607   -18861387.73249 -14684217.11448  20768399.107    20768404.510
  20871892.733   -20740169.01749 -16149767.11047  20871892.649    20871896.887
  24204699.959     -980379.82549   -749510.66545  24204699.285    24204704.077
  23172381.366    -6835800.00049  -5309649.52046  23172380.645    23172386.578
  23313406.272    -8174625.39549  -6216727.51346  23313405.805    23313412.526
  21238756.220   -17547011.27849 -13654823.60347  21238755.486    21238761.199
 04  7 19  1 45  0.0000000  0  8G19G10G27G13G23G28G 3G 8
  22671452.025   -14680147.90649 -11426698.79246  22671450.871    22671455.381
  23219380.678   -10610806.47649  -8258419.45045  23219379.668    23219387.059
  20766024.349   -18873869.81749 -14693943.40548  20766023.871    20766029.282
  20882606.618   -20683867.18049 -16105895.56547  20882606.562    20882610.824
  24225015.348     -873622.46349   -666323.21845  24225014.800    24225019.318
  23154976.230    -6927263.46849  -5380919.69646  23154975.534    23154981.383
  23320990.227    -8134771.17849  -6185672.27746  23320989.834    23320996.568
  21228782.471   -17599423.38149 -13695664.19447  21228781.800    21228787.482
 04  7 19  1 45 30.0000000  0  8G19G10G27G13G23G28G 3G 8
  22664378.486   -14717319.32449 -11455663.51946  22664377.398    22664381.894
  23214571.287   -10636080.19049  -8278113.25245  23214570.217    23214577.613
  20763685.772   -18886158.94649 -14703519.34148  20763685.310    20763690.743
  20893406.276   -20627114.52349 -16061672.73847  20893406.216    20893410.525
  24245358.572     -766718.89549   -583021.81545  24245357.948    24245362.395
  23137615.155    -7018495.64249  -5452009.62746  23137614.523    23137620.476
  23328677.092    -8094376.59549  -6154196.00046  23328676.663    23328683.465
  21218848.847   -17651625.12849 -13736340.86847  21218848.157    21218853.840
 04  7 19  1 46  0.0000000  0  8G19G10G27G13G23G28G 3G 8
  22657398.847   -14753998.09849 -11484244.35546  22657397.620    22657402.199
  23209870.932   -10660781.27249  -8297360.85245  23209869.861    23209876.939
  20761383.934   -18898255.42749 -14712945.16848  20761383.473    20761388.862
  20904291.545   -20569912.32849 -16017099.62647  20904291.480    20904295.766
  24265728.722     -659671.37749   -499608.23545  24265728.287    24265733.157
  23120298.345    -7109495.80549  -5522918.76946  23120297.701    23120303.859
  23336466.438    -8053443.19049  -6122299.83846  23336466.071    23336472.866
  21208955.226   -17703616.56749 -13776853.66947  21208954.516    21208960.223
 04  7 19  1 46 30.0000000  0  8G19G10G27G13G23G28G 3G 8
  22650513.250   -14790181.47349 -11512439.17647  22650512.127    22650516.680
  23205279.648   -10684908.30649  -8316161.13646  23205278.620    23205285.684
  20759118.965   -18910157.89449 -14722219.80948  20759118.471    20759123.898
  20915262.460   -20512260.34549 -15972176.02247  20915262.315    20915266.602
  24286126.383     -552480.73749   -416083.14745  24286125.915    24286131.086
  23103026.081    -7200261.50249  -5593645.23646  23103025.498    23103031.787
  23344358.340    -8011971.39749  -6089984.15946  23344357.977    23344364.730
  21199101.823   -17755396.28249 -13817201.48947  21199101.128    21199106.869
 04  7 19  1 47  0.0000000  0  8G19G10G27G13G23G28G 3G 8
  22643722.422   -14825867.80749 -11540246.68047  22643721.278    22643725.802
  23200797.651   -10708461.02949  -8334513.89146  23200796.672    23200803.660
  20756890.868   -18921866.46449 -14731343.36348  20756890.404    20756895.849
  20926318.615   -20454159.91849 -15926902.98747  20926318.471    20926322.762
  24306551.129     -445149.03549   -332448.12645  24306550.465    24306555.782
  23085798.585    -7290791.67549  -5664188.15446  23085798.134    23085804.315
  23352352.237    -7969962.47349  -6057249.94546  23352352.083    23352358.819
  21189288.753   -17806964.57049 -13857384.55747  21189288.021    21189293.726
 04  7 19  1 47 30.0000000  0  8G19G10G27G13G23G28G 3G 8
  22637026.330   -14861056.13249 -11567666.13747  22637025.154    22637029.679
  23196425.103   -10731439.55949  -8352419.23546  23196424.050    23196431.056
  20754699.679   -18933381.47349 -14740316.09648  20754699.191    20754704.608
  20937459.763   -20395612.94349 -15881281.98347  20937459.598    20937463.885
  24327002.417     -337678.68749   -248705.09345  24327001.616    24327007.063
  23068616.454    -7381085.93449  -5734547.25046  23068615.770    23068621.580
  23360448.054    -7927418.42849  -6024098.74745  23360447.849    23360454.681
  21179515.847   -17858321.31749 -13897402.79547  21179515.147    21179520.757
 04  7 19  1 48  0.0000000  0  8G19G10G27G13G23G28G 3G 8
  22630425.334   -14895744.71949 -11594696.16446  22630424.173    22630428.532
  23192161.805   -10753843.41749  -8369876.80046  23192160.731    23192167.697
  20752545.392   -18944702.64649 -14749137.77948  20752544.862    20752550.255
  20948685.640   -20336619.74849 -15835313.27947  20948685.617    20948689.930
  24347479.910     -230071.20149   -164855.20245  24347478.911    24347484.231
  23051479.173    -7471142.86849  -5804721.40046  23051478.474    23051484.252
  23368645.576    -7884340.58649  -5990531.61845  23368645.294    23368652.132
  21169783.268   -17909466.24649 -13937255.98047  21169782.574    21169788.172
 04  7 19  1 48 30.0000000  0  8G19G10G27G13G23G28G 3G 8
  22623920.041   -14929930.71249 -11621334.57746  22623918.827    22623923.095
  23188008.122   -10775671.14049  -8386885.40446  23188007.066    23188014.076
  20750428.218   -18955828.45549 -14757807.23448  20750427.718    20750433.094
  20959996.499   -20277180.70549 -15788997.16747  20959996.456    20960000.860
  24367982.742     -122327.62249    -80899.23745  24367981.666    24367987.227
  23034387.419    -7560960.06049  -5874708.77446  23034386.816    23034392.598
  23376944.616    -7840729.43149  -5956548.90645  23376944.199    23376951.091
  21160091.182   -17960398.20949 -13976943.21747  21160090.484    21160096.135
 04  7 19  1 49  0.0000000  0  8G19G10G27G13G23G28G 3G 8
  22617510.576   -14963612.40249 -11647580.02046  22617509.354    22617513.615
  23183964.170   -10796922.27449  -8403444.73546  23183963.056    23183970.218
  20748348.217   -18966758.73849 -14766324.32248  20748347.738    20748353.146
  20971391.962   -20217296.99849 -15742334.55647  20971391.937    20971396.384
  24388510.831      -14449.62949      3161.45345  24388509.935    24388515.632
  23017341.414    -7650536.31749  -5944508.36346  23017340.857    23017346.742
  23385344.825    -7796586.16149  -5922151.56745  23385344.323    23385351.317
  21150439.909   -18011116.12149 -14016463.65547  21150439.216    21150444.877
 04  7 19  1 49 30.0000000  0  8G19G10G27G13G23G28G 3G 8
  22611197.361   -14996788.38049 -11673431.40246  22611196.085    22611200.358
  23180029.952   -10817596.60749  -8419554.58346  23180028.880    23180035.960
  20746305.481   -18977493.16449 -14774688.80148  20746305.012    20746310.440
  20982872.091   -20156968.66549 -15695325.48647  20982872.060    20982876.502
  24409064.887       93560.89249     87325.39945  24409063.916    24409069.279
  23000341.652    -7739870.55549  -6014119.39846  23000341.066    23000346.882
  23393845.843    -7751912.47349  -5887340.92845  23393845.418    23393852.458
  21140829.306   -18061620.26549 -14055817.52747  21140828.619    21140834.241
 04  7 19  1 50  0.0000000  0  8G19G10G27G13G23G28G 3G 8
  22604980.634   -15029456.50249 -11698887.06146  22604979.508    22604983.749
  23176205.712   -10837693.35549  -8435214.38046  23176204.667    23176211.674
  20744300.214   -18988031.08749 -14782900.16848  20744299.720    20744305.136
  20994436.632   -20096196.84449 -15647970.84047  20994436.604    20994440.989
  24429643.737      201702.53049    171591.49645  24429642.880    24429647.681
  22983388.144    -7828960.99849  -6083540.47946  22983387.592    22983393.479
  23402447.745    -7706709.40149  -5852117.75045  23402447.333    23402454.326
  21131259.633   -18111909.58849 -14095004.00947  21131258.914    21131264.545
 04  7 19  1 50 30.0000000  0  8G19G10G27G13G23G28G 3G 8
  22598861.052   -15061615.80149 -11723946.20746  22598859.825    22598863.929
  23172491.297   -10857212.97949  -8450424.45346  23172490.249    23172497.150
  20742332.209   -18998373.01749 -14790958.80948  20742331.693    20742337.162
  21006085.223   -20034983.38149 -15600272.06347  21006085.190    21006089.515
  24450247.176      309972.93149    255957.94145  24450246.435    24450250.967
  22966481.298    -7917807.07349  -6152771.14346  22966480.687    22966486.567
  23411150.072    -7660978.98549  -5816483.70445  23411149.588    23411156.566
  21121730.714   -18161984.37149 -14134023.31747  21121730.011    21121735.586
 04  7 19  1 51  0.0000000  0  8G19G10G27G13G23G28G 3G 8
  22592838.694   -15093264.31649 -11748607.34746  22592837.384    22592841.406
  23168886.806   -10876154.53849  -8465184.09446  23168885.764    23168892.665
  20740401.698   -19008518.06749 -14798864.04348  20740401.169    20740406.619
  21017817.790   -19973328.86749 -15552229.60447  21017817.697    21017822.032
  24470874.597      418370.75049    340423.66545  24470873.946    24470878.680
  22949621.264    -8006407.07749  -6221810.04846  22949620.658    22949626.486
  23419952.413    -7614722.18949  -5780439.47045  23419951.945    23419959.072
  21112242.727   -18211843.83149 -14172874.83447  21112242.009    21112247.614
 04  7 19  1 51 30.0000000  0  8G19G10G27G13G23G28G 3G 8
  22586913.753   -15124399.87149 -11772868.78446  22586912.486    22586916.538
  23165392.401   -10894517.46449  -8479492.85346  23165391.353    23165398.349
  20738508.777   -19018465.61549 -14806615.37248  20738508.200    20738513.644
  21029634.168   -19911233.76949 -15503843.83247  21029634.047    21029638.359
  24491525.891      526894.63549    424987.67345  24491525.279    24491530.337
  22932808.408    -8094759.45149  -6290655.98046  22932807.787    22932813.591
  23428854.597    -7567940.09549  -5743985.90045  23428854.212    23428861.507
  21102796.002   -18261486.69249 -14211557.57547  21102795.299    21102800.861
 04  7 19  1 52  0.0000000  0  8G19G10G27G13G23G28G 3G 8
  22581086.672   -15155021.31849 -11796729.61947  22581085.410    22581089.481
  23162008.220   -10912301.50149  -8493350.54346  23162007.176    23162014.159
  20736653.431   -19028215.25249 -14814212.48648  20736652.894    20736658.354
  21041534.120   -19848699.21449 -15455115.62747  21041533.979    21041538.303
  24512200.513      635542.50349    509648.30145  24512199.696    24512205.202
  22916042.844    -8182863.13549  -6359308.14546  22916042.164    22916047.875
  23437856.698    -7520634.46349  -5707124.38145  23437856.279    23437863.546
  21093390.524   -18310913.10949 -14250071.65747  21093389.780    21093395.246
 04  7 19  1 52 30.0000000  0  8G19G10G27G13G23G28G 3G 8
  22575357.786   -15185126.90649 -11820188.48647  22575356.486    22575360.533
  23158734.145   -10929506.48349  -8506756.99546  23158733.083    23158740.155
  20734835.819   -19037766.71049 -14821655.17848  20734835.282    20734840.785
  21053517.358   -19785726.38049 -15406045.90447  21053517.303    21053521.648
  24532898.889      744312.67249    594404.20844  24532897.979    24532903.158
  22899324.746    -8270716.89749  -6427765.55746  22899324.068    22899329.807
  23446957.984    -7472806.72249  -5669856.03945  23446957.599    23446964.905
  21084026.257   -18360122.79049 -14288416.86147  21084025.533    21084030.980
 04  7 19  1 53  0.0000000  0  8G19G10G27G13G23G28G 3G 8
  22569727.321   -15214714.89749 -11843244.03147  22569726.054    22569730.152
  23155570.166   -10946132.17749  -8519712.07246  23155569.203    23155576.417
  20733055.980   -19047119.56549 -14828943.11848  20733055.464    20733061.008
  21065583.988   -19722316.09749 -15356635.31047  21065583.860    21065588.249
  24553620.390      853203.50049    679254.02244  24553619.282    24553623.379
  22882654.578    -8358319.23349  -6496027.06646  22882653.869    22882659.439
  23456158.454    -7424458.13949  -5632181.84646  23456158.050    23456165.455
  21074703.430   -18409114.47449 -14326592.18647  21074702.667    21074708.175
 04  7 19  1 53 30.0000000  0  8G19G10G27G13G23G28G 3G 8
  22564195.652   -15243783.80649 -11865895.11347  22564194.443    22564198.521
  23152516.685   -10962178.27549  -8532215.50446  23152515.717    23152522.945
  20731314.087   -19056273.33349 -14836075.93048  20731313.550    20731319.079
  21077733.592   -19658469.43849 -15306884.69047  21077733.489    21077737.880
  24574364.339      962213.22749    764196.55044  24574363.772    24574366.982
  22866032.242    -8445669.10549  -6564091.84546  22866031.596    22866037.282
  23465457.635    -7375590.07249  -5594102.86246  23465457.282    23465464.783
  21065422.057   -18457888.15649 -14364597.64347  21065421.302    21065426.846
 04  7 19  1 54  0.0000000  0  8G19G10G27G13G23G28G 3G 8
  22558763.097   -15272332.09049 -11888140.49547  22558761.844    22558766.001
  23149573.498   -10977644.48649  -8544267.09046  23149572.544    23149579.742
  20729610.067   -19065227.78149 -14843053.42848  20729609.580    20729615.136
  21089966.039   -19594187.40649 -15256794.82147  21089965.971    21089970.352
  24595130.412     1071340.07049    849230.36044  24595130.126    24595133.973
  22849458.363    -8532764.91249  -6631958.64146  22849457.770    22849463.599
  23474855.509    -7326204.36449  -5555620.52146  23474855.126    23474862.605
  21056182.265   -18506443.30349 -14402432.81247  21056181.539    21056187.115
 04  7 19  1 54 30.0000000  0  8G19G10G27G13G23G28G 3G 8
  22553429.692   -15300358.10749 -11909978.94447  22553428.606    22553432.849
  23146740.857   -10992530.62249  -8555866.69646  23146739.925    23146747.019
  20727944.212   -19073982.18749 -14849875.04948  20727943.683    20727949.240
  21102281.178   -19529470.90649 -15206366.40547  21102281.125    21102285.453
  24615918.121     1180582.30549    934354.13444  24615917.515    24615922.847
  22832933.020    -8619605.59949  -6699626.65246  22832932.470    22832938.235
  23484351.518    -7276302.50649  -5516735.98246  23484351.162    23484358.582
  21046984.345   -18554778.84049 -14440096.85347  21046983.616    21046989.198
 04  7 19  1 55  0.0000000  0  8G19G10G27G13G23G28G 3G 8
  22548196.258   -15327860.19649 -11931409.12147  22548195.109    22548199.361
  23144018.709   -11006836.52849  -8567014.17346  23144017.710    23144024.782
  20726316.394   -19082536.15349 -14856540.47748  20726315.910    20726321.448
  21114678.851   -19464321.23049 -15155600.45147  21114678.712    21114683.038
  24636727.339     1289938.50649   1019566.70644  24636727.199    24636733.557
  22816456.672    -8706189.85649  -6767094.85546  22816456.056    22816461.729
  23493945.499    -7225885.98949  -5477450.41646  23493945.181    23493952.498
  21037828.161   -18602895.04749 -14477589.98947  21037827.395    21037833.002
 04  7 19  1 55 30.0000000  0  8G19G10G27G13G23G28G 3G 8
  22543062.519   -15354837.45649 -11952430.35546  22543061.423    22543065.738
  23141406.931   -11020562.21649  -8577709.51446  23141405.848    23141412.837
  20724726.877   -19090889.53049 -14863049.60548  20724726.370    20724731.911
  21127158.602   -19398739.69949 -15104497.98947  21127158.473    21127162.803
  24657558.757     1399406.52449   1104866.43544  24657558.625    24657564.622
  22800029.480    -8792516.65449  -6834362.41546  22800028.699    22800034.441
  23503636.961    -7174956.43349  -5437765.08145  23503636.651    23503643.989
  21028713.882   -18650791.06449 -14514911.55047  21028713.115    21028718.661
 04  7 19  1 56  0.0000000  0  8G19G10G27G13G23G28G 3G 8
  22538029.095   -15381288.98549 -11973041.91646  22538027.858    22538032.143
  23138905.228   -11033708.14149  -8587953.08046  23138904.140    23138911.186
  20723175.393   -19099042.63149 -14869402.67348  20723174.885    20723180.395
  21139720.195   -19332727.87449 -15053060.22647  21139720.136    21139724.473
  24678411.762     1508983.54949   1190251.00544  24678411.080    24678416.416
  22783650.954    -8878585.44049  -6901428.95846  22783650.247    22783656.103
  23513425.758    -7123516.03449  -5397681.69245  23513425.405    23513432.812
  21019641.418   -18698467.14049 -14552061.72647  21019640.646    21019646.187
 04  7 19  1 56 30.0000000  0  8G19G10G27G13G23G28G 3G 8
  22533095.974   -15407212.04849 -11993241.68946  22533094.793    22533099.074
  23136513.906   -11046273.50749  -8597744.24246  23136512.935    23136520.086
  20721662.291   -19106993.90749 -14875598.48148  20721661.802    20721667.265
  21152363.780   -19266285.61949 -15001287.06247  21152363.693    21152368.082
  24699284.868     1618669.33349   1275720.24644  24699284.221    24699288.523
  22767321.983    -8964393.88449  -6968292.63546  22767321.361    22767327.087
  23523311.795    -7071565.45249  -5357200.75145  23523311.301    23523318.522
  21010611.083   -18745921.61749 -14589039.22847  21010610.347    21010615.838
 04  7 19  1 57  0.0000000  0  8G19G10G27G13G23G28G 3G 8
  22528263.884   -15432605.37749 -12013028.66946  22528262.579    22528266.807
  23134233.269   -11058258.08249  -8607082.87146  23134232.245    23134239.454
  20720187.744   -19114742.82349 -14881636.60248  20720187.213    20720192.727
  21165088.871   -19199414.49449 -14949179.71447  21165088.814    21165093.240
  24720177.732     1728462.11049   1361272.95544  24720176.857    24720180.772
  22751042.852    -9049940.81749  -7034952.51246  22751042.182    22751047.940
  23533294.467    -7019106.17749  -5316323.39245  23533293.939    23533301.063
  21001623.026   -18793154.40949 -14625843.98647  21001622.279    21001627.737
 04  7 19  1 57 30.0000000  0  7G19G10G27G13G28G 3G 8
  22523532.860   -15457466.70049 -12032401.10046  22523531.634    22523535.808
  23132063.247   -11069660.93649  -8615968.20346  23132062.267    23132069.474
  20718751.870   -19122288.30049 -14887516.19648  20718751.387    20718756.850
  21177895.586   -19132114.69949 -14896738.33347  21177895.558    21177900.039
  22734813.800    -9135224.25749  -7101407.09346  22734813.186    22734818.899
  23543373.595    -6966139.33049  -5275050.56745  23543373.202    23543380.342
  20992677.430   -18840163.75249 -14662474.62547  20992676.672    20992682.168
 04  7 19  1 58  0.0000000  0  7G19G10G27G13G28G 3G 8
  22518903.444   -15481794.32349 -12051357.65346  22518902.199    22518906.373
  23130004.226   -11080481.80249  -8624400.04846  23130003.281    23130010.404
  20717354.900   -19129629.60249 -14893236.69648  20717354.384    20717359.817
  21190783.745   -19064386.89049 -14843963.43247  21190783.666    21190788.219
  22718635.471    -9220242.82749  -7167655.28046  22718634.697    22718640.366
  23553549.251    -6912666.32149  -5233383.29945  23553548.817    23553555.978
  20983774.501   -18886948.63849 -14698930.36747  20983773.766    20983779.309
 04  7 19  1 58 30.0000000  0  7G19G10G27G13G28G 3G 8
  22514375.373   -15505588.89749 -12069898.83946  22514374.213    22514378.400
  23128055.546   -11090722.51149  -8632379.82446  23128054.561    23128061.644
  20715996.475   -19136767.98949 -14898799.07848  20715995.974    20716001.477
  21203752.737   -18996234.37149 -14790857.59447  21203752.678    21203757.215
  22702507.213    -9304997.06049  -7233697.47046  22702506.522    22702512.167
  23563820.491    -6858690.56649  -5191324.30445  23563820.047    23563827.305
  20974913.931   -18933511.20749 -14735212.86947  20974913.170    20974918.778
 04  7 19  1 59  0.0000000  0  7G19G10G27G13G28G 3G 8
  22509949.375   -15528848.61549 -12088023.26146  22509948.067    22509952.291
  23126217.258   -11100382.71949  -8639907.27946  23126216.363    23126223.346
  20714676.781   -19143702.78749 -14904202.81848  20714676.308    20714681.816
  21216802.434   -18927658.00149 -14737421.48247  21216802.363    21216806.903
  22686429.567    -9389485.51749  -7299532.57546  22686428.942    22686434.521
  23574187.090    -6804213.27949  -5148874.50145  23574186.750    23574193.986
  20966095.910   -18979849.73749 -14771320.79747  20966095.194    20966100.828
 04  7 19  1 59 30.0000000  0  7G19G10G27G13G28G 3G 8
  22505625.028   -15551572.28949 -12105729.98146  22505623.841    22505628.113
  23124489.527   -11109462.43249  -8646982.38246  23124488.580    23124495.541
  20713396.003   -19150433.49849 -14909447.53148  20713395.475    20713401.009
  21229932.686   -18858658.72449 -14683655.83947  21229932.593    21229937.066
  22670402.778    -9473707.10049  -7365159.70746  22670402.038    22670407.694
  23584648.990    -6749236.18449  -5106035.21045  23584648.598    23584655.686
  20957320.662   -19025963.82849 -14807253.84247  20957319.959    20957325.509
 04  7 19  2  0  0.0000000  0  8G19G31G10G27G13G28G 3G 8
  22501402.698   -15573760.52149 -12123019.48946  22501401.544    22501405.764
  24641653.864    -2721978.74949  -1872889.49444  24641651.829    24641660.819
  23122871.728   -11117963.70749  -8653606.75946  23122870.799    23122877.775
  20712153.656   -19156961.61349 -14914534.37548  20712153.195    20712158.745
  21243142.721   -18789239.74949 -14629563.15547  21243142.628    21243147.070
  22654426.575    -9557662.30849  -7430579.31846  22654425.808    22654431.550
  23595205.373    -6693763.04849  -5062809.41045  23595204.851    23595211.913
  20948587.900   -19071855.13349 -14843013.29247  20948587.165    20948592.639
 04  7 19  2  0 30.0000000  0  8G19G31G10G27G13G28G 3G 8
  22497282.528   -15595412.74749 -12139891.32647  22497281.276    22497285.519
  24619841.400    -2836601.15449  -1962205.54044  24619839.900    24619848.974
  23121363.995   -11125887.49549  -8659781.14946  23121363.043    23121369.864
  20710950.003   -19163287.21549 -14919463.41748  20710949.498    20710955.028
  21256432.311   -18719402.86549 -14575144.83647  21256432.188    21256436.656
  22638501.020    -9641350.88149  -7495791.13646  22638500.362    22638506.246
  23605855.284    -6637796.03049  -5019198.78345  23605855.007    23605862.034
  20939897.391   -19117523.62649 -14878599.11147  20939896.701    20939902.209
 04  7 19  2  1  0.0000000  0  8G19G31G10G27G13G28G 3G 8
  22493265.655   -15616521.51149 -12156339.68947  22493264.367    22493268.696
  24598018.770    -2951278.43849  -2051564.28244  24598017.446    24598026.010
  23119967.324   -11133227.60949  -8665500.71846  23119966.361    23119973.067
  20709786.084   -19169403.81049 -14924229.59248  20709785.574    20709791.057
  21269802.153   -18649143.46949 -14520397.28447  21269802.063    21269806.598
  22622627.633    -9724765.54149  -7560789.51946  22622627.041    22622632.928
  23616600.428    -6581331.01549  -4975200.08845  23616600.058    23616607.088
  20931250.626   -19162962.64149 -14914006.12547  20931249.927    20931255.476
 04  7 19  2  1 30.0000000  0  8G19G31G10G27G13G28G 3G 8
  22489351.910   -15637087.83849 -12172365.38747  22489350.687    22489355.026
  24576186.203    -3066010.16949  -2140965.49244  24576185.050    24576193.559
  23118681.061   -11139986.47449  -8670767.38546  23118680.061    23118686.915
  20708661.591   -19175313.18449 -14928834.29648  20708661.082    20708666.534
  21283251.788   -18578464.89249 -14465323.09247  21283251.721    21283256.276
  22606806.403    -9807907.24949  -7625575.20346  22606805.724    22606811.540
  23627439.601    -6524372.08949  -4930816.51845  23627439.055    23627446.116
  20922647.256   -19208173.63449 -14949235.46347  20922646.563    20922652.099
 04  7 19  2  2  0.0000000  0  8G19G31G10G27G13G28G 3G 8
  22485541.664   -15657110.57549 -12187967.51246  22485540.474    22485544.816
  24554343.581    -3180793.97149  -2230407.23644  24554342.364    24554350.531
  23117505.390   -11146164.42449  -8675581.37646  23117504.375    23117511.222
  20707576.544   -19181014.99749 -14933277.25848  20707576.044    20707581.530
  21296781.031   -18507368.78149 -14409923.54947  21296780.905    21296785.457
  22591037.071    -9890775.04149  -7690147.45846  22591036.451    22591042.243
  23638372.061    -6466921.03649  -4886049.49245  23638371.496    23638378.557
  20914087.295   -19253156.67249 -14984287.15947  20914086.559    20914092.050
 04  7 19  2  2 30.0000000  0  8G19G31G10G27G13G28G 3G 8
  22481834.983   -15676588.97849 -12203145.47246  22481833.801    22481838.169
  24532491.450    -3295627.23249  -2319887.55944  24532489.672    24532497.894
  23116440.232   -11151761.78249  -8679942.97246  23116439.212    23116446.046
  20706531.114   -19186508.98749 -14937558.29048  20706530.607    20706536.045
  21310389.301   -18435856.49749 -14354199.72147  21310389.265    21310393.824
  22575320.132    -9973368.09849  -7754505.62746  22575319.491    22575325.165
  23649397.918    -6408980.13749  -4840900.74645  23649397.382    23649404.395
  20905570.742   -19297911.37249 -15019160.93747  20905570.005    20905575.499
 04  7 19  2  3  0.0000000  0  8G19G31G10G27G13G28G 3G 8
  22478232.195   -15695521.91849 -12217898.41046  22478230.984    22478235.333
  24510629.615    -3410507.22349  -2409404.29444  24510627.677    24510636.587
  23115485.366   -11156779.10549  -8683852.57546  23115484.324    23115491.389
  20705525.258   -19191794.74849 -14941677.06448  20705524.753    20705530.201
  21324076.683   -18363929.12349 -14298152.44347  21324076.609    21324081.140
  22559655.589   -10055685.39149  -7818648.92546  22559654.945    22559660.463
  23660516.741    -6350550.99349  -4795371.56945  23660516.175    23660523.086
  20897097.825   -19342436.93049 -15053856.17347  20897097.101    20897102.547
 04  7 19  2  3 30.0000000  0  8G19G31G10G27G13G28G 3G 8
  22474733.510   -15713907.87949 -12232225.13546  22474732.217    22474736.608
  24488759.876    -3525431.19249  -2498955.31944  24488757.986    24488766.430
  23114640.921   -11161216.45249  -8687310.24246  23114639.918    23114647.082
  20704559.186   -19196871.47149 -14945632.94848  20704558.702    20704564.101
  21337842.830   -18291587.83249 -14241782.63247  21337842.729    21337847.244
  22544043.890   -10137725.38849  -7882576.12446  22544043.313    22544048.868
  23671727.832    -6291635.25149  -4749463.23445  23671727.415    23671734.331
  20888668.582   -19386732.56849 -15088372.24247  20888667.866    20888673.371
 04  7 19  2  4  0.0000000  0  8G19G31G10G27G13G28G 3G 8
  22471338.826   -15731746.03849 -12246124.99346  22471337.687    22471342.118
  24466882.370    -3640396.58449  -2588538.58744  24466880.920    24466889.198
  23113906.997   -11165073.98649  -8690316.10946  23113906.006    23113913.172
  20703632.950   -19201738.93549 -14949425.77148  20703632.443    20703637.803
  21351687.338   -18218834.61549 -14185091.84347  21351687.244    21351691.738
  22528485.178   -10219487.42649  -7946286.76646  22528484.564    22528490.075
  23683031.205    -6232235.13249  -4703177.46145  23683030.979    23683037.766
  20880283.202   -19430798.10249 -15122709.00647  20880282.471    20880287.994
 04  7 19  2  4 30.0000000  0  8G19G31G10G27G13G28G 3G 8
  22468048.654   -15749036.26249 -12259597.88946  22468047.494    22468051.822
  24444997.398    -3755401.59949  -2678152.72844  24444996.599    24445004.482
  23113283.018   -11168353.14649  -8692871.28446  23113282.028    23113289.252
  20702746.490   -19206397.43349 -14953055.76148  20702745.997    20702751.265
  21365609.868   -18145671.24149 -14128081.44847  21365609.826    21365614.263
  22512979.253   -10300971.38449  -8009780.69646  22512978.659    22512984.145
  23694426.545    -6172353.26749  -4656516.29745  23694426.200    23694432.842
  20871941.457   -19474633.93349 -15156866.77947  20871940.756    20871946.251
 04  7 19  2  5  0.0000000  0  8G19G31G10G27G13G28G 3G 8
  22464863.093   -15765776.80649 -12272642.46746  22464861.870    22464866.158
  24423105.604    -3870442.77249  -2767795.03145  24423105.276    24423113.405
  23112769.231   -11171053.56849  -8694975.51146  23112768.264    23112775.387
  20701900.026   -19210845.85949 -14956522.06048  20701899.503    20701904.740
  21379610.400   -18072098.42849 -14070752.01747  21379610.284    21379614.726
  22497526.535   -10382175.33649  -8073056.47446  22497525.947    22497531.536
  23705912.934    -6111990.92449  -4609480.76845  23705912.788    23705919.451
  20863643.837   -19518238.40649 -15190844.28747  20863643.130    20863648.560
 04  7 19  2  5 30.0000000  0  8G19G31G10G27G13G28G 3G 8
  22461782.243   -15781966.72049 -12285257.96046  22461781.013    22461785.344
  24401207.903    -3985517.53649  -2857463.54345  24401207.316    24401215.539
  23112365.454   -11173175.65349  -8696629.10946  23112364.463    23112371.542
  20701093.512   -19215083.87849 -14959824.40648  20701093.031    20701098.255
  21393688.473   -17998117.72349 -14013104.74847  21393688.377    21393692.833
  22482127.092   -10463098.25749  -8136113.24846  22482126.588    22482132.381
  23717490.376    -6051150.19549  -4562072.45945  23717490.253    23717497.165
  20855390.332   -19561611.15949 -15224641.23047  20855389.574    20855395.033
 04  7 19  2  6  0.0000000  0  8G19G31G10G27G13G28G 3G 8
  22458806.410   -15797604.73749 -12297443.41146  22458805.183    22458809.507
  24379304.177    -4100623.19249  -2947156.14145  24379303.559    24379312.057
  23112071.637   -11174719.82449  -8697832.37546  23112070.596    23112077.634
  20700327.249   -19219110.97649 -14962962.40448  20700326.722    20700331.959
  21407843.890   -17923730.64849 -13955140.82547  21407843.798    21407848.260
  22466781.630   -10543739.14249  -8198950.25446  22466781.131    22466786.807
  23729158.836    -5989832.73149  -4514292.68045  23729158.665    23729165.484
  20847180.940   -19604751.61049 -15258257.16047  20847180.217    20847185.694
 04  7 19  2  6 30.0000000  0  8G19G31G10G27G13G28G 3G 8
  22455935.479   -15812690.74149 -12309198.72147  22455934.400    22455938.680
  24357394.374    -4215757.28649  -3036870.91445  24357393.978    24357402.898
  23111887.565   -11175686.94149  -8698585.97046  23111886.584    23111893.609
  20699601.027   -19222926.89849 -14965935.84748  20699600.515    20699605.810
  21422076.306   -17848938.77549 -13896861.47047  21422076.185    21422080.688
  22451490.040   -10624097.54449  -8261567.13146  22451489.497    22451494.989
  23740917.458    -5928041.02449  -4466143.32145  23740917.295    23740923.987
  20839015.813   -19647659.67349 -15291692.00347  20839015.080    20839020.596
 04  7 19  2  7  0.0000000  0  8G19G31G10G27G13G28G 3G 8
  22453170.229   -15827222.55149 -12320522.18646  22453169.075    22453173.330
  24335479.713    -4330916.03849  -3126604.92344  24335479.410    24335488.515
  23111813.482   -11176076.51849  -8698889.53746  23111812.476    23111819.469
  20698915.366   -19226530.15449 -14968743.58648  20698914.839    20698920.165
  21436385.641   -17773742.51749 -13838267.01747  21436385.579    21436390.120
  22436252.573   -10704171.13549  -8323962.09046  22436251.917    22436257.373
  23752766.337    -5865775.82649  -4417625.02745  23752766.032    23752772.739
  20830895.145   -19690333.95849 -15324944.68747  20830894.392    20830899.951
 04  7 19  2  7 30.0000000  0  8G19G31G10G27G13G28G 3G 8
  22450510.512   -15841199.70949 -12331413.45346  22450509.286    22450513.521
  24313560.986    -4446097.32449  -3216356.46244  24313560.753    24313569.709
  23111849.064   -11175889.26749  -8698743.60146  23111848.130    23111855.149
  20698270.152   -19229920.92149 -14971385.74948  20698269.616    20698274.988
  21450771.755   -17698143.79249 -13779358.95947  21450771.580    21450776.123
  22421069.214   -10783959.47849  -8386134.79246  22421068.588    22421073.994
  23764704.581    -5803039.89749  -4368739.92545  23764704.318    23764711.066
  20822818.988   -19732774.07349 -15358014.90247  20822818.273    20822823.856
 04  7 19  2  8  0.0000000  0  8G19G31G10G27G13G28G 3G 8
  22447956.489   -15854620.77149 -12341871.40046  22447955.364    22447959.631
  24291638.659    -4561298.02049  -3306123.12444  24291638.539    24291647.137
  23111994.634   -11175125.39149  -8698148.39146  23111993.649    23112000.507
  20697665.581   -19233098.09949 -14973861.46748  20697665.015    20697670.430
  21465233.982   -17622143.69349 -13720138.14347  21465233.928    21465238.513
  22405940.322   -10863461.31149  -8448084.23246  22405939.810    22405945.181
  23776732.102    -5739834.72549  -4319489.21845  23776731.921    23776738.755
  20814787.700   -19774978.90849 -15390901.78947  20814787.003    20814792.471
 04  7 19  2  8 30.0000000  0  8G19G31G10G27G13G28G 3G 8
  22445508.260   -15867486.47449 -12351896.58846  22445507.109    22445511.262
  24269713.787    -4676516.56449  -3395903.64045  24269713.426    24269721.280
  23112249.421   -11173786.68249  -8697105.25446  23112248.383    23112255.224
  20697101.473   -19236062.61849 -14976171.48348  20697100.915    20697106.323
  21479772.260   -17545744.96449 -13660606.70947  21479772.133    21479776.713
  22390866.162   -10942676.80949  -8509810.55346  22390865.586    22390870.927
  23788848.641    -5676163.75449  -4269875.50245  23788848.342    23788854.961
  20806801.019   -19816949.26049 -15423605.95647  20806800.292    20806805.712
 04  7 19  2  9  0.0000000  0  8G19G31G10G27G13G28G 3G 8
  22443165.933   -15879795.05649 -12361487.66446  22443164.840    22443169.044
  24247786.004    -4791749.50049  -3485695.38445  24247785.487    24247793.019
  23112613.642   -11171873.24049  -8695614.26646  23112612.521    23112619.465
  20696578.063   -19238813.21849 -14978314.80748  20696577.468    20696582.931
  21494386.271   -17468948.58049 -13600765.40647  21494386.026    21494390.579
  22375846.835   -11021604.49249  -8571312.59846  22375846.214    22375851.467
  23801053.508    -5612028.10749  -4219899.72045  23801052.964    23801059.567
  20798859.137   -19858684.00749 -15456126.53147  20798858.440    20798863.869
 04  7 19  2  9 30.0000000  0  8G19G31G10G27G13G28G 3G 8
  22440929.951   -15891545.44949 -12370643.78246  22440928.778    22440933.070
  24225855.897    -4906993.98949  -3575496.15545  24225855.310    24225862.537
  23113087.044   -11169385.34049  -8693675.66946  23113085.904    23113092.931
  20696095.490   -19241349.15449 -14980290.86048  20696094.931    20696100.371
  21509075.595   -17391755.70849 -13540615.15047  21509075.367    21509079.930
  22360882.542   -11100242.93849  -8632589.27046  22360881.844    22360887.193
  23813345.897    -5547429.82349  -4169563.47345  23813345.474    23813352.192
  20790962.324   -19900182.26549 -15488462.82947  20790961.597    20790966.957
 04  7 19  2 10  0.0000000  0  8G19G31G10G27G13G28G 3G 8
  22438800.393   -15902736.22049 -12379363.83546  22438799.232    22438803.439
  24203923.983    -5022246.48849  -3665303.19545  24203923.313    24203930.713
  23113669.769   -11166322.75349  -8691289.22946  23113668.710    23113675.629
  20695653.929   -19243669.38249 -14982098.83448  20695653.377    20695658.877
  21523840.200   -17314167.08549 -13480156.51047  21523840.055    21523844.615
  22345973.188   -11178590.57849  -8693639.33746  22345972.625    22345978.150
  23825726.631    -5482370.52149  -4118867.92345  23825725.992    23825732.587
  20783110.819   -19941442.90049 -15520613.97347  20783110.032    20783115.347
 04  7 19  2 10 30.0000000  0  8G19G31G10G27G13G28G 3G 8
  22436777.406   -15913366.70649 -12387647.30746  22436776.283    22436780.492
  24181990.411    -5137504.47349  -3755114.48345  24181989.978    24181998.277
  23114361.647   -11162686.34149  -8688455.67046  23114360.581    23114367.574
  20695253.522   -19245773.42749 -14983738.35248  20695252.984    20695258.470
  21538679.902   -17236184.25149 -13419390.70247  21538679.772    21538684.328
  22331119.592   -11256646.49249  -8754462.08046  22331118.978    22331124.602
  23838194.659    -5416851.99849  -4067814.54645  23838193.852    23838200.435
  20775304.384   -19982465.36249 -15552579.52247  20775303.637    20775309.070
 04  7 19  2 11  0.0000000  0  8G19G31G10G27G13G28G 3G 8
  22434861.277   -15923435.92249 -12395493.43046  22434860.189    22434864.417
  24160056.429    -5252764.43049  -3844927.31345  24160056.311    24160065.251
  23115162.730   -11158476.32849  -8685175.17346  23115161.726    23115168.658
  20694894.527   -19247660.26849 -14985208.62248  20694893.973    20694899.405
  21553594.232   -17157808.53949 -13358318.73747  21553594.157    21553598.773
  22316321.705   -11334409.63949  -8815056.69046  22316321.112    22316326.681
  23850749.303    -5350876.02449  -4016404.76745  23850748.441    23850755.252
  20767543.466   -20023248.51149 -15584358.59347  20767542.769    20767548.327
 04  7 19  2 11 30.0000000  0  8G19G31G10G27G13G28G 3G 8
  22433052.223   -15932943.37449 -12402901.80346  22433050.992    22433055.143
  24138123.141    -5368024.24249  -3934740.07645  24138123.005    24138131.900
  23116072.806   -11153693.87849  -8681448.59946  23116071.787    23116078.762
  20694576.809   -19249329.88149 -14986509.61648  20694576.263    20694581.704
  21568583.026   -17079041.74749 -13296942.03847  21568582.951    21568587.619
  22301579.813   -11411879.28849  -8875422.59646  22301579.158    22301584.599
  23863390.260    -5284445.12649  -3964640.44745  23863389.788    23863396.819
  20759828.336   -20063792.12649 -15615951.00547  20759827.600    20759833.135
 04  7 19  2 12  0.0000000  0  8G19G31G10G27G13G28G 3G 8
  22431349.753   -15941889.24949 -12409872.60646  22431348.601    22431352.783
  24116190.729    -5483281.88849  -4024551.06245  24116190.328    24116199.019
  23117091.504   -11148340.61649  -8677277.23846  23117090.511    23117097.449
  20694300.344   -19250782.45849 -14987641.49548  20694299.824    20694305.294
  21583645.673   -16999886.37249 -13235262.54047  21583645.643    21583650.375
  22286893.709   -11489055.30549  -8935559.70446  22286893.035    22286898.405
  23876117.906    -5217562.03449  -3912523.78545  23876117.138    23876124.322
  20752158.612   -20104096.62749 -15647357.10447  20752157.890    20752163.405
 04  7 19  2 12 30.0000000  0  8G19G31G10G27G13G28G 3G 8
  22429754.277   -15950272.76049 -12416405.20246  22429753.235    22429757.445
  24094258.956    -5598534.51049  -4114358.14845  24094258.602    24094266.794
  23118218.691   -11142417.28849  -8672661.64946  23118217.691    23118224.502
  20694065.322   -19252017.49749 -14988603.86848  20694064.787    20694070.284
  21598782.110   -16920343.84949 -13173281.40047  21598782.084    21598786.752
  22272263.577   -11565936.71549  -8995467.24946  22272262.913    22272268.213
  23888931.238    -5150228.97849  -3860056.51345  23888930.317    23888937.650
  20744534.615   -20144161.19749 -15678576.24047  20744533.878    20744539.296
 04  7 19  2 13  0.0000000  0  8G19G31G10G27G13G28G 3G 8
  22428266.319   -15958092.64949 -12422498.61446  22428265.165    22428269.419
  24072328.756    -5713778.51149  -4204158.50145  24072328.234    24072336.383
  23119454.392   -11135923.66349  -8667601.70346  23119453.435    23119460.212
  20693871.986   -19253033.64549 -14989395.67548  20693871.441    20693876.915
  21613992.208   -16840415.01949 -13110999.23847  21613992.154    21613996.696
  22257689.858   -11642521.78049  -9055143.87646  22257689.232    22257694.497
  23901830.019    -5082447.48149  -3807239.76745  23901828.818    23901836.100
  20736956.381   -20183984.96449 -15709607.73147  20736955.624    20736961.062
 04  7 19  2 13 30.0000000  0  8G19G31G10G27G13G28G 3G 8
  22426885.660   -15965347.94949 -12428152.09846  22426884.461    22426888.767
  24050400.509    -5829010.95749  -4293949.83345  24050400.214    24050408.290
  23120798.492   -11128860.41149  -8662097.86346  23120797.495    23120804.220
  20693720.413   -19253830.39849 -14990016.52748  20693719.846    20693725.329
  21629275.625   -16760101.38049 -13048417.21747  21629275.494    21629279.973
  22243172.771   -11718809.47749  -9114588.79346  22243172.133    22243177.352
  23914812.972    -5014219.51249  -3754075.14945  23914812.120    23914819.316
  20729424.276   -20223566.40849 -15740450.40947  20729423.549    20729428.935
 04  7 19  2 14  0.0000000  0  8G19G31G10G27G13G28G 3G 8
  22425612.538   -15972037.99849 -12433365.11346  22425611.352    22425615.633
  24028475.327    -5944228.92349  -4383729.96645  24028474.644    24028482.761
  23122250.902   -11121228.30749  -8656150.77346  23122249.899    23122256.511
  20693610.637   -19254406.86249 -14990465.72248  20693610.092    20693615.644
  21644631.745   -16679404.45249 -12985536.52147  21644631.613    21644636.175
  22228712.615   -11794798.88649  -9173801.27447  22228711.923    22228717.168
  23927880.933    -4945547.12449  -3700564.23345  23927880.093    23927887.291
  20721938.406   -20262905.33449 -15771104.10747  20721937.661    20721942.977
 04  7 19  2 14 30.0000000  0  8G19G31G10G27G13G28G 3G 8
  22424447.244   -15978162.38049 -12438137.35346  22424445.959    22424450.242
  24006552.717    -6059429.59749  -4473496.59345  24006552.280    24006560.872
  23123811.391   -11113028.37849  -8649761.22346  23123810.359    23123816.862
  20693542.846   -19254762.89449 -14990743.15348  20693542.339    20693547.905
  21660060.469   -16598325.67049 -12922358.26947  21660060.402    21660065.031
  22214309.288   -11870489.43349  -9232780.87847  22214308.545    22214313.739
  23941032.666    -4876432.53649  -3646708.77445  23941032.118    23941039.367
  20714498.655   -20302001.22949 -15801568.42647  20714497.922    20714503.239
 04  7 19  2 15  0.0000000  0  8G19G31G10G27G13G28G 3G 8
  22423389.497   -15983720.29049 -12442468.19647  22423388.261    22423392.570
  23984634.369    -6174610.14049  -4563247.55845  23984634.013    23984642.382
  23125479.679   -11104261.06149  -8642929.56846  23125478.684    23125485.216
  20693517.199   -19254897.59849 -14990848.11748  20693516.677    20693522.280
  21675561.544   -16516866.68049 -12858883.74047  21675561.441    21675566.226
  22199962.742   -11945879.67449  -9291526.47146  22199962.047    22199967.348
  23954268.525    -4806877.95849  -3592510.44945  23954267.936    23954275.253
  20707105.434   -20340852.84349 -15831842.39747  20707104.720    20707110.026
 04  7 19  2 15 30.0000000  0  8G19G31G10G27G13G28G 3G 8
  22422439.683   -15988711.39249 -12446357.35647  22422438.529    22422442.782
  23962720.565    -6289767.92349  -4652980.75345  23962720.094    23962728.471
  23127255.867   -11094927.58449  -8635656.74746  23127254.875    23127261.476
  20693533.746   -19254810.60049 -14990780.32348  20693533.235    20693538.826
  21691134.531   -16435029.57249 -12795114.58647  21691134.490    21691139.360
  22185673.524   -12020969.12349  -9350037.67746  22185672.928    22185678.155
  23967587.780    -4736885.59649  -3537970.98445  23967587.224    23967594.277
  20699758.764   -20379459.99049 -15861925.87247  20699758.026    20699763.350
 04  7 19  2 16  0.0000000  0  8G19G31G10G27G13G28G 3G 8
  22421597.710   -15993136.16249 -12449805.22147  22421596.512    22421600.744
  23940811.708    -6404900.85149  -4742694.59145  23940811.270    23940819.309
  23129139.463   -11085029.76649  -8627944.16546  23129138.381    23129145.059
  20693592.426   -19254502.31449 -14990540.09948  20693591.894    20693597.472
  21706779.180   -16352816.47649 -12731052.46447  21706779.149    21706783.961
  22171441.775   -12095757.88749  -9408314.58347  22171441.170    22171446.165
  23980989.864    -4666458.56449  -3483092.83645  23980989.187    23980996.097
  20692458.514   -20417822.62949 -15891818.82647  20692457.820    20692463.167
 04  7 19  2 16 30.0000000  0  8G19G31G10G27G13G28G 3G 8
  22420863.657   -15996993.12949 -12452810.64047  22420862.560    22420866.771
  23918908.153    -6520005.29249  -4832386.23645  23918907.685    23918915.576
  23131130.360   -11074567.74849  -8619791.94046  23131129.282    23131135.878
  20693693.489   -19253971.26049 -14990126.29048  20693692.974    20693698.539
  21722495.256   -16270228.22849 -12666698.02847  21722495.269    21722500.001
  22157267.570   -12170244.21249  -9466355.81347  22157266.893    22157271.937
  23994474.120    -4595598.15249  -3427876.97445  23994473.502    23994480.543
  20685205.051   -20455939.83249 -15921520.52847  20685204.361    20685209.698
 04  7 19  2 17  0.0000000  0  8G19G31G10G27G13G28G 3G 8
  22420238.101   -16000281.31049 -12455372.84747  22420236.883    22420241.051
  23897010.717    -6635077.53749  -4922052.77945  23897010.094    23897017.915
  23133228.575   -11063541.64849  -8611200.19546  23133227.460    23133234.005
  20693837.196   -19253216.13649 -14989537.87948  20693836.675    20693842.246
  21738282.468   -16187266.05649 -12602052.22847  21738282.500    21738287.224
  22143151.024   -12244426.63949  -9524160.26447  22143150.356    22143155.489
  24008040.229    -4524305.90349  -3372324.60145  24008039.910    24008047.006
  20677998.625   -20493809.98749 -15951029.72847  20677997.890    20678003.222
 04  7 19  2 17 30.0000000  0  9G19G31G29G10G27G13G28G 3G 8
  22419720.514   -16003001.00649 -12457492.08247  22419719.331    22419723.515
  23875119.791    -6750115.72949  -5011692.81845  23875118.970    23875126.926
                  -1473954.91049   -923042.06243
  23135433.551   -11051953.57849  -8602170.54846  23135432.484    23135438.986
  20694023.426   -19252237.37549 -14988775.20648  20694022.906    20694028.487
  21754140.410   -16103932.24749 -12537116.83147  21754140.432    21754145.132
  22129092.255   -12318305.18649  -9581727.92047  22129091.589    22129096.917
  24021688.135    -4452585.03349  -3316438.26245  24021687.912    24021695.184
  20670839.073   -20531433.45349 -15980346.70347  20670838.356    20670843.690
 04  7 19  2 18  0.0000000  0  8G19G31G10G27G13G28G 3G 8
  22419311.404   -16005151.05349 -12459167.43747  22419310.234    22419314.320
  23853235.841    -6865116.42649  -5101303.63945  23853234.780    23853242.881
  23137745.524   -11039803.74949  -8592703.16946  23137744.473    23137750.946
  20694252.469   -19251033.81249 -14987837.36448  20694251.947    20694257.493
  21770068.876   -16020228.19249 -12471892.93047  21770068.815    21770073.554
  22115091.679   -12391878.39649  -9639057.65247  22115091.031    22115096.440
  24035417.444    -4380437.30349  -3260219.27845  24035417.246    24035424.415
  20663726.766   -20568808.66749 -16009470.22547  20663726.090    20663731.433
 04  7 19  2 18 30.0000000  0  9G19G31G29G10G27G13G28G 3G 8
  22419010.441   -16006732.90349 -12460400.04047  22419009.263    22419013.253
  23831359.181    -6980078.27149  -5190884.20845  23831357.944    23831366.039
                  -1676395.61049  -1080786.90143
  23140163.776   -11027094.86349  -8582800.12546  23140162.789    23140169.397
  20694524.016   -19249606.52649 -14986725.19248  20694523.520    20694529.093
  21786067.138   -15936157.18949 -12406383.08047  21786066.990    21786071.781
  22101149.264   -12465147.13849  -9696150.13047  22101148.483    22101153.813
  24049227.601    -4307866.53649  -3203670.63145  24049227.226    24049234.212
  20656661.565   -20605936.64149 -16038401.10147  20656660.831    20656666.178
 04  7 19  2 19  0.0000000  0  9G19G31G29G10G27G13G28G 3G 8
  22418817.769   -16007744.88349 -12461188.59347  22418816.656    22418820.664
  23809490.802    -7094997.13949  -5280431.28245  23809489.454    23809497.615
                  -1777499.52749   -951996.12443
  23142688.599   -11013826.70849  -8572461.31846  23142687.611    23142694.288
  20694838.580   -19247953.46249 -14985437.08848  20694838.112    20694843.674
  21802134.894   -15851719.45549 -12340587.46847  21802134.936    21802139.769
  22087265.003   -12538109.14449  -9753003.59947  22087264.265    22087269.530
  24063117.748    -4234873.82749  -3146793.26245  24063117.251    24063124.467
  20649643.776   -20642815.65849 -16067137.98948  20649643.010    20649648.315
 04  7 19  2 19 30.0000000  0  9G19G31G29G10G27G13G28G 3G 8
  22418733.967   -16008185.76249 -12461532.11947  22418732.814    22418736.760
  23787631.302    -7209869.32749  -5369941.95345  23787629.956    23787637.823
                  -1878521.86449  -1030715.30943
  23145319.978   -10999999.52949  -8561686.89846  23145318.929    23145325.555
  20695196.364   -19246073.39549 -14983972.09848  20695195.864    20695201.411
  21818272.552   -15766915.74349 -12274506.68747  21818272.554    21818277.402
  22073439.326   -12610763.00449  -9809616.96447  22073438.687    22073443.832
  24077087.525    -4161460.65049  -3089588.22545  24077087.239    24077094.519
  20642673.666   -20679443.97749 -16095679.52848  20642672.895    20642678.184
 04  7 19  2 20  0.0000000  0  9G19G31G29G10G27G13G28G 3G 8
  22418758.841   -16008055.08149 -12461430.28847  22418757.657    22418761.622
  23765781.274    -7324691.63549  -5459413.76545  23765780.212    23765787.690
                  -1979460.29949  -1109368.40544                  24668727.954
  23148057.398   -10985614.15949  -8550477.51346  23148056.384    23148063.069
  20695597.490   -19243965.53149 -14982329.59748  20695596.986    20695602.547
  21834479.605   -15681747.84149 -12208142.11847  21834479.484    21834484.391
  22059672.496   -12683107.58249  -9865989.31747  22059671.847    22059677.032
  24091137.254    -4087629.11749  -3032057.23445  24091136.973    24091143.881
  20635751.222   -20715821.21049 -16124025.41348  20635750.477    20635755.795
 04  7 19  2 20 30.0000000  0  9G19G31G29G10G27G13G28G 3G 8
  22418892.340   -16007353.23949 -12460883.39247  22418891.204    22418895.171
  23743941.445    -7439461.88249  -5548844.99945  23743940.402    23743947.643
  24649531.681    -2080313.30149  -1187955.08144  24649528.616    24649535.792
  23150900.813   -10970672.41849  -8538834.60246  23150899.746    23150906.542
  20696041.998   -19241629.81549 -14980509.55848  20696041.479    20696047.012
  21850755.328   -15596218.18049 -12141495.66847  21850755.287    21850760.218
  22045964.649   -12755142.72049  -9922120.54747  22045964.017    22045969.181
  24105265.928    -4013382.00049  -2974202.35245  24105265.792    24105272.591
  20628876.688   -20751946.80649 -16152175.21348  20628875.966    20628881.252
 04  7 19  2 21  0.0000000  0  9G19G31G29G10G27G13G28G 3G 8
  22419134.882   -16006079.30749 -12459890.71547  22419133.637    22419137.575
  23722111.469    -7554176.54249  -5638232.89645  23722110.615    23722118.137
  24630356.549    -2181078.23749  -1266473.15944  24630354.760    24630359.852
  23153849.894   -10955174.88849  -8526758.60746  23153848.744    23153855.755
  20696530.004   -19239065.21549 -14978511.16748  20696529.511    20696535.011
  21867099.862   -15510327.94949 -12074568.25847  21867099.702    21867104.634
  22032316.068   -12826867.11849  -9978009.64647  22032315.375    22032320.452
  24119473.430    -3938721.01849  -2916025.05045  24119473.246    24119480.364
  20622050.326   -20787819.55749 -16180127.99648  20622049.612    20622054.894
 04  7 19  2 21 30.0000000  0  9G19G31G29G10G27G13G28G 3G 8
  22419486.154   -16004232.90149 -12458451.96247  22419484.993    22419488.939
  23700292.827    -7668832.67649  -5727575.23445  23700292.080    23700299.672
  24611198.302    -2281753.01849  -1344920.98244  24611195.823    24611202.671
  23156904.385   -10939122.66249  -8514250.39446  23156903.409    23156910.351
  20697061.689   -19236271.18549 -14976334.00248  20697061.193    20697066.691
  21883512.528   -15424078.73949 -12007361.12847  21883512.399    21883517.298
  22018726.640   -12898280.23949 -10033656.18847  22018725.884    22018730.973
  24133759.521    -3863648.41449  -2857526.96645  24133759.236    24133766.259
  20615272.161   -20823439.23349 -16207883.58048  20615271.415    20615276.708
 04  7 19  2 22  0.0000000  0  9G19G31G29G10G27G13G28G 3G 8
  22419946.451   -16001814.37149 -12456567.38647  22419945.235    22419949.168
  23678485.388    -7783427.84149  -5816870.08945  23678484.806    23678492.754
  24592058.055    -2382335.94849  -1423297.25444  24592057.792    24592062.394
  23160064.306   -10922517.40049  -8501311.24746  23160063.291    23160070.172
  20697637.054   -19233247.36949 -14973977.77848  20697636.624    20697642.129
  21899993.093   -15337472.72749 -11939875.97046  21899993.020    21899997.818
  22005196.369   -12969381.55649 -10089059.78647  22005195.660    22005200.739
  24148123.271    -3788167.16249  -2798710.45045  24148122.862    24148129.993
  20608542.172   -20858805.32949 -16235441.57148  20608541.444    20608546.796
 04  7 19  2 22 30.0000000  0  9G19G31G29G10G27G13G28G 3G 8
  22420515.474   -15998823.95649 -12454237.19547  22420514.281    22420518.184
  23656690.756    -7897959.37949  -5906115.34645  23656690.123    23656697.799
  24572935.695    -2482825.24249  -1501600.55144  24572935.450    24572940.529
  23163329.290   -10905360.67049  -8487942.37546  23163328.171    23163334.860
  20698256.248   -19229993.72149 -14971442.46848  20698255.766    20698261.259
  21916541.079   -15250512.10449 -11872114.48946  21916541.024    21916545.817
  21991725.519   -13040170.68749 -10144220.11147  21991724.786    21991729.996
  24162564.363    -3712280.02049  -2739577.62245  24162563.665    24162570.775
  20601860.464   -20893917.56749 -16262801.74548  20601859.779    20601865.185
 04  7 19  2 23  0.0000000  0  9G19G31G29G10G27G13G28G 3G 8
  22421193.409   -15995261.41749 -12451461.18147  22421192.222    22421196.145
  23634909.043    -8012424.54349  -5995308.90945  23634908.253    23634915.695
  24553831.298    -2583218.82949  -1579829.26245  24553831.257    24553836.793
  23166698.821   -10887653.71649  -8474144.78346  23166697.739    23166704.407
  20698919.307   -19226509.45549 -14968727.45948  20698918.817    20698924.329
  21933156.216   -15163198.79149 -11804078.18047  21933156.172    21933161.021
  21978314.290   -13110647.09349 -10199136.77147  21978313.510    21978318.735
  24177081.985    -3635988.98449  -2680130.14245  24177081.335    24177088.712
  20595227.408   -20928774.72449 -16289963.16348  20595226.711    20595232.062
 04  7 19  2 23 30.0000000  0  9G19G31G29G10G27G13G28G 3G 8
  22421980.475   -15991125.65949 -12448238.50847  22421979.237    22421983.182
  23613140.523    -8126819.43449  -6084447.64945  23613139.643    23613147.070
  24534745.236    -2683513.57649  -1657980.96344  24534745.461    24534751.766
  23170172.727   -10869397.17549  -8459918.95046  23170171.734    23170178.546
  20699626.534   -19222793.30449 -14965831.75048  20699625.977    20699631.479
  21949838.311   -15075533.67949 -11735767.73247  21949838.263    21949843.238
  21964962.953   -13180809.00649 -10253808.35847  21964962.173    21964967.324
  24191676.381    -3559295.89749  -2620369.32845  24191675.791    24191682.929
  20588643.023   -20963376.17249 -16316925.32048  20588642.280    20588647.633
 04  7 19  2 24  0.0000000  0  9G19G31G29G10G27G13G28G 3G 8
  22422876.392   -15986417.37849 -12444569.71547  22422875.187    22422879.108
  23591385.939    -8241141.87149  -6173529.95445  23591384.934    23591392.235
  24515679.050    -2783708.20648  -1736054.66944  24515678.649    24515685.476
  23173751.120   -10850592.73749  -8445266.15146  23173750.087    23173756.908
  20700377.771   -19218845.39549 -14962755.46048  20700377.247    20700382.732
  21966586.880   -14987519.38849 -11667185.20447  21966586.918    21966591.964
  21951671.399   -13250656.48749 -10308234.93347  21951670.664    21951675.758
  24206346.634    -3482203.91349  -2560297.70845  24206346.075    24206353.079
  20582107.330   -20997721.32449 -16343687.76848  20582106.604    20582111.973
 04  7 19  2 24 30.0000000  0  9G19G31G29G10G27G13G28G 3G 8
  22423881.456   -15981136.09649 -12440454.42746  22423880.191    22423884.162
  23569645.282    -8355388.45149  -6262553.16745  23569644.475    23569651.747
  24496631.275    -2883800.00948  -1814048.28444  24496631.545    24496638.427
  23177433.511   -10831241.37849  -8430187.16846  23177432.527    23177439.447
  20701173.330   -19214664.63449 -14959497.72548  20701172.796    20701178.306
  21983401.802   -14899157.25549 -11598331.61847  21983401.758    21983406.835
  21938439.936   -13320188.32849 -10362415.54347  21938439.224    21938444.254
  24221092.344    -3404715.15849  -2499916.88745  24221091.887    24221098.626
  20575620.675   -21031809.29049 -16370249.81748  20575619.935    20575625.283
 04  7 19  2 25  0.0000000  0  9G19G31G29G10G27G13G28G 3G 8
  22424995.557   -15975281.17649 -12435892.14946  22424994.270    22424998.357
  23547919.507    -8469555.84649  -6351514.65645  23547918.926    23547926.296
  24477604.299    -2983786.43549  -1891959.71944  24477604.346    24477611.422
  23181219.849   -10811344.01949  -8414682.73246  23181218.856    23181225.856
  20702013.324   -19210250.01349 -14956057.76248  20702012.855    20702018.375
  22000282.590   -14810448.50949 -11529207.94646  22000282.621    22000287.531
  21925268.702   -13389403.61049 -10416349.49747  21925267.953    21925272.934
  24235913.037    -3326831.21849  -2439228.18045  24235912.537    24235919.582
  20569183.041   -21065639.09349 -16396610.69248  20569182.272    20569187.699
 04  7 19  2 25 30.0000000  0  9G19G31G29G10G27G13G28G 3G 8
  22426218.615   -15968853.22749 -12430883.34846  22426217.393    22426221.494
  23526209.287    -8583641.52649  -6440412.51145  23526208.765    23526216.409
  24458598.561    -3083665.64749  -1969787.62944  24458597.946    24458604.558
  23185109.667   -10790902.59549  -8398754.37746  23185108.733    23185115.697
  20702897.994   -19205601.31349 -14952435.39948  20702897.482    20702902.966
  22017228.804   -14721395.75049 -11459816.21646  22017228.810    22017233.640
  21912157.684   -13458301.95549 -10470036.47947  21912156.949    21912161.948
  24250808.385    -3248555.34449  -2378234.01445  24250807.935    24250815.193
  20562794.641   -21099209.98549 -16422769.82248  20562793.914    20562799.289
 04  7 19  2 26  0.0000000  0  9G19G31G29G10G27G13G28G 3G 8
  22427550.991   -15961852.21449 -12425427.99746  22427549.641    22427553.771
  23504515.653    -8697642.60449  -6529244.44345  23504514.963    23504522.636
  24439612.682    -3183435.85749  -2047530.59144  24439612.418    24439618.756
  23189102.965   -10769918.38949  -8382403.06046  23189101.919    23189108.791
  20703827.222   -19200718.21549 -14948630.38848  20703826.689    20703832.180
  22034239.983   -14632000.82349 -11390157.86446  22034240.043    22034244.914
  21899107.033   -13526882.93849 -10523476.16847  21899106.414    21899111.367
  24265777.969    -3169889.75749  -2316936.17945  24265777.572    24265784.870
  20556455.711   -21132521.74249 -16448727.02948  20556454.932    20556460.270
 04  7 19  2 26 30.0000000  0  9G19G31G29G10G27G13G28G 3G 8
  22428992.183   -15954278.17749 -12419526.14546  22428990.943    22428995.152
  23482838.841    -8811556.30149  -6618008.26745  23482837.920    23482845.424
  24420648.430    -3283094.82949  -2125186.83445  24420648.227    24420654.400
  23193198.939   -10748393.14749  -8365630.16846  23193197.963    23193204.827
  20704801.143   -19195600.19049 -14944642.32148  20704800.605    20704806.143
  22051316.065   -14542265.62849 -11320234.36446  22051316.131    22051320.867
  21886117.020   -13595146.01049 -10576668.11947  21886116.407    21886121.276
  24280821.343    -3090837.04749  -2255336.71845  24280820.918    24280828.168
  20550165.973   -21165574.13349 -16474482.13048  20550165.217    20550170.608
 04  7 19  2 27  0.0000000  0  9G19G31G29G10G27G13G28G 3G 8
  22430542.522   -15946131.68549 -12413178.21846  22430541.219    22430545.352
  23461179.112    -8925379.80249  -6706701.82745  23461178.184    23461185.420
  24401705.327    -3382640.72449  -2202754.99845  24401705.100    24401711.743
  23197397.888   -10726328.36349  -8348436.82646  23197396.836    23197403.720
  20705819.843   -19190246.78049 -14940470.83348  20705819.310    20705824.842
  22068456.454   -14452192.62049 -11250047.62946  22068456.455    22068461.170
  21873187.553   -13663090.80049 -10629612.08047  21873186.898    21873191.723
  24295938.024    -3011399.95749  -2193437.73045  24295937.433    24295944.518
  20543925.794   -21198366.36649 -16500034.51648  20543925.047    20543930.410
 04  7 19  2 27 30.0000000  0  9G19G31G29G10G27G13G28G 3G 8
  22432201.610   -15937412.11849 -12406383.75046  22432200.420    22432204.639
  23439537.028    -9039109.51649  -6795322.28245  23439536.128    23439543.408
  24382784.645    -3482070.54849  -2280232.71845  24382784.569    24382791.375
  23201699.178   -10703725.04649  -8330823.85546  23201698.158    23201704.966
  20706883.631   -19184656.77249 -14936114.98648  20706883.083    20706888.588
  22085660.932   -14361782.80549 -11179598.46646  22085660.935    22085665.648
  21860318.805   -13730715.91949 -10682306.94647  21860318.187    21860323.120
  24311127.151    -2931580.36949  -2131240.67345  24311126.598    24311133.717
  20537735.511   -21230896.40149 -16525382.59048  20537734.772    20537740.136
 04  7 19  2 28  0.0000000  0  9G19G31G29G10G27G13G28G 3G 8
  22433970.072   -15928118.91849 -12399142.28446  22433968.916    22433973.152
  23417913.113    -9152742.07849  -6883867.02545  23417912.238    23417919.828
  24363886.483    -3581381.70449  -2357617.99845  24363886.301    24363893.222
  23206102.704   -10680584.32849  -8312792.15646  23206101.700    23206108.440
  20707992.550   -19178829.13249 -14931573.96648  20707992.015    20707997.544
  22102929.183   -14271037.52649 -11108887.88946  22102929.230    22102933.923
  21847511.108   -13798020.31549 -10734751.88547  21847510.514    21847515.529
  24326388.899    -2851380.30849  -2068747.17145  24326388.262    24326395.377
  20531595.157   -21263164.05549 -16550526.20748  20531594.433    20531599.820
 04  7 19  2 28 30.0000000  0  9G19G31G29G10G27G13G28G 3G 8
  22435847.539   -15918252.55149 -12391454.19746  22435846.337    22435850.618
  23396308.723    -9266275.00249  -6972334.13945  23396307.623    23396315.140
  24345011.432    -3680572.33649  -2434909.37845  24345011.240    24345017.947
  23210607.999   -10656907.92549  -8294343.00046  23210607.081    23210614.007
  20709146.790   -19172763.68149 -14926847.64548  20709146.236    20709151.753
  22120260.824   -14179959.22749 -11037917.81146  22120260.872    22120265.650
  21834764.676   -13865003.88549 -10786946.82947  21834764.008    21834768.967
  24341722.363    -2770802.52849  -2005959.34845  24341721.707    24341728.826
  20525504.882   -21295168.86449 -16575465.01548  20525504.129    20525509.501
 04  7 19  2 29  0.0000000  0  9G19G31G29G10G27G13G28G 3G 8
  22437833.985   -15907813.18749 -12383319.62446  22437832.882    22437837.137
  23374723.804    -9379705.07249  -7060721.11445  23374722.747    23374729.855
  24326159.264    -3779640.15548  -2512105.03945  24326159.330    24326165.997
  23215215.000   -10632697.24149  -8275477.55946  23215214.052    23215221.184
  20710346.367   -19166459.68049 -14921935.44148  20710345.846    20710351.321
  22137655.556   -14088550.01549 -10966689.88646  22137655.510    22137660.380
  21822079.360   -13931665.82849 -10838891.15747  21822078.659    21822083.617
  24357127.107    -2689849.40049  -1942879.03445  24357126.492    24357133.794
  20519464.810   -21326909.60549 -16600198.05648  20519464.051    20519469.413
 04  7 19  2 29 30.0000000  0  9G19G31G29G10G27G13G28G 3G 8
  22439929.561   -15896800.51649 -12374738.32946  22439928.441    22439932.773
  23353158.850    -9493028.74949  -7149025.20145  23353157.915    23353164.816
  24307331.292    -3878582.50049  -2589202.84645  24307331.304    24307337.728
  23219923.727   -10607953.47649  -8256196.74446  23219922.741    23219929.786
  20711591.591   -19159915.91149 -14916836.40048  20711591.104    20711596.560
  22155112.938   -13996810.78649 -10895204.81946  22155112.884    22155117.800
  21809455.364   -13998005.06049 -10890584.01247  21809454.649    21809459.737
  24372603.272    -2608522.64449  -1879507.59945  24372602.608    24372609.792
  20513475.103   -21358385.48549 -16624724.71148  20513474.387    20513479.724
 04  7 19  2 30  0.0000000  0  9G19G31G29G10G27G13G28G 3G 8
  22442133.839   -15885215.64649 -12365711.15246  22442132.935    22442137.298
  23331614.353    -9606244.05549  -7237244.85245  23331613.660    23331620.467
  24288527.685    -3977398.17849  -2666202.05044  24288527.362    24288533.502
  23224733.447   -10582679.07249  -8236502.43546  23224732.403    23224739.325
  20712882.399   -19153132.98649 -14911551.00948  20712881.890    20712887.278
  22172632.539   -13904744.83049 -10823465.15946  22172632.466    22172637.369
  21796892.599   -14064021.88649 -10942025.66647  21796891.926    21796897.181
  24388149.786    -2526826.03649  -1815847.95845  24388149.096    24388156.154
  20507535.856   -21389596.67749 -16649045.11848  20507535.119    20507540.449
 04  7 19  2 30 30.0000000  0  9G19G31G29G10G27G13G28G 3G 8
  22444447.675   -15873057.60149 -12356237.33546  22444446.553    22444450.852
  23310091.344    -9719347.03949  -7325376.95045  23310090.621    23310097.848
  24269748.137    -4076083.89949  -2743099.94445  24269747.943    24269753.810
  23229643.744   -10556874.64549  -8216395.10046  23229642.803    23229649.801
  20714218.981   -19146109.09749 -14906077.84848  20714218.495    20714223.857
  22190214.333   -13812352.71649 -10751471.35346  22190214.144    22190218.978
  21784391.517   -14129714.88849 -10993214.98147  21784390.890    21784396.098
  24403766.205    -2444761.10449  -1751901.30445  24403765.545    24403772.528
  20501647.239   -21420541.30349 -16673157.81048  20501646.515    20501651.906
 04  7 19  2 31  0.0000000  0  9G19G31G29G10G27G13G28G 3G 8
  22446870.049   -15860327.05249 -12346317.43446  22446869.006    22446873.376
  23288590.260    -9832335.05749  -7413419.45145  23288589.535    23288597.119
  24250994.284    -4174637.50349  -2819894.90045  24250993.866    24250999.816
  23234654.919   -10530541.85549  -8195876.04646  23234653.903    23234660.925
  20715601.551   -19138843.93749 -14900416.68948  20715601.018    20715606.412
  22207857.430   -13719637.20149 -10679225.53746  22207857.310    22207862.084
  21771952.315   -14195083.80549 -11044151.75447  21771951.681    21771956.682
  24419452.192    -2362330.48449  -1687669.70545  24419451.525    24419458.572
  20495809.488   -21451219.22549 -16697062.68448  20495808.747    20495814.160
 04  7 19  2 31 30.0000000  0  9G19G31G29G10G27G13G28G 3G 8
  22449401.566   -15847024.51349 -12335951.81646  22449400.503    22449404.736
  23267111.795    -9945205.13549  -7501370.08245  23267111.214    23267118.583
  24232265.578    -4273057.07349  -2896585.45145  24232265.242    24232271.313
  23239766.088   -10503682.78749  -8174946.92546  23239765.106    23239772.111
  20717030.020   -19131337.10749 -14894567.21448  20717029.499    20717034.899
  22225561.848   -13626600.05949 -10606729.09646  22225561.704    22225566.479
  21759574.858   -14260128.10649 -11094835.58547  21759574.190    21759579.096
  24435207.001    -2279536.95149  -1623155.30345  24435206.509    24435213.756
  20490022.555   -21481629.65249 -16720759.12048  20490021.803    20490027.224
 04  7 19  2 32  0.0000000  0  9G19G31G29G10G27G13G28G 3G 8
  22452041.776   -15833150.19049 -12325140.65546  22452040.646    22452044.957
  23245656.567   -10057954.35549  -7589226.53345  23245655.808    23245662.943
  24213562.614    -4371340.70449  -2973170.03445  24213562.390    24213568.663
  23244977.139   -10476298.99249  -8153608.90146  23244976.128    23244983.075
  20718504.623   -19123588.02349 -14888528.97248  20718504.118    20718509.523
  22243327.105   -13533243.61049 -10533983.83846  22243326.925    22243331.727
  21747259.119   -14324847.38649 -11145266.16047  21747258.466    21747263.468
  24451030.680    -2196382.93749  -1558360.00945  24451030.284    24451037.441
  20484286.717   -21511771.80749 -16744246.50748  20484285.964    20484291.375
 04  7 19  2 32 30.0000000  0  9G19G31G29G10G27G13G28G 3G 8
  22454790.710   -15818704.11749 -12313883.97246  22454789.622    22454794.014
  23224224.802   -10170579.48749  -7676986.29745  23224224.005    23224230.727
  24194886.430    -4469485.55149  -3049646.50345  24194886.039    24194892.377
  23250287.659   -10448392.06349  -8131863.22746  23250286.702    23250293.499
  20720025.421   -19115595.88149 -14882301.33148  20720024.945    20720030.431
  22261152.648   -13439569.56449 -10460991.10446  22261152.565    22261157.409
  21735005.335   -14389240.84749 -11195442.85447  21735004.690    21735009.749
  24466922.669    -2112871.08049  -1493285.85745  24466922.082    24466929.316
  20478602.088   -21541644.64949 -16767524.03348  20478601.329    20478606.744
 04  7 19  2 33  0.0000000  0  9G19G31G29G10G27G13G28G 3G 8
  22457648.524   -15803687.15949 -12302182.45346  22457647.264    22457651.575
  23202816.922   -10283078.13649  -7764647.47745  23202815.905    23202822.493
  24176236.718    -4567490.05449  -3126013.59945  24176236.180    24176242.566
  23255697.368   -10419964.14949  -8109711.63046  23255696.376    23255703.172
  20721592.505   -19107360.64849 -14875884.27648  20721592.020    20721597.545
  22279038.270   -13345580.00049 -10387752.52646  22279038.173    22279043.150
  21722813.601   -14453308.65249 -11245365.77547  21722812.979    21722817.987
  24482882.195    -2029004.08049  -1427935.01245  24482881.314    24482888.744
  20472968.717   -21571248.10949 -16790591.66448  20472967.939    20472973.376
 04  7 19  2 33 30.0000000  0  9G19G31G29G10G27G13G28G 3G 8
  22460614.876   -15788098.61749 -12290035.53146  22460613.681    22460617.922
  23181433.574   -10395446.07849  -7852206.82745  23181432.738    23181439.430
  24157614.571    -4665350.54149  -3202268.47445  24157613.802    24157619.928
  23261206.005   -10391015.82549  -8087154.52646  23261205.053    23261211.894
  20723206.234   -19098880.42449 -14869276.30948  20723205.773    20723211.315
  22296983.826   -13251276.15749 -10314269.06146  22296983.649    22296988.775
  21710684.291   -14517048.85249 -11295033.42847  21710683.636    21710688.570
  24498908.803    -1944783.28149  -1362308.44645  24498907.989    24498915.533
  20467386.865   -21600580.49349 -16813448.06548  20467386.143    20467391.565
 04  7 19  2 34  0.0000000  0  9G19G31G29G10G27G13G28G 3G 8
  22463689.939   -15771939.11149 -12277443.71046  22463688.702    22463693.007
  23160076.163   -10507680.24849  -7939661.90345  23160075.253    23160082.076
  24139020.008    -4763065.19149  -3278409.68245  24139019.334    24139025.220
  23266813.277   -10361548.95249  -8064193.34346  23266812.391    23266819.230
  20724866.674   -19090154.68049 -14862477.02948  20724866.194    20724871.784
  22314988.658   -13156660.12149 -10240542.32746  22314988.475    22314993.569
  21698617.307   -14580461.13149 -11344445.55547  21698616.640    21698621.576
  24515002.012    -1860211.52649  -1296408.46145  24515001.568    24515008.915
  20461856.875   -21629640.84949 -16836092.49548  20461856.152    20461861.540
 04  7 19  2 34 30.0000000  0  9G19G31G29G10G27G13G28G 3G 8
  22466873.533   -15755209.17749 -12264407.39446  22466872.318    22466876.481
  23138744.843   -10619777.99149  -8027010.71445  23138743.900    23138750.730
  24120453.807    -4860631.62349  -3354435.41345  24120453.198    24120458.721
  23272518.763   -10331565.55949  -8040829.67246  23272517.871    23272525.060
  20726573.896   -19081183.14549 -14855486.22348  20726573.432    20726579.023
  22333052.470   -13061734.09349 -10166574.04746  22333052.349    22333057.358
  21686612.722   -14643545.21149 -11393601.95347  21686612.051    21686617.029
  24531161.500    -1775291.71149  -1230237.24245  24531161.199    24531168.746
  20456378.635   -21658429.02649 -16858524.83248  20456377.904    20456383.255
 04  7 19  2 35  0.0000000  0  9G19G31G29G10G27G13G28G 3G 8
  22470165.628   -15737909.27349 -12250926.93446  22470164.379    22470168.503
  23117439.972   -10731736.52949  -8114251.07545  23117439.040    23117445.849
  24101916.309    -4958048.00549  -3430344.23545  24101915.432    24101920.905
  23278322.489   -10301067.54149  -8017065.00346  23278321.593    23278328.625
  20728328.039   -19071965.19749 -14848303.40848  20728327.567    20728333.144
  22351174.779   -12966500.47649 -10092366.07046  22351174.734    22351179.758
  21674670.649   -14706301.02049 -11442502.55747  21674669.998    21674674.973
  24547387.146    -1690026.57249  -1163796.90345  24547386.799    24547394.345
  20450952.390   -21686944.32249 -16880744.53548  20450951.661    20450956.919
 04  7 19  2 35 30.0000000  0  9G19G31G29G10G27G13G28G 3G 8
  22473566.073   -15720039.90349 -12237002.75146  22473564.795    22473568.943
  23096161.775   -10843552.89749  -8201380.60445  23096160.811    23096167.939
  24083407.613    -5055312.00449  -3506134.35045  24083406.634    24083412.618
  23284223.772   -10270056.84549  -7992900.83746  23284222.768    23284229.756
  20730129.173   -19062500.42149 -14840928.25848  20730128.681    20730134.184
  22369355.356   -12870961.06849 -10017919.81146  22369355.327    22369360.243
  21662791.237   -14768727.91649 -11491146.85547  21662790.582    21662795.533
  24563677.610    -1604418.46049  -1097089.30645  24563677.410    24563685.337
  20445578.169   -21715186.07149 -16902751.08348  20445577.441    20445582.625
 04  7 19  2 36  0.0000000  0  9G19G31G29G10G27G13G28G 3G 8
  22477074.963   -15701600.54049 -12222634.42346  22477073.716    22477077.836
  23074911.395   -10955223.01449  -8288396.21145  23074910.512    23074917.618
  24064928.160    -5152420.16049  -3581803.01145  24064927.498    24064933.896
  23290222.232   -10238534.32449  -7968337.84546  23290221.245    23290228.302
  20731977.556   -19052787.23849 -14833359.54448  20731977.051    20731982.502
  22387594.086   -12775117.08649  -9943236.22846  22387593.951    22387598.826
  21650974.749   -14830824.45049 -11539533.71647  21650974.033    21650978.939
  24580033.022    -1518469.01149  -1030115.75745  24580033.067    24580040.838
  20440256.380   -21743152.20549 -16924542.86448  20440255.646    20440260.876
 04  7 19  2 36 30.0000000  0  9G19G31G29G10G27G13G28G 3G 8
  22480692.078   -15682592.41249 -12207822.89446  22480690.832    22480694.883
  23053689.582   -11066744.20549  -8375295.76845  23053688.763    23053695.645
  24046478.862    -5249370.86849  -3657349.00545  24046478.160    24046484.839
  23296317.770   -10206502.27149  -7943377.81746  23296316.785    23296323.872
  20733873.302   -19042825.30249 -14825596.99848  20733872.739    20733878.152
  22405890.068   -12678970.94749  -9868317.20446  22405889.916    22405894.959
  21639221.018   -14892590.73949 -11587663.25747  21639220.290    21639225.206
  24596453.303    -1432181.25549   -962878.56645  24596452.890    24596460.753
  20434987.015   -21770842.90649 -16946120.02848  20434986.293    20434991.562
 04  7 19  2 37  0.0000000  0  9G19G31G29G10G27G13G28G 3G 8
  22484417.199   -15663016.09249 -12192568.62446  22484416.053    22484420.162
  23032496.792   -11178113.76449  -8462077.17045  23032495.905    23032502.393
  24028060.240    -5346162.14049  -3732770.74245  24028059.441    24028066.048
  23302509.935   -10173962.48049  -7918022.16546  23302508.969    23302515.974
  20735816.362   -19032614.31249 -14817640.38447  20735815.833    20735821.205
  22424242.921   -12582525.04349  -9793164.59846  22424242.840    22424248.057
  21627530.061   -14954026.55649 -11635535.29047  21627529.353    21627534.297
  24612936.939    -1345558.10049   -895380.06845  24612936.590    24612944.314
  20429770.222   -21798257.73449 -16967482.22248  20429769.465    20429774.691
 04  7 19  2 37 30.0000000  0  8G19G31G29G10G27G13G28G 8
  22488250.853   -15642870.68749 -12176870.89146  22488249.639    22488253.693
  23011333.278   -11289327.21349  -8548736.90945  23011332.486    23011339.079
  24009672.654    -5442789.88549  -3808065.02945  24009671.780    24009678.095
  23308798.657   -10140915.66349  -7892271.40846  23308797.566    23308804.500
  20737807.239   -19022152.26749 -14809488.13947  20737806.695    20737812.072
  22442652.735   -12485780.05649  -9717778.94446  22442652.735    22442658.032
  21615902.370   -15015130.01849 -11683148.34747  21615901.683    21615906.655
  20424606.375   -21825393.82949 -16988627.21648  20424605.630    20424610.866
 04  7 19  2 38  0.0000000  0  8G19G31G29G10G27G13G28G 8
  22492192.361   -15622158.26749 -12160731.35246  22492191.110    22492195.078
  22990199.636   -11400382.90349  -8635273.73145  22990199.057    22990205.818
  23991316.155    -5539253.36149  -3883231.34545  23991315.567    23991321.435
  23315182.914   -10107365.27449  -7866128.29646  23315181.885    23315188.825
  20739845.851   -19011439.88349 -14801140.82747  20739845.244    20739850.523
  22461118.988   -12388739.45749  -9642162.93146  22461119.030    22461124.406
  21604337.823   -15075902.01249 -11730503.12147  21604337.149    21604342.079
  20419495.263   -21852252.44549 -17009555.99248  20419494.578    20419499.791
 04  7 19  2 38 30.0000000  0  8G19G31G29G10G27G13G28G 8
  22496241.517   -15600878.98449 -12144150.10146  22496240.357    22496244.396
  22969096.954   -11511277.57149  -8721685.06945  22969096.345    22969103.231
  23972991.286    -5635550.05549  -3958267.68245  23972990.833    23972996.645
  23321662.864   -10073312.83849  -7839593.91746  23321661.849    23321668.732
  20741932.082   -19000476.39849 -14792597.84847  20741931.490    20741936.812
  22479641.226   -12291404.83849  -9566317.81346  22479641.318    22479646.645
  21592836.593   -15136341.96449 -11777599.15447  21592835.861    21592840.692
  20414437.287   -21878832.45749 -17030267.67648  20414436.560    20414441.712
 04  7 19  2 39  0.0000000  0  8G19G31G29G10G27G13G28G 8
  22500398.507   -15579034.27249 -12127128.24246  22500397.349    22500401.272
  22948025.679   -11622009.02449  -8807969.24946  22948024.973    22948031.753
  23954698.821    -5731678.47449  -4033172.91545  23954698.288    23954703.928
  23328237.893   -10038761.20649  -7812670.57346  23328236.867    23328243.824
  20744066.126   -18989261.92149 -14783859.30047  20744065.562    20744070.857
  22498219.043   -12193779.08149  -9490245.84346  22498219.047    22498224.190
  21581398.355   -15196450.36249 -11824436.82747  21581397.600    21581402.410
  20409432.261   -21905133.84849 -17050762.25048  20409431.535    20409436.738
 04  7 19  2 39 30.0000000  0  8G19G31G29G10G27G13G28G 8
  22504662.830   -15556624.99349 -12109666.47746  22504661.687    22504665.579
  22926985.932   -11732574.34449  -8894123.97746  22926985.208    22926991.982
  23936438.622    -5827636.44149  -4107945.33445  23936438.079    23936443.897
  23334907.498   -10003712.43749  -7785359.85746  23334906.421    23334913.454
  20746248.026   -18977795.96949 -14774924.79347  20746247.452    20746252.764
  22516851.615   -12095865.13949  -9413949.30546  22516851.468    22516856.620
  21570023.164   -15256226.86149 -11871015.88547  21570022.415    21570027.268
  20404480.388   -21931155.86549 -17071039.13748  20404479.683    20404484.931
 04  7 19  2 40  0.0000000  0  8G19G31G29G10G27G13G28G 8
  22509034.712   -15533650.61249 -12091764.36046  22509033.620    22509037.566
  22905978.328   -11842969.05549  -8980145.74646  22905977.663    22905984.591
  23918211.634    -5923420.21849  -4182582.03845  23918211.067    23918216.962
  23341671.534    -9968167.06249  -7757662.20146  23341670.518    23341677.481
  20748478.174   -18966076.53949 -14765792.77347  20748477.598    20748482.915
  22535538.676   -11997663.28849  -9337428.41546  22535538.561    22535543.754
  21558711.405   -15315669.83949 -11917335.06047  21558710.715    21558715.662
  20399582.043   -21956896.60549 -17091096.84848  20399581.334    20399586.658
 04  7 19  2 40 30.0000000  0  8G19G31G29G10G27G13G28G 8
  22513514.040   -15510112.35049 -12073422.86246  22513512.810    22513516.690
  22885003.773   -11953190.64849  -9066032.66146  22885003.002    22885010.074
  23900018.290    -6019027.94549  -4257081.54845  23900017.602    23900023.444
  23348529.626    -9932127.65549  -7729579.55146  23348528.580    23348535.557
  20750756.399   -18954103.68549 -14756463.27747  20750755.901    20750761.278
  22554280.042   -11899176.19749  -9260685.27046  22554279.897    22554285.205
  21547463.273   -15374779.27549 -11963394.32947  21547462.592    21547467.522
  20394737.294   -21982355.59249 -17110935.01248  20394736.578    20394742.020
 04  7 19  2 41  0.0000000  0  8G19G31G29G10G27G13G28G 8
  22518100.460   -15486010.10049 -12054641.89746  22518099.294    22518103.117
  22864062.766   -12063235.53849  -9151781.84746  22864061.999    22864069.160
  23881858.620    -6114456.74149  -4331441.61645  23881858.004    23881864.121
  23355481.438    -9895595.92049  -7701113.27646  23355480.407    23355487.240
  20753083.185   -18941876.00649 -14746935.21648  20753082.700    20753088.129
  22573075.457   -11800405.42949  -9183721.07946  22573075.345    22573080.757
  21536278.729   -15433554.29549 -12009193.01447  21536278.035    21536282.978
  20389946.389   -22007531.70049 -17130552.74748  20389945.714    20389951.194
 04  7 19  2 41 30.0000000  0  8G19G31G29G10G27G13G28G 8
  22522794.238   -15461344.83949 -12035422.22746  22522793.015    22522796.879
  22843156.197   -12173100.75149  -9237391.03345  22843155.293    22843162.282
  23863733.504    -6209704.33149  -4405660.44845  23863733.091    23863739.036
  23362526.546    -9858573.91149  -7672264.98146  23362525.460    23362532.313
  20755458.618   -18929393.03249 -14737208.22948  20755458.125    20755463.582
  22591924.525   -11701352.98949  -9106537.39246  22591924.496    22591929.924
  21525157.917   -15491994.49549 -12054730.80447  21525157.214    21525162.129
  20385209.495   -22032424.20649 -17149949.49848  20385208.814    20385214.272
 04  7 19  2 42  0.0000000  0  8G19G31G29G10G27G13G28G 8
  22527594.832   -15436117.22649 -12015764.35946  22527593.641    22527597.607
  22822284.277   -12282783.23449  -9322857.80745  22822283.322    22822290.112
  23845643.248    -6304768.52449  -4479736.38845  23845642.946    23845648.632
  23369664.389    -9821063.64849  -7643036.20246  23369663.299    23369670.304
  20757882.756   -18916654.07149 -14727281.76848  20757882.297    20757887.740
  22610827.045   -11602021.25949  -9029136.09846  22610826.830    22610832.261
  21514100.783   -15550099.79749 -12100007.63647  21514100.089    21514104.953
  20380526.687   -22057032.67749 -17169124.91848  20380525.985    20380531.457
 04  7 19  2 42 30.0000000  0  8G19G31G29G10G27G13G28G 8
  22532502.341   -15410327.65249 -11995668.59046  22532501.184    22532505.108
  22801447.765   -12392279.36049  -9408179.37346  22801446.887    22801453.664
  23827588.529    -6399646.30149  -4553667.02745  23827588.235    23827593.957
  23376894.865    -9783066.65249  -7613428.18346  23376893.793    23376901.005
  20760355.798   -18903658.07649 -14717155.02248  20760355.335    20760360.779
  22629782.378   -11502411.74049  -8951518.34546  22629782.008    22629787.411
  21503107.596   -15607869.36549 -12145022.84647  21503106.909    21503111.693
  20375898.296   -22081355.34949 -17188077.64548  20375897.579    20375903.090
 04  7 19  2 43  0.0000000  0  8G19G31G29G10G27G13G28G 8
  22537516.594   -15383977.63949 -11975136.12746  22537515.453    22537519.361
  22780647.230   -12501586.86649  -9493353.96146  22780646.536    22780653.041
  23809569.673    -6494335.86749  -4627451.04845  23809569.309    23809574.885
  23384217.600    -9744585.86149  -7583443.15346  23384216.484    23384223.841
  20762877.850   -18890405.09949 -14706828.03348  20762877.339    20762882.779
  22648789.636   -11402527.31149  -8873686.35546  22648789.349    22648794.839
  21492178.283   -15665303.41149 -12189776.62447  21492177.575    21492182.323
  20371324.279   -22105392.22449 -17206807.67448  20371323.546    20371329.101
 04  7 19  2 43 30.0000000  0  8G19G31G29G10G27G13G28G 8
  22542637.560   -15357067.29949 -11954167.03146  22542636.357    22542640.275
  22759883.256   -12610702.09649  -9578378.72946  22759882.601    22759889.070
  23791586.784    -6588834.72249  -4701086.49245  23791586.627    23791592.260
  23391632.169    -9705622.55349  -7553082.14646  23391631.180    23391638.358
  20765448.933   -18876893.98349 -14696299.89347  20765448.389    20765453.840
  22667848.701   -11302369.65249  -8795641.44946  22667848.525    22667854.092
  21481312.933   -15722400.99149 -12234268.21847  21481312.247    21481317.014
  20366804.707   -22129142.37249 -17225314.28248  20366803.985    20366809.585
 04  7 19  2 44  0.0000000  0  8G19G31G29G10G27G13G28G 8
  22547864.758   -15329597.78349 -11932762.21646  22547863.589    22547867.627
  22739156.193   -12719622.16149  -9663251.45046  22739155.541    22739162.285
  23773641.032    -6683140.28749  -4774571.30845  23773640.781    23773646.590
  23399138.148    -9666178.99649  -7522346.94846  23399137.134    23399144.191
  20768069.262   -18863124.37749 -14685570.33447  20768068.675    20768074.105
  22686959.689   -11201941.14449  -8717385.50046  22686959.425    22686964.938
  21470511.692   -15779161.96749 -12278497.52247  21470510.965    21470515.720
  20362339.995   -22152604.61149 -17243596.54448  20362339.256    20362344.821
 04  7 19  2 44 30.0000000  0  8G19G31G29G10G27G13G28G 8
  22553198.159   -15301569.77349 -11910922.22946  22553197.136    22553201.160
  22718466.832   -12828344.04149  -9747969.73646  22718466.114    22718473.166
  23755732.561    -6777250.30649  -4847903.76245  23755732.339    23755738.208
  23406734.851    -9626257.67849  -7491239.42945  23406733.895    23406740.757
  20770738.805   -18849095.47749 -14674638.72347  20770738.247    20770743.659
  22706122.002   -11101243.77949  -8638920.07446  22706121.619    22706126.972
  21459774.500   -15835586.23949 -12322464.45547  21459773.778    21459778.466
  20357930.185   -22175778.39949 -17261654.03648  20357929.459    20357934.981
 04  7 19  2 45  0.0000000  0  8G19G31G29G10G27G13G28G 8
  22558637.884   -15272984.78949 -11888648.21246  22558636.741    22558640.654
  22697816.125   -12936864.98349  -9832531.47046  22697815.309    22697822.300
  23737861.702    -6871162.89949  -4921082.37445  23737861.411    23737867.442
  23414422.030    -9585860.95449  -7459761.47645  23414421.044    23414427.946
  20773457.729   -18834807.23049 -14663505.02747  20773457.235    20773462.611
  22725334.630   -11000280.33749  -8560247.33246  22725334.478    22725339.587
  21449101.280   -15891673.83449 -12366169.04847  21449100.597    21449105.207
  20353575.311   -22198663.59949 -17279486.65848  20353574.564    20353580.039
 04  7 19  2 45 30.0000000  0  8G19G31G29G10G27G13G28G 8
  22564183.209   -15243843.59949 -11865940.80346  22564182.092    22564186.074
  22677204.290   -13045181.94949  -9916934.22346  22677203.319    22677210.202
  23720028.880    -6964875.48949  -4994105.13045  23720028.366    23720034.510
  23422199.272    -9544991.04049  -7427914.77945  23422198.221    23422205.069
  20776226.239   -18820258.75049 -14652168.55447  20776225.728    20776231.136
  22744597.583   -10899052.98949  -8481368.93746  22744597.553    22744602.542
  21438492.162   -15947424.53849 -12409611.12647  21438491.541    21438496.120
  20349275.539   -22221258.98549 -17297093.45048  20349274.830    20349280.256
 04  7 19  2 46  0.0000000  0  8G19G31G29G10G27G13G28G 8
  22569834.397   -15214146.09949 -11842799.89446  22569833.319    22569837.400
  22656631.894   -13153290.76149 -10001174.77646  22656630.981    22656637.678
  23702234.449    -7058384.78649  -5066969.44245  23702234.015    23702240.167
  23430066.266    -9503649.29549  -7395700.46045  23430065.223    23430072.232
  20779044.462   -18805448.52749 -14640628.12447  20779043.987    20779049.403
  22763910.561   -10797562.94349  -8402285.81946  22763910.473    22763915.659
  21427947.574   -16002837.02849 -12452789.66747  21427946.881    21427951.517
  20345031.205   -22243563.32749 -17314473.45448  20345030.448    20345035.900
 04  7 19  2 46 30.0000000  0  8G19G31G29G10G27G13G28G 8
  22575591.195   -15183893.98349 -11819226.82946  22575590.084    22575594.210
  22636099.506   -13261189.07449 -10085251.29346  22636098.625    22636105.123
  23684479.166    -7151688.85949  -5139673.88045  23684478.886    23684484.673
  23438022.625    -9461838.37449  -7363120.55845  23438021.585    23438028.731
  20781912.478   -18790376.49549 -14628883.68747  20781912.042    20781917.552
  22783272.828   -10695812.77049  -8322999.98746  22783272.789    22783278.252
  21417467.216   -16057911.38449 -12495704.72847  21417466.546    21417471.248
  20340842.414   -22265576.08049 -17331626.25548  20340841.628    20340846.969
 04  7 19  2 47  0.0000000  0  9G19G31G29G10G27G26G13G28G 8
  22581453.344   -15153088.23049 -11795222.34946  22581452.206    22581456.351
  22615607.774   -13368873.85149 -10169161.42646  22615606.871    22615613.143
  23666763.813    -7244785.57249  -5212216.70645  23666763.101    23666768.612
  23446067.966    -9419560.55749  -7330176.81645  23446066.895    23446073.931
  20784830.530   -18775042.15049 -14616934.85547  20784830.082    20784835.620
                   -620782.39849   -471469.72443
  22802684.199   -10593804.98849  -8243513.41846  22802684.179    22802689.829
  21407051.239   -16112647.73449 -12538356.40347  21407050.528    21407055.179
  20336709.243   -22287296.00849 -17348550.87548  20336708.470    20336713.811
 04  7 19  2 47 30.0000000  0  9G19G31G29G10G27G26G13G28G 8
  22587420.738   -15121729.85449 -11770787.26046  22587419.535    22587423.679
  22595157.216   -13476342.02149 -10252902.79846  22595156.279    22595162.611
  23649088.097    -7337672.39249  -5284596.00445  23649087.328    23649092.728
  23454201.771    -9376818.22749  -7296871.13945  23454200.646    23454207.635
  20787798.614   -18759444.83549 -14604781.10647  20787798.147    20787803.721
                   -724158.93849   -552024.01643
  22822144.330   -10491541.55949  -8163827.68146  22822144.318    22822149.996
  21396699.576   -16167045.70849 -12580744.40647  21396698.903    21396703.536
  20332631.869   -22308723.06149 -17365247.28248  20332631.102    20332636.382
 04  7 19  2 48  0.0000000  0  9G19G31G29G10G27G26G13G28G 8
  22593493.107   -15089819.22349 -11745921.83646  22593491.901    22593496.057
  22574748.314   -13583589.65349 -10336472.33446  22574747.579    22574754.020
  23631452.530    -7430346.19549  -5356809.31845  23631451.937    23631457.570
  23462423.407    -9333612.76549  -7263204.56446  23462422.333    23462429.396
  20790817.097   -18743583.11949 -14592421.33447  20790816.557    20790822.103
                   -827357.27949   -423477.83543
  22841653.051   -10389023.83449  -8083943.79346  22841652.942    22841658.371
  21386412.582   -16221104.31749 -12622867.97747  21386411.865    21386416.481
  20328610.510   -22329855.44549 -17381714.07548  20328609.716    20328614.974
 04  7 19  2 48 30.0000000  0  8G19G31G29G10G27G13G28G 8
  22599670.627   -15057355.37649 -11720625.33346  22599669.544    22599673.743
  22554382.464   -13690612.05149 -10419866.36846  22554381.796    22554388.389
  23613858.536    -7522802.85549  -5428853.44245  23613857.997    23613863.652
  23470732.912    -9289945.07049  -7229177.82946  23470731.930    23470739.234
  20793886.267   -18727454.72449 -14579853.75947  20793885.682    20793891.233
  22861210.194   -10286252.55049  -8003862.33746  22861209.824    22861214.948
  21376190.480   -16274821.61649 -12664725.58747  21376189.792    21376194.460
  20324645.627   -22350690.45349 -17397949.15348  20324644.881    20324650.179
 04  7 19  2 49  0.0000000  0  8G19G31G29G10G27G13G28G 8
  22605953.330   -15024339.97549 -11694899.05046  22605952.215    22605956.402
  22534060.378   -13797406.48649 -10503082.74846  22534059.486    22534066.045
  23596305.885    -7615040.19249  -5500726.67045  23596305.717    23596311.537
  23479130.131    -9245817.68249  -7194792.86246  23479129.077    23479136.324
  20797006.192   -18711059.31549 -14567078.12047  20797005.633    20797011.182
  22880814.710   -10183230.18249  -7923585.23546  22880814.283    22880819.333
  21366033.291   -16328197.73049 -12706317.34447  21366032.613    21366037.294
  20320737.415   -22371228.00449 -17413952.44248  20320736.647    20320741.998
 04  7 19  2 49 30.0000000  0  9G19G31G29G10G27G26G13G28G 8
  22612339.505   -14990781.28149 -11668749.42046  22612338.234    22612342.398
  22513780.857   -13903977.21349 -10586124.80646  22513779.824    22513786.327
  23578794.438    -7707063.34949  -5572432.98945  23578794.221    23578800.222
  23487612.993    -9201240.10749  -7160057.10946  23487611.984    23487619.112
  20800175.616   -18694403.65349 -14554099.68947  20800175.078    20800180.603
                  -1135856.29649   -456443.93943
  22900464.628   -10079966.49049  -7843120.07246  22900464.539    22900469.808
  21355939.681   -16381239.70249 -12747648.72547  21355939.061    21355943.722
  20316884.618   -22391474.28549 -17429728.77248  20316883.884    20316889.298
 04  7 19  2 50  0.0000000  0  9G19G31G29G10G27G26G13G28G 8
  22618829.254   -14956676.77049 -11642174.49146  22618828.061    22618832.275
  22493544.941   -14010317.46549 -10668987.27146  22493543.934    22493550.262
  23561325.172    -7798866.12949  -5643967.57645  23561324.755    23561330.667
  23496182.047    -9156210.72749  -7124969.35446  23496181.001    23496188.046
  20803395.476   -18677483.48149 -14540915.14347  20803394.889    20803400.425
                  -1238321.89149   -536287.58643
  22920160.919    -9976460.02549  -7762465.72946  22920161.003    22920166.686
  21345910.547   -16433943.80249 -12788716.83047  21345909.874    21345914.437
  20313088.053   -22411425.12049 -17445274.88148  20313087.322    20313092.785
 04  7 19  2 50 30.0000000  0  9G19G31G29G10G27G26G13G28G 8
  22625423.327   -14922024.56149 -11615172.76346  22625422.137    22625426.367
  22473353.874   -14116421.12549 -10751665.38246  22473352.992    22473359.260
  23543898.496    -7890442.99749  -5715326.09945  23543898.139    23543904.167
  23504836.883    -9110729.18549  -7089529.24846  23504835.840    23504842.948
  20806666.281   -18660294.99949 -14527521.52547  20806665.765    20806671.288
                  -1340595.71349   -615981.51343                  24158206.944
  22939903.963    -9872709.50549  -7681621.19246  22939904.045    22939909.975
  21335946.309   -16486306.59049 -12829518.97647  21335945.582    21335950.084
  20309348.505   -22431076.72749 -17460587.82148  20309347.751    20309353.205
 04  7 19  2 51  0.0000000  0  9G19G31G29G10G27G26G13G28G 8
  22632121.523   -14886825.30249 -11587744.77746  22632120.309    22632124.599
  22453208.652   -14222284.75849 -10834156.44746  22453207.718    22453213.978
  23526515.531    -7981791.30249  -5786506.52845  23526514.982    23526520.878
  23513577.295    -9064797.64649  -7053738.45946  23513576.291    23513583.533
  20809988.418   -18642837.32649 -14513918.14847  20809987.865    20809993.444
  24138774.815    -1442675.06449   -695523.79444  24138774.064    24138780.008
  22959693.288    -9768717.29749  -7600588.36846  22959693.245    22959699.158
  21326046.891   -16538327.85749 -12870055.00547  21326046.196    21326050.697
  20305666.103   -22450427.72249 -17475666.51948  20305665.361    20305670.746
 04  7 19  2 51 30.0000000  0  9G19G31G29G10G27G26G13G28G 8
  22638923.422   -14851080.68549 -11559891.83646  22638922.240    22638926.577
  22433109.569   -14327905.78749 -10916458.49546  22433108.701    22433114.807
  23509176.112    -8072909.12549  -5857507.35945  23509175.686    23509181.492
  23522402.856    -9018418.88249  -7017599.19846  23522401.880    23522409.054
  20813361.797   -18625110.34449 -14500104.92247  20813361.210    20813366.782
  24119387.283    -1544557.82949   -774912.93144  24119387.476    24119391.690
  22979528.033    -9664485.96749  -7519369.19546  22979528.034    22979533.902
  21316212.402   -16590007.73749 -12910325.01447  21316211.724    21316216.265
  20302040.978   -22469477.50449 -17490510.50348  20302040.290    20302045.646
 04  7 19  2 52  0.0000000  0  9G19G31G29G10G27G26G13G28G 8
  22645828.847   -14814792.38649 -11531615.25246  22645827.650    22645832.009
  22413057.141   -14433281.43649 -10998569.33646  22413056.354    22413062.586
  23491881.178    -8163794.11349  -5928326.76545  23491880.839    23491886.467
  23531312.955    -8971595.52149  -6981113.50846  23531312.052    23531319.212
  20816786.477   -18607113.58249 -14486081.47347  20816785.909    20816791.489
  24100037.137    -1646241.76149   -854147.11244  24100034.823    24100042.295
  22999407.664    -9560017.78449  -7437965.46646  22999407.751    22999413.532
  21306442.894   -16641346.32149 -12950329.08347  21306442.257    21306446.830
  20298473.336   -22488225.91049 -17505119.64748  20298472.610    20298477.932
 04  7 19  2 52 30.0000000  0  9G19G31G29G10G27G26G13G28G 8
  22652837.419   -14777961.14549 -11502915.58746  22652836.377    22652840.773
  22393052.190   -14538408.23849 -11080486.27146  22393051.353    22393057.742
  23474631.053    -8254443.57949  -5998962.67545  23474630.861    23474636.319
  23540307.432    -8924329.59249  -6944282.92046  23540306.475    23540313.413
  20820262.753   -18588846.13849 -14471847.11447  20820262.132    20820267.675
  24080725.478    -1747723.77349   -933223.98244  24080723.441    24080731.226
  23019331.703    -9455315.25649  -7356379.15045  23019331.847    23019337.648
  21296738.537   -16692343.26749 -12990066.94447  21296737.905    21296742.463
  20294963.217   -22506671.62849 -17519492.94048  20294962.510    20294967.823
 04  7 19  2 53  0.0000000  0  9G19G31G29G10G27G26G13G28G 8
  22659949.161   -14740588.78849 -11473794.29346  22659948.124    22659952.502
  22373095.204   -14643283.38249 -11162207.10646  22373094.239    22373100.675
  23457426.295    -8344855.35949  -6069413.37945  23457426.171    23457431.610
  23549385.683    -8876623.78349  -6907109.60246  23549384.761    23549391.794
  20823790.456   -18570307.64249 -14457401.53547  20823789.870    20823795.406
  24061452.750    -1849001.55949  -1012141.74745  24061451.632    24061458.842
  23039300.187    -9350380.71249  -7274612.04045  23039300.194    23039306.015
  21287099.125   -16742998.82149 -13029538.78747  21287098.468    21287103.008
  20291510.785   -22524814.38749 -17533630.15248  20291510.070    20291515.411
 04  7 19  2 53 30.0000000  0  9G19G31G29G10G27G26G13G28G 8
  22667163.580   -14702677.11449 -11444252.72646  22667162.490    22667166.811
  22353186.376   -14747904.99049 -11243730.36746  22353185.302    22353191.777
  23440267.146    -8435028.12349  -6139677.83145  23440266.861    23440272.336
  23558546.965    -8828481.69849  -6869596.31746  23558546.048    23558552.749
  20827369.736   -18551498.66049 -14442745.19447  20827369.142    20827374.643
  24042219.599    -1950073.73849  -1090899.25145  24042218.927    24042225.540
  23059312.200    -9245217.38349  -7192666.64645  23059312.210    23059318.000
  21277524.437   -16793313.76149 -13068745.21147  21277523.817    21277528.354
  20288115.882   -22542654.70649 -17547531.69248  20288115.160    20288120.524
 04  7 19  2 54  0.0000000  0  9G19G31G29G10G27G26G13G28G 8
  22674480.422   -14664227.30849 -11414291.84746  22674479.295    22674483.597
  22333326.243   -14852269.87649 -11325053.59946  22333325.311    22333331.714
  23423153.744    -8524959.49049  -6209754.18045  23423153.439    23423159.104
  23567790.432    -8779905.73749  -6831744.96245  23567789.510    23567796.569
  20831000.564   -18532418.33149 -14427877.41247  20830999.979    20831005.480
  24023026.057    -2050937.54549  -1169494.38845  24023025.435    24023032.287
  23079367.365    -9139827.39249  -7110544.62346  23079367.446    23079373.211
  21268014.760   -16843287.37649 -13107685.66847  21268014.140    21268018.630
  20284778.711   -22560191.25949 -17561196.53948  20284778.020    20284783.365
 04  7 19  2 54 30.0000000  0  9G19G31G29G10G27G26G13G28G 8
  22681899.546   -14625239.70749 -11383911.91046  22681898.438    22681902.712
  22313515.754   -14956373.87349 -11406173.53846  22313514.836    22313521.148
  23406086.974    -8614645.76949  -6279639.53345  23406086.604    23406092.230
  23577116.415    -8730897.17849  -6793556.46945  23577115.473    23577122.442
  20834683.350   -18513065.11449 -14412796.99247  20834682.779    20834688.250
  24003872.596    -2151589.47249  -1247924.38345  24003872.124    24003879.068
  23099465.390    -9034211.99849  -7028246.95946  23099465.493    23099471.221
  21258570.242   -16892918.76149 -13146359.45147  21258569.588    21258574.000
  20281499.814   -22577421.98149 -17574623.07748  20281499.130    20281504.479
 04  7 19  2 55  0.0000000  0  9G19G31G29G10G27G26G13G28G 8
  22689420.591   -14585715.61549 -11353113.93646  22689419.622    22689423.842
  22293755.397   -15060213.91449 -11487087.79846  22293754.625    22293760.914
  23389067.414    -8704084.61649  -6349332.08345  23389066.945    23389072.341
  23586524.260    -8681458.45849  -6755032.81145  23586523.330    23586530.597
  20838418.272   -18493438.33649 -14397503.40947  20838417.674    20838423.152
  23984759.837    -2252026.73548  -1326187.16044  23984759.597    23984766.286
  23119605.734    -8928373.67849  -6945775.57746  23119605.930    23119611.735
  21249190.764   -16942208.22249 -13184766.79747  21249190.082    21249194.485
  20278279.236   -22594346.76249 -17587811.21248  20278278.460    20278283.787
 04  7 19  2 55 30.0000000  0  9G19G31G29G10G27G26G13G28G 8
  22697043.706   -14545656.46849 -11321899.02846  22697042.704    22697046.801
  22274045.978   -15163786.90749 -11567793.96846  22274045.359    22274051.499
  23372095.092    -8793273.51149  -6418829.87445  23372094.745    23372099.931
  23596013.503    -8631592.13149  -6716175.97345  23596012.471    23596019.748
  20842205.250   -18473537.42149 -14381996.20747  20842204.692    20842210.194
  23965687.257    -2352246.80848  -1404280.67544  23965687.381    23965694.880
  23139788.486    -8822314.37949  -6863132.00645  23139788.327    23139794.167
  21239876.439   -16991155.19449 -13222907.27547  21239875.760    21239880.197
  20275117.105   -22610963.67949 -17600759.44448  20275116.359    20275121.657
 04  7 19  2 56  0.0000000  0  9G19G31G29G10G27G26G13G28G 8
  22704768.548   -14505063.18649 -11290267.90846  22704767.397    22704771.514
  22254388.139   -15267089.54849 -11648289.46446  22254387.478    22254393.622
  23355170.831    -8882209.70349  -6488130.72345  23355170.672    23355175.809
  23605583.858    -8581300.58649  -6676987.77845  23605582.826    23605589.728
  20846044.712   -18453361.50249 -14366274.72147  20846044.074    20846049.566
  23946656.854    -2452246.79149  -1482202.70944  23946657.534    23946665.122
  23160012.581    -8716036.31049  -6780317.96045  23160012.327    23160018.145
  21230627.310   -17039759.58149 -13260780.80047  21230626.623    21230631.156
  20272013.627   -22627272.50949 -17613467.61548  20272012.878    20272018.191
 04  7 19  2 56 30.0000000  0  9G19G31G29G10G27G26G13G28G 8
  22712594.254   -14463938.49349 -11258222.71546  22712593.119    22712597.290
  22234782.160   -15370119.72249 -11728572.66446  22234781.511    22234787.763
  23338295.084    -8970891.70049  -6557233.53945  23338294.935    23338300.109
  23615234.449    -8530587.19349  -6637470.85745  23615233.434    23615240.147
  20849936.319   -18432910.82449 -14350339.13847  20849935.690    20849941.202
  23927669.963    -2552025.17849  -1559952.01544  23927670.688    23927677.550
  23180277.632    -8609542.74549  -6697335.99345  23180277.368    23180283.208
  21221443.198   -17088022.43549 -13298388.19547  21221442.511    21221447.065
  20268968.763   -22643273.27949 -17625935.74048  20268968.015    20268973.398
 04  7 19  2 57  0.0000000  0  9G19G31G29G10G27G26G13G28G 8
  22720521.012   -14422283.78149 -11225764.50846  22720519.822    22720523.902
  22215228.405   -15472874.39949 -11808641.18646  22215227.878    22215234.214
  23321468.338    -9059317.18649  -6626136.49145  23321468.153    23321473.453
  23624964.495    -8479454.72149  -6597627.42745  23624963.458    23624970.581
  20853880.342   -18412184.94149 -14334189.10847  20853879.709    20853885.251
  23908725.962    -2651579.20249  -1637526.50845  23908726.592    23908733.083
  23200583.076    -8502836.24049  -6614188.14545  23200583.021    23200588.716
  21212324.097   -17135943.42949 -13335729.21147  21212323.394    21212327.977
  20265982.679   -22658965.02549 -17638163.07448  20265981.933    20265987.355
 04  7 19  2 57 30.0000000  0  9G19G31G29G10G27G26G13G28G 8
  22728548.372   -14380100.04249 -11192894.07446  22728547.104    22728551.145
  22195727.750   -15575350.38749 -11888492.54846  22195727.228    22195733.587
  23304690.841    -9147483.63149  -6694837.61445  23304690.728    23304696.141
  23634773.766    -8427905.63649  -6557459.35445  23634772.778    23634780.055
  20857876.774   -18391183.10549 -14317824.05347  20857876.213    20857881.720
  23889825.212    -2750906.29749  -1714924.17945  23889825.558    23889832.043
  23220928.913    -8395918.51349  -6530875.67845  23220928.965    23220934.540
  21203270.073   -17183522.29349 -13372803.63747  21203269.432    21203273.982
  20263055.532   -22674347.06449 -17650149.07348  20263054.799    20263060.262
 04  7 19  2 58  0.0000000  0  9G19G31G29G10G27G26G13G28G 8
  22736676.129   -14337388.18949 -11159612.13047  22736674.878    22736678.901
  22176280.901   -15677544.12649 -11968123.98546  22176280.361    22176286.617
  23287963.106    -9235387.91749  -6763334.43445  23287963.019    23287968.731
  23644661.977    -8375941.82049  -6516968.08645  23644661.132    23644668.494
  20861925.967   -18369904.06549 -14301242.98847  20861925.420    20861930.994
  23870967.738    -2850003.05349  -1792142.35245  23870967.823    23870974.845
  23241314.719    -8288791.41049  -6447400.04945  23241314.663    23241320.225
  21194281.419   -17230758.43349 -13409611.00147  21194280.735    21194285.241
  20260187.645   -22689417.79549 -17661892.49348  20260186.954    20260192.401
 04  7 19  2 58 30.0000000  0  9G19G31G29G10G27G26G13G28G 8
  22744904.117   -14294149.58949 -11125919.72347  22744902.872    22744906.987
  22156888.488   -15779452.39349 -12047532.97146  22156887.836    22156893.901
  23271285.797    -9323027.50949  -6831624.98645  23271285.565    23271291.501
  23654628.925    -8323565.63449  -6476155.53445  23654628.092    23654635.469
  20866028.151   -18348347.04349 -14284445.31447  20866027.570    20866033.137
  23852154.487    -2948866.89449  -1869179.07345  23852154.417    23852161.558
  23261739.740    -8181457.23049  -6363763.07045  23261739.702    23261745.411
  21185357.949   -17277651.91949 -13446151.35347  21185357.222    21185361.664
  20257379.174   -22704176.61249 -17673392.85848  20257378.429    20257383.861
 04  7 19  2 59  0.0000000  0  9G19G31G29G10G27G26G13G28G 8
  22753232.071   -14250385.42549 -11091817.79147  22753230.946    22753235.006
  22137550.972   -15881071.95649 -12126716.98546  22137550.223    22137556.190
  23254659.197    -9410399.63449  -6899707.13445  23254659.144    23254665.132
  23664673.984    -8270779.54149  -6435023.54345  23664673.047    23664680.346
  20870183.257   -18326511.54549 -14267430.64347  20870182.683    20870188.263
  23833386.010    -3047495.07849  -1946032.15845  23833385.971    23833393.327
  23282203.639    -8073917.96949  -6279966.26645  23282203.706    23282209.548
  21176499.688   -17324202.42549 -13482424.46247  21176498.985    21176503.350
  20254630.307   -22718622.10449 -17684649.07748  20254629.542    20254634.981
 04  7 19  2 59 30.0000000  0  9G19G31G29G10G27G26G13G28G 8
  22761659.890   -14206097.78049 -11057307.94247  22761658.641    22761662.616
  22118268.841   -15982400.16049 -12205673.96746  22118268.112    22118274.019
  23238084.003    -9497502.44249  -6967579.40745  23238083.830    23238089.872
  23674796.325    -8217586.64449  -6393574.59945  23674795.379    23674802.720
  20874391.499   -18304397.10549 -14250198.61847  20874390.940    20874396.496
  23814662.881    -3145885.09049  -2022699.65645  23814662.802    23814670.161
  23302706.195    -7966176.50449  -6196011.90345  23302706.183    23302711.988
  21167706.579   -17370410.30449 -13518430.58047  21167705.892    21167710.293
  20251941.138   -22732753.65149 -17695660.66248  20251940.373    20251945.854
 04  7 19  3  0  0.0000000  0 10G19G31G29G10G27G26G13G28G 8G 7
  22770186.237   -14161291.58249 -11022394.03347  22770184.989    22770188.982
  22099042.159   -16083437.53249 -12284404.32546  22099041.382    22099047.259
  23221560.043    -9584336.91249  -7035242.59445  23221559.788    23221565.601
  23684995.139    -8163993.20149  -6351813.51445  23684994.060    23685001.031
  20878652.180   -18282006.66549 -14232751.52647  20878651.660    20878657.230
  23795985.333    -3244038.03749  -2099182.39145  23795985.361    23795992.212
  23323246.150    -7858238.71549  -6111904.58345  23323246.162    23323251.657
  21158977.983   -17416279.13949 -13554172.51447  21158977.275    21158981.727
  20249311.056   -22746574.59149 -17706430.23248  20249310.304    20249315.800
  24447832.087    -2699846.94249  -2090373.62144  24447831.311    24447841.695
 04  7 19  3  0 30.0000000  0 10G19G31G29G10G27G26G13G28G 8G 7
  22778811.478   -14115965.03249 -10987074.66147  22778810.328    22778814.394
  22079871.899   -16184177.65649 -12362903.06746  22079871.154    22079877.056
  23205088.255    -9670897.19249  -7102692.13546  23205088.012    23205093.584
  23695269.995    -8109998.39549  -6309739.67945  23695268.907    23695275.904
  20882966.218   -18259336.45249 -14215086.42647  20882965.674    20882971.258
  23777354.096    -3341948.12049  -2175475.88345  23777353.860    23777360.616
  23343823.602    -7750103.53149  -6027643.46545  23343823.637    23343829.118
  21150314.561   -17461805.52149 -13589647.60247  21150313.883    21150318.343
  20246740.882   -22760080.72749 -17716954.49448  20246740.134    20246745.695
  24427691.327    -2805682.47449  -2172842.69244  24427690.993    24427701.539
 04  7 19  3  1  0.0000000  0 10G19G31G29G10G27G26G13G28G 8G 7
  22787536.001   -14070117.58749 -10951349.37947  22787534.838    22787538.886
  22060759.190   -16284615.31849 -12441166.13646  22060758.415    22060764.410
  23188669.415    -9757178.76149  -7169924.50246  23188669.198    23188674.603
  23705621.190    -8055602.55049  -6267353.33945  23705620.131    23705627.287
  20887334.024   -18236383.60649 -14197201.09347  20887333.440    20887339.015
  23758769.657    -3439610.29149  -2251576.21545  23758769.316    23758776.136
  23364438.502    -7641771.22949  -5943228.73845  23364438.626    23364444.039
  21141716.673   -17506987.30849 -13624854.17047  21141715.995    21141720.499
  20244231.356   -22773268.39849 -17727230.59748  20244230.631    20244236.158
  24407555.531    -2911496.07149  -2255294.63944  24407555.002    24407565.376
 04  7 19  3  1 30.0000000  0 10G19G31G29G10G27G26G13G28G 8G 7
  22796359.254   -14023751.18749 -10915219.73847  22796358.060    22796362.202
  22041704.264   -16384748.13949 -12519191.67446  22041703.566    22041709.662
  23172303.928    -9843179.70249  -7236938.19546  23172303.718    23172309.082
  23716048.159    -8000808.86949  -6224657.01045  23716047.063    23716054.469
  20891755.535   -18213148.18549 -14179095.56947  20891755.029    20891760.615
  23740232.583    -3537022.38049  -2327481.69845  23740232.321    23740239.357
  23385090.554    -7533244.62449  -5858662.61045  23385090.599    23385096.129
  21133184.315   -17551824.99149 -13659792.60647  21133183.661    21133188.168
  20241782.294   -22786137.99849 -17737258.84548  20241781.586    20241787.118
  24387424.248    -3017286.02249  -2337728.17344  24387423.357    24387434.026
 04  7 19  3  2  0.0000000  0 10G19G31G29G10G27G26G13G28G 8G 7
  22805280.814   -13976867.71749 -10878687.18447  22805279.703    22805283.864
  22022708.099   -16484573.30049 -12596977.46846  22022707.427    22022713.492
  23155992.222    -9928897.81249  -7303731.51746  23155992.030    23155997.490
  23726550.379    -7945620.47649  -6181653.07245  23726549.263    23726556.371
  20896230.973   -18189629.83049 -14160769.58447  20896230.441    20896235.991
  23721743.271    -3634182.44549  -2403190.76045  23721742.890    23721750.921
  23405778.952    -7424526.32449  -5773947.10045  23405778.927    23405784.789
  21124717.447   -17596318.93349 -13694463.20047  21124716.753    21124721.312
  20239394.006   -22798688.86749 -17747038.74548  20239393.280    20239398.769
  24367298.036    -3123050.39449  -2420141.81244  24367297.251    24367307.644
 04  7 19  3  2 30.0000000  0 10G19G31G29G10G27G26G13G28G 8G 7
  22814300.567   -13929469.50649 -10841753.52347  22814299.319    22814303.488
  22003771.035   -16584088.41049 -12674521.66146  22003770.326    22003776.253
  23139734.751   -10014331.30749  -7370303.05646  23139734.496    23139740.076
  23737126.875    -7890040.50249  -6138344.06845  23737125.820    23737133.061
  20900760.229   -18165828.48649 -14142223.08147  20900759.675    20900765.220
  23703302.566    -3731088.00349  -2478701.55045  23703302.425    23703310.371
  23426503.324    -7315618.89849  -5689084.18945  23426503.220    23426509.432
  21116315.778   -17640469.79949 -13728866.45847  21116315.099    21116319.655
  20237066.317   -22810920.76549 -17756570.09148  20237065.601    20237071.065
  24347177.083    -3228787.20649  -2502533.95444  24347176.250    24347186.618
 04  7 19  3  3  0.0000000  0 10G19G31G29G10G27G26G13G28G 8G 7
  22823417.731   -13881557.94549 -10804419.85447  22823416.498    22823420.738
  21984893.597   -16683290.35449 -12751821.81446  21984892.816    21984898.734
  23123531.824   -10099477.49149  -7436650.71546  23123531.583    23123537.348
  23747777.229    -7834072.11249  -6094732.35445  23747776.175    23747783.725
  20905343.375   -18141743.65949 -14123455.68547  20905342.862    20905348.421
  23684910.807    -3827736.45649  -2554011.98845  23684910.798    23684918.490
  23447263.136    -7206525.30349  -5604076.25045  23447262.947    23447269.376
  21107979.466   -17684277.46249 -13763002.28347  21107978.750    21107983.336
  20234799.512   -22822833.10649 -17765852.43648  20234798.790    20234804.200
  24327061.628    -3334494.37849  -2584902.99844  24327061.035    24327071.328
 04  7 19  3  3 30.0000000  0 10G19G31G29G10G27G26G13G28G 8G 7
  22832632.401   -13833134.71449 -10766687.48647  22832631.178    22832635.328
  21966076.207   -16782175.96749 -12828875.47846  21966075.532    21966081.472
  23107383.911   -10184334.05349  -7502772.68946  23107383.781    23107389.601
  23758501.185    -7777717.79949  -6050819.95045  23758500.083    23758507.691
  20909980.709   -18117374.62149 -14104466.83247  20909980.132    20909985.681
  23666568.722    -3924125.26649  -2629120.08345  23666568.585    23666576.079
  23468058.166    -7097247.43449  -5518924.71945  23468057.931    23468064.204
  21099708.435   -17727741.90149 -13796870.66147  21099707.736    21099712.327
  20232593.693   -22834424.80149 -17774884.92648  20232592.947    20232598.339
  24306952.272    -3440169.21249  -2667246.89644  24306951.739    24306961.819
 04  7 19  3  4  0.0000000  0 10G19G31G29G10G27G26G13G28G 8G 7
  22841944.150   -13784201.89049 -10728558.01446  22841942.852    22841946.976
  21947319.466   -16880742.83949 -12905680.78146  21947318.777    21947324.757
  23091291.975   -10268898.69249  -7568667.18146  23091291.791    23091297.563
  23769297.916    -7720980.55849  -6006609.16445  23769296.868    23769304.193
  20914672.065   -18092721.22849 -14085256.40147  20914671.504    20914677.079
  23648276.359    -4020252.20049  -2704024.12645  23648276.259    23648283.432
  23488887.652    -6987788.23349  -5433631.90545  23488887.412    23488893.435
  21091502.580   -17770863.77249 -13830472.10447  21091501.907    21091506.457
  20230448.932   -22845695.29049 -17783667.12548  20230448.232    20230453.629
  24286848.856    -3545809.89348  -2749564.19044  24286848.116    24286858.774
 04  7 19  3  4 30.0000000  0 10G19G31G29G10G27G26G13G28G 8G 7
  22851352.392   -13734760.53649 -10690032.30946  22851351.159    22851355.338
  21928623.951   -16978987.32949 -12982234.89846  21928623.301    21928629.361
  23075256.159   -10353168.75349  -7634332.14946  23075255.923    23075261.563
  23780167.037    -7663862.50549  -5962101.61045  23780165.973    23780173.460
  20919417.834   -18067782.32449 -14065823.49147  20919417.259    20919422.781
  23630034.425    -4116113.90149  -2778721.49545  23630034.298    23630041.414
  23509751.371    -6878149.44349  -5348199.13445  23509751.168    23509756.927
  21083362.142   -17813642.53149 -13863806.18947  21083361.403    21083365.875
  20228365.564   -22856643.31549 -17792198.05448  20228364.894    20228370.281
  24266752.471    -3651413.63149  -2831852.67844  24266752.208    24266762.888
 04  7 19  3  5  0.0000000  0 10G19G31G29G10G27G26G13G28G 8G 7
  22860857.061   -13684812.84549 -10651112.02546  22860855.928    22860860.077
  21909990.233   -17076906.90449 -13058535.82246  21909989.680    21909995.770
  23059276.690   -10437141.94749  -7699765.77846  23059276.355    23059281.979
  23791108.272    -7606366.82449  -5917299.81345  23791107.199    23791114.716
  20924217.934   -18042557.83449 -14046168.04647  20924217.356    20924222.835
  23611843.453    -4211708.11749  -2853210.45645  23611843.221    23611850.480
  23530648.640    -6768333.72249  -5262628.50045  23530648.471    23530654.250
  21075286.796   -17856078.62149 -13896873.25947  21075286.073    21075290.542
  20226343.783   -22867267.99949 -17800477.03048  20226343.114    20226348.460
  24246664.628    -3756978.37849  -2914110.75944  24246663.974    24246674.459
 04  7 19  3  5 30.0000000  0 10G19G31G29G10G27G26G13G28G 8G 7
  22870458.081   -13634360.29049 -10611798.35646  22870456.733    22870460.850
  21891419.281   -17174498.27749 -13134581.00646  21891418.656    21891424.647
  23043354.176   -10520815.69449  -7764966.09546  23043353.818    23043359.388
  23802120.845    -7548496.08849  -5872205.80646  23802119.755    23802127.223
  20929072.488   -18017047.05849 -14026289.52447  20929071.915    20929077.411
  23593703.627    -4307032.21149  -2927488.95745  23593703.589    23593710.891
  23551578.912    -6658343.12949  -5176921.59445  23551578.910    23551584.782
  21067276.664   -17898171.82649 -13929673.15047  21067275.978    21067280.447
  20224383.584   -22877569.42649 -17808504.11948  20224382.841    20224388.188
  24226584.665    -3862501.63449  -2996336.48044  24226583.635    24226593.814
 04  7 19  3  6  0.0000000  0 10G19G31G29G10G27G26G13G28G 8G 7
  22880154.290   -13583404.79249 -10572092.78946  22880153.120    22880157.356
  21872911.297   -17271758.72349 -13210368.33446  21872910.679    21872916.605
  23027488.818   -10604187.58449  -7829931.19046  23027488.541    23027494.218
  23813204.003    -7490253.19549  -5826821.74745  23813202.942    23813210.275
  20933981.503   -17991249.71949 -14006187.71247  20933980.957    20933986.462
  23575616.186    -4402083.53849  -3001554.89945  23575616.030    23575623.130
  23572542.249    -6548180.15849  -5091080.34545  23572542.059    23572548.255
  21059331.741   -17939922.65949 -13962206.26047  21059331.039    21059335.476
  20222485.104   -22887545.89149 -17816277.99348  20222484.345    20222489.684
  24206512.869    -3967981.26549  -3078528.24244  24206511.730    24206521.330
 04  7 19  3  6 30.0000000  0 10G19G31G29G10G27G26G13G28G 8G 7
  22889946.323   -13531947.78749 -10531996.42146  22889945.170    22889949.355
  21854466.941   -17368685.09849 -13285895.33246  21854466.198    21854472.196
  23011681.600   -10687255.33549  -7894659.28946  23011681.235    23011687.003
  23824357.500    -7431640.70449  -5781149.70146  23824356.452    23824364.093
  20938945.225   -17965164.89849 -13985861.88347  20938944.700    20938950.219
  23557581.263    -4496859.48949  -3075406.28445  23557580.915    23557587.787
  23593537.990    -6437847.52749  -5005106.92645  23593537.843    23593543.977
  21051452.031   -17981330.89249 -13994472.40347  21051451.334    21051455.732
  20220648.570   -22897197.28649 -17823798.56048  20220647.757    20220653.085
  24186449.876    -4073414.77149  -3160684.05344  24186449.039    24186457.676
 04  7 19  3  7  0.0000000  0 10G19G31G29G10G27G26G13G28G 8G 7
  22899833.470   -13479991.07949 -10491510.67046  22899832.237    22899836.498
  21836086.720   -17465274.27449 -13361159.58146  21836085.922    21836091.958
  22995932.725   -10770016.12149  -7959148.18846  22995932.387    22995938.190
  23835580.600    -7372661.56149  -5735191.95445  23835579.611    23835587.510
  20943963.870   -17938792.11549 -13965311.67347  20943963.326    20943968.803
  23539599.179    -4591357.15749  -3149040.76345  23539598.575    23539605.273
  23614565.692    -6327347.35149  -4919002.98445  23614565.516    23614571.460
  21043637.423   -18022396.67049 -14026471.69347  21043636.733    21043641.150
  20218873.992   -22906522.35249 -17831064.84248  20218873.255    20218878.570
  24166395.544    -4178799.76149  -3242802.07144  24166394.834    24166403.492
 04  7 19  3  7 30.0000000  0 10G19G31G29G10G27G26G13G28G 8G 7
  22909815.036   -13427536.26949 -10450636.81746  22909813.866    22909818.338
  21817771.139   -17561523.16849 -13436158.67646  21817770.342    21817776.381
  22980242.685   -10852467.63749  -8023396.09946  22980242.359    22980248.147
  23846873.512    -7313318.36649  -5688950.54146  23846872.483    23846880.017
  20949037.400   -17912130.58749 -13944536.46147  20949036.804    20949042.308
  23521670.468    -4685573.78449  -3222456.25745  23521669.946    23521676.158
  23635624.819    -6216682.02549  -4832770.32345  23635624.488    23635630.350
  21035887.977   -18063119.85849 -14058204.03247  21035887.348    21035891.800
  20217161.843   -22915519.80249 -17838075.84248  20217161.111    20217166.407
  24146350.898    -4284133.75349  -3324880.44244  24146350.240    24146359.044
 04  7 19  3  8  0.0000000  0 10G19G31G29G10G27G26G13G28G 8G 7
  22919891.382   -13374585.03149 -10409376.12646  22919890.220    22919894.573
  21799520.896   -17657428.51549 -13510890.06746  21799520.047    21799526.076
  22964611.997   -10934606.85349  -8087400.64046  22964611.750    22964617.550
  23858235.159    -7253613.57249  -5642427.36545  23858234.107    23858241.320
  20954166.051   -17885179.36749 -13923535.52247  20954165.433    20954170.954
  23503795.546    -4779506.41549  -3295650.47445  23503795.181    23503801.112
  23656715.115    -6105853.39449  -4746410.39445  23656714.637    23656720.466
  21028203.826   -18103500.31249 -14089669.31047  21028203.188    21028207.638
  20215512.074   -22924189.28849 -17844831.28148  20215511.343    20215516.677
  24126316.625    -4389413.79149  -3406916.76445  24126315.860    24126325.052
 04  7 19  3  8 30.0000000  0 10G19G31G29G10G27G26G13G28G 8G 7
  22930061.883   -13321139.12449 -10367729.98946  22930060.570    22930064.997
  21781336.311   -17752987.50449 -13585351.57946  21781335.655    21781341.589
  22949041.327   -11016431.77049  -8151160.28046  22949040.980    22949046.713
  23869664.928    -7193550.16049  -5595624.74845  23869663.875    23869671.120
  20959349.747   -17857938.28849 -13902308.71747  20959349.195    20959354.795
  23485975.387    -4873152.51549  -3368621.37745  23485974.859    23485980.932
  23677835.565    -5994863.55349  -4659924.86045  23677835.356    23677841.082
  21020584.795   -18143538.51149 -14120867.89647  21020584.172    21020588.633
  20213924.965   -22932529.83149 -17851330.40648  20213924.201    20213929.576
  24106292.762    -4494637.93249  -3488909.38445  24106292.112    24106300.909
 04  7 19  3  9  0.0000000  0 10G19G31G29G10G27G26G13G28G 8G 7
  22940326.093   -13267199.89449 -10325699.44246  22940324.913    22940329.365
  21763218.535   -17848196.62549 -13659540.45646  21763217.958    21763223.664
  22933531.057   -11097939.04049  -8214672.40046  22933530.627    22933536.412
  23881162.674    -7133130.39449  -5548544.48945  23881161.536    23881168.694
  20964588.853   -17830406.10049 -13880855.08147  20964588.358    20964593.996
  23468210.059    -4966508.90549  -3441366.58545  23468209.527    23468216.001
  23698986.272    -5883714.94149  -4573315.59045  23698986.183    23698991.838
  21013031.084   -18183233.60849 -14151799.12947  21013030.442    21013034.863
  20212400.628   -22940540.05849 -17857572.14548  20212399.897    20212405.298
  24086279.689    -4599803.40149  -3570856.35145  24086279.258    24086288.400
 04  7 19  3  9 30.0000000  0 10G19G31G29G10G27G26G13G28G 8G 7
  22950683.949   -13212769.56249 -10283286.22146  22950682.733    22950687.167
  21745167.951   -17943053.36549 -13733454.74846  21745167.224    21745172.928
  22918081.473   -11179126.84349  -8277935.59446  22918080.973    22918086.868
  23892727.208    -7072357.78549  -5501189.23045  23892726.120    23892733.536
  20969883.416   -17802582.76349 -13859174.56547  20969882.932    20969888.567
  23450500.289    -5059573.42449  -3513884.36445  23450499.956    23450506.418
  23720166.849    -5772410.31849  -4486584.78445  23720166.909    23720172.470
  21005542.469   -18222586.54149 -14182463.74147  21005541.806    21005546.200
  20210939.260   -22948219.37849 -17863556.03348  20210938.558    20210943.957
  24066278.468    -4704908.02749  -3652755.91045  24066278.263    24066287.388
 04  7 19  3 10  0.0000000  0 10G19G31G29G10G27G26G13G28G 8G 7
  22961134.927   -13157849.87549 -10240491.68146  22961133.628    22961138.019
  21727184.905   -18037554.70049 -13807092.11346  21727184.163    21727189.988
  22902693.111   -11259992.67549  -8340947.90646  22902692.666    22902698.645
  23904358.294    -7011235.06749  -5453561.22845  23904357.347    23904365.055
  20975233.617   -17774467.76749 -13837266.79047  20975233.068    20975238.687
  23432846.637    -5152343.35849  -3586172.55345  23432846.408    23432852.971
  23741376.907    -5660951.67749  -4399733.96645  23741376.887    23741382.537
  20998118.984   -18261597.31149 -14212861.72847  20998118.315    20998122.703
  20209541.060   -22955566.95149 -17869281.41748  20209540.346    20209545.746
  24046289.789    -4809949.60649  -3734606.30545  24046289.371    24046298.276
 04  7 19  3 10 30.0000000  0 10G19G31G29G10G27G26G13G28G 8G 7
  22971678.519   -13102442.98649 -10197317.50646  22971677.238    22971681.616
  21709270.037   -18131698.10249 -13880450.56447  21709269.296    21709275.240
  22887366.508   -11340534.49949  -8403707.72946  22887366.066    22887372.096
  23916055.595    -6949765.35549  -5405662.78545  23916054.580    23916062.133
  20980639.337   -17746060.84749 -13815131.54247  20980638.766    20980644.314
  23415249.331    -5244816.30749  -3658229.31945  23415249.310    23415255.780
  23762615.627    -5549342.05149  -4312765.48145  23762615.524    23762621.215
  20990760.450   -18300266.31149 -14242993.41047  20990759.809    20990764.201
  20208205.958   -22962582.81949 -17874748.32548  20208205.261    20208210.673
  24026313.375    -4914926.06549  -3816405.97445  24026312.870    24026321.713
 04  7 19  3 11  0.0000000  0 10G19G31G29G10G27G26G13G28G 8G 7
  22982314.486   -13046550.71849 -10153765.09446  22982313.226    22982317.577
  21691424.070   -18225480.32949 -13953527.58547  21691423.220    21691429.167
  22872102.183   -11420749.65149  -8466213.00146  22872101.733    22872107.591
  23927818.378    -6887951.43549  -5357496.15145  23927817.387    23927824.877
  20986100.726   -17717361.20749 -13792768.19447  20986100.145    20986105.675
  23397709.371    -5336989.51349  -3730052.52245  23397709.362    23397715.712
  23783882.667    -5437583.63249  -4225681.04945  23783882.281    23783888.239
  20983467.044   -18338593.56549 -14272858.79547  20983466.388    20983470.783
  20206934.265   -22969265.57549 -17879955.66348  20206933.581    20206938.976
  24006350.053    -5019834.73249  -3898152.86545  24006349.360    24006357.922
 04  7 19  3 11 30.0000000  0 10G19G31G29G10G27G26G13G28G 8G 7
  22993042.442   -12990174.94749 -10109835.95946  22993041.159    22993045.499
  21673647.230   -18318898.44949 -14026320.88947  21673646.307    21673652.276
  22856900.497   -11500635.54749  -8528461.71846  22856900.057    22856905.771
  23939646.405    -6825795.91449  -5309063.33145  23939645.457    23939652.671
  20991618.004   -17688368.29049 -13770176.32547  20991617.356    20991622.846
  23380227.241    -5428860.05249  -3801639.87345  23380226.976    23380233.357
  23805177.390    -5325678.53749  -4138482.30845  23805177.029    23805183.287
  20976238.682   -18376579.29049 -14302458.05447  20976238.003    20976242.370
  20205726.179   -22975614.30349 -17884902.72148  20205725.467    20205730.850
  23986399.800    -5124673.21249  -3979845.09145  23986399.112    23986407.734
 04  7 19  3 12  0.0000000  0 10G19G31G29G10G27G26G13G28G 8G 7
  23003862.085   -12933317.01849 -10065531.09146  23003860.898    23003865.127
  21655940.086   -18411949.10649 -14098827.85146  21655939.206    21655945.198
  22841761.940   -11580189.37849  -8590451.66746  22841761.448    22841767.132
  23951538.816    -6763301.43249  -5260366.38745  23951537.756    23951544.940
  20997191.101   -17659081.23849 -13747355.25147  20997190.458    20997195.961
  23362802.858    -5520424.96149  -3872989.10345  23362802.579    23362809.056
  23826499.388    -5213628.87249  -4051170.91345  23826499.258    23826505.582
  20969075.222   -18414223.27749 -14331791.02047  20969074.532    20969078.880
  20204581.770   -22981628.28749 -17889588.93948  20204581.070    20204586.455
  23966463.378    -5229438.80249  -4061480.47945  23966462.573    23966471.526
 04  7 19  3 12 30.0000000  0 10G19G31G29G10G27G26G13G28G 8G 7
  23014773.009   -12875979.38249 -10020852.43046  23014771.864    23014776.085
  21638303.428   -18504629.70749 -14171046.46846  21638302.515    21638308.456
  22826686.686   -11659409.02249  -8652181.21846  22826686.254    22826692.127
  23963494.887    -6700471.24249  -5211407.86745  23963493.819    23963501.184
  21002820.271   -17629499.88049 -13724304.85447  21002819.650    21002825.138
  23345437.378    -5611681.94249  -3944098.39245  23345436.751    23345443.491
  23847849.065    -5101437.32449  -3963749.01145  23847848.797    23847854.720
  20961976.737   -18451525.97749 -14360858.05047  20961976.066    20961980.363
  20203501.224   -22987306.57449 -17894013.57748  20203500.518    20203505.904
  23946541.474    -5334129.41949  -4143057.42045  23946540.396    23946549.562
 04  7 19  3 13  0.0000000  0 10G19G31G29G10G27G26G13G28G 8G 7
  23025775.050   -12818163.55849  -9975801.18446  23025773.819    23025778.108
  21620737.680   -18596937.08849 -14242974.25146  21620736.925    21620742.770
  22811675.503   -11738291.88749  -8713648.33946  22811675.166    22811681.105
  23975514.322    -6637307.87849  -5162189.70845  23975513.317    23975520.785
  21008505.518   -17599623.48149 -13701024.55147  21008504.925    21008510.441
  23328130.668    -5702628.11649  -4014965.51745  23328130.132    23328137.151
  23869225.224    -4989105.88149  -3876218.09345  23869224.989    23869230.568
  20954943.278   -18488487.32649 -14389659.08247  20954942.535    20954946.838
  20202484.671   -22992648.61349 -17898176.20848  20202483.971    20202489.345
  23926634.318    -5438742.39749  -4224573.86945  23926633.386    23926642.579
 04  7 19  3 13 30.0000000  0 10G19G31G29G10G27G26G13G28G 8G 7
  23036867.673   -12759871.57849  -9930378.90546  23036866.449    23036870.716
  21603243.642   -18688868.54949 -14314609.10047  21603242.986    21603248.733
  22796729.058   -11816835.63749  -8774851.23046  22796728.693    22796734.499
  23987596.829    -6573814.03549  -5112714.06545  23987595.782    23987603.126
  21014247.007   -17569451.63949 -13677514.03647  21014246.430    21014251.916
  23310884.013    -5793260.92149  -4085588.44445  23310883.291    23310890.308
  23890627.344    -4876637.28849  -3788580.32145  23890627.243    23890632.789
  20947974.587   -18525107.70849 -14418194.43347  20947973.899    20947978.193
  20201532.387   -22997653.14149 -17902075.83748  20201531.651    20201537.033
  23906742.491    -5543275.67149  -4306028.23845  23906741.557    23906750.570
 04  7 19  3 14  0.0000000  0 10G19G31G29G10G27G26G13G28G 8G 7
  23048050.670   -12701105.82749  -9884587.43346  23048049.357    23048053.487
  21585821.806   -18780421.55649 -14385949.05147  21585821.127    21585826.883
  22781847.586   -11895038.13849  -8835788.19646  22781847.166    22781852.859
  23999741.642    -6509993.37449  -5062983.73745  23999740.595    23999747.664
  21020044.730   -17538984.16349 -13653773.15747  21020044.206    21020049.718
  23293697.180    -5883578.11949  -4155965.42945  23293696.590    23293703.235
  23912054.621    -4764034.46449  -3700837.90345  23912054.770    23912060.365
  20941070.844   -18561387.68549 -14446464.53347  20941070.089    20941074.391
  20200644.240   -23002320.05649 -17905712.39148  20200643.525    20200648.910
  23886866.064    -5647727.16049  -4387418.84545  23886865.098    23886874.031
 04  7 19  3 14 30.0000000  0 10G19G31G29G10G27G26G13G28G 8G 7
  23059323.211   -12641867.42649  -9838427.67446  23059322.014    23059326.213
  21568472.718   -18871592.32349 -14456991.16047  21568471.957    21568477.746
  22767031.783   -11972896.30649  -8896456.86046  22767031.362    22767036.878
  24011948.094    -6445848.18249  -5013000.49945  24011947.045    24011954.241
  21025899.008   -17508219.81049 -13629800.94547  21025898.434    21025903.988
  23276571.183    -5973576.26349  -4226093.76845  23276570.545    23276576.892
  23933507.149    -4651298.62149  -3612991.82645  23933507.129    23933513.476
  20934231.842   -18597326.58949 -14474468.85947  20934231.113    20934235.474
  20199820.694   -23006647.71349 -17909084.58848  20199819.996    20199825.399
  23867005.540    -5752093.61649  -4468743.25345  23867004.568    23867013.437
 04  7 19  3 15  0.0000000  0 10G19G31G29G10G27G26G13G28G 8G 7
  23070685.506   -12582158.18749  -9791901.01946  23070684.337    23070688.510
  21551196.897   -18962377.61449 -14527732.90447  21551196.078    21551201.873
  22752281.983   -12050407.29749  -8956854.99646  22752281.643    22752287.007
  24024215.992    -6381380.72249  -4962766.24445  24024214.822    24024222.079
  21031809.947   -17477157.70449 -13605596.71747  21031809.361    21031814.969
  23259506.225    -6063252.16849  -4295971.05845  23259505.630    23259511.747
  23954985.191    -4538431.89749  -3525043.76845  23954984.978    23954991.356
  20927457.794   -18632924.23849 -14502207.27347  20927457.063    20927461.466
  20199061.986   -23010634.94149 -17912191.52048  20199061.261    20199066.654
  23847160.784    -5856372.35949  -4549999.29845  23847160.207    23847169.508
 04  7 19  3 15 30.0000000  0 10G19G31G29G10G27G26G13G28G 8G 7
  23082137.028   -12521980.83849  -9745009.59446  23082135.820    23082139.961
  21533994.673   -19052775.39349 -14598172.69747  21533993.846    21533999.683
  22737598.546   -12127569.40549  -9016981.26846  22737598.148    22737603.394
  24036544.322    -6316594.86049  -4912283.79145  24036543.198    24036550.552
  21037777.547   -17445798.13149 -13581160.69647  21037776.920    21037782.491
  23242502.969    -6152604.05049  -4365595.84745  23242502.620    23242508.410
  23976487.875    -4425437.56449  -3436996.30845  23976487.452    23976493.658
  20920748.358   -18668181.89649 -14529680.76447  20920747.678    20920752.074
  20198367.972   -23014282.01649 -17915033.39348  20198367.231    20198372.661
  23827333.553    -5960561.79249  -4631185.72945  23827333.071    23827342.672
 04  7 19  3 16  0.0000000  0 10G19G31G29G10G27G26G13G28G 8G 7
  23093677.081   -12461337.79149  -9697755.30846  23093675.811    23093680.045
  21516866.698   -19142783.18449 -14668308.60947  21516865.874    21516871.695
  22722981.677   -12204380.83649  -9076834.29246  22722981.308    22722986.547
  24048932.543    -6251493.84449  -4861555.76045  24048931.461    24048939.085
  21043801.648   -17414140.97049 -13556492.78347  21043801.069    21043806.659
  23225562.009    -6241629.71249  -4434966.47945  23225561.428    23225567.092
  23998013.977    -4312318.30649  -3348851.48445  23998013.601    23998019.619
  20914103.672   -18703100.22649 -14556889.83647  20914102.978    20914107.286
  20197738.833   -23017588.16449 -17917609.61348  20197738.107    20197743.548
  23807524.940    -6064660.01449  -4712301.13145  23807524.163    23807533.130
 04  7 19  3 16 30.0000000  0 10G19G31G29G10G27G26G13G28G 8G 7
  23105305.375   -12400230.61949  -9650139.35246  23105304.121    23105308.427
  21499813.465   -19232397.54949 -14738137.95847  21499812.789    21499818.644
  22708432.198   -12280838.31449  -9136411.52746  22708431.860    22708437.167
  24061380.390    -6186080.16449  -4810584.09245  24061379.273    24061386.882
  21049882.703   -17382185.28049 -13531592.25447  21049882.110    21049887.611
  23208683.553    -6330325.76049  -4504080.27745  23208683.213    23208688.817
  24019563.141    -4199076.01649  -3260610.83345  24019562.773    24019568.775
  20907523.634   -18737678.61549 -14583834.02147  20907522.933    20907527.237
  20197174.817   -23020552.33649 -17919919.35648  20197174.057    20197179.487
  23787734.244    -6168664.26049  -4793343.28345  23787733.254    23787741.644
 04  7 19  3 17  0.0000000  0 10G19G31G29G10G27G26G13G28G 8G 7
  23117021.558   -12338661.24449  -9602163.22846  23117020.430    23117024.674
  21482835.821   -19321615.74749 -14807658.60047  21482835.063    21482840.975
  22693950.558   -12356939.71149  -9195711.29046  22693950.165    22693955.690
  24073887.214    -6120356.89049  -4759371.24145  24073886.216    24073893.791
  21056020.573   -17349930.61049 -13506458.74747  21056019.961    21056025.489
  23191868.711    -6418689.88449  -4572935.42545  23191868.273    23191873.897
  24041135.157    -4085713.05949  -3172276.13845  24041134.730    24041140.891
  20901008.203   -18771917.55649 -14610513.70547  20901007.474    20901011.766
  20196675.977   -23023173.49949 -17921961.82048  20196675.263    20196680.684
  23767961.554    -6272571.99549  -4874310.22745  23767960.394    23767968.838
 04  7 19  3 17 30.0000000  0 10G19G31G29G10G27G26G13G28G 8G 7
  23128825.459   -12276631.22549  -9553828.17546  23128824.388    23128828.635
  21465934.233   -19410434.38449 -14876867.88547  21465933.404    21465939.300
  22679537.102   -12432681.98149  -9254731.21246  22679536.793    22679542.472
  24086452.510    -6054326.57649  -4707919.07745  24086451.436    24086459.057
  21062215.513   -17317376.07449 -13481091.58747  21062214.912    21062220.433
  23175117.641    -6506718.70549  -4641529.30345  23175117.260    23175122.869
  24062729.544    -3972231.46049  -3083848.95845  24062729.409    24062735.855
  20894557.381   -18805816.77149 -14636928.66447  20894556.669    20894561.007
  20196242.684   -23025450.38149 -17923736.01048  20196241.973    20196247.420
  23748207.406    -6376380.29549  -4955199.67045  23748206.130    23748214.806
 04  7 19  3 18  0.0000000  0 10G19G31G29G10G27G26G13G28G 8G 7
  23140716.575   -12214142.70049  -9505135.82846  23140715.466    23140719.878
  21449109.184   -19498850.69249 -14945763.66347  21449108.361    21449114.149
  22665192.584   -12508062.91349  -9313469.56346  22665192.144    22665197.902
  24099075.684    -5987992.15849  -4656229.99345  24099074.577    24099082.285
  21068467.622   -17284520.95249 -13455490.20347  21068467.054    21068472.571
  23158430.610    -6594409.80349  -4709859.99845  23158430.192    23158435.815
  24084346.671    -3858633.66249  -2995331.22545  24084346.333    24084353.039
  20888171.160   -18839376.57549 -14663079.14347  20888170.431    20888174.781
  20195875.058   -23027382.29249 -17925241.39648  20195874.347    20195879.772
  23728472.114    -6480086.93149  -5036009.90745  23728471.012    23728479.673
 04  7 19  3 18 30.0000000  0 10G19G31G29G10G27G26G13G28G 8G 7
  23152694.649   -12151198.16349  -9456088.13846  23152693.444    23152697.897
  21432361.071   -19586862.31949 -15014344.10147  21432360.266    21432365.895
  22650917.188   -12583080.56249  -9371924.83846  22650916.737    22650922.483
  24111755.975    -5921356.95749  -4604306.49345  24111754.800    24111762.405
  21074776.878   -17251365.50449 -13429654.80047  21074776.296    21074781.827
  23141808.019    -6681760.76549  -4777925.64145  23141807.711    23141813.380
  24105985.376    -3744922.53849  -2906725.22545  24105985.063    24105991.864
  20881849.369   -18872597.76949 -14688965.76847  20881848.617    20881852.979
  20195572.989   -23028969.30649 -17926478.02148  20195572.296    20195577.780
  23708757.420    -6583689.91749  -5116739.44745  23708756.349    23708764.466
 04  7 19  3 19  0.0000000  0 10G19G31G29G10G27G26G13G28G 8G 7
  23164758.949   -12087799.32149  -9406686.43846  23164757.842    23164762.365
  21415690.584   -19674465.89549 -15082606.58147  21415689.856    21415695.390
  22636711.441   -12657731.79849  -9430094.60546  22636711.101    22636716.782
  24124492.874    -5854423.32549  -4552150.48045  24124491.702    24124499.722
  21081143.524   -17217908.63749 -13403584.52147  21081142.938    21081148.475
  23125250.578    -6768768.38849  -4845723.77145  23125250.503    23125255.964
  24127645.814    -3631099.64949  -2818032.11645  24127645.158    24127651.890
  20875592.061   -18905479.93049 -14714588.21147  20875591.349    20875595.718
  20195336.919   -23030209.99549 -17927444.78948  20195336.170    20195341.666
  23689063.224    -6687186.47949  -5197386.00345  23689061.794    23689069.651
 04  7 19  3 19 30.0000000  0 10G19G31G29G10G27G26G13G28G 8G 7
  23176909.060   -12023949.24849  -9356933.14346  23176908.100    23176912.600
  21399098.031   -19761659.62249 -15150549.70347  21399097.353    21399102.957
  22622575.709   -12732015.41549  -9487977.89946  22622575.367    22622581.082
  24137285.791    -5787195.48849  -4499765.20745  24137284.636    24137292.591
  21087567.407   -17184151.00049 -13377279.87447  21087566.801    21087572.356
  23108759.211    -6855431.19149  -4913253.19145  23108759.088    23108764.423
  24149326.595    -3517168.79549  -2729254.89245  24149325.709    24149332.220
  20869399.028   -18938024.55649 -14739947.63647  20869398.276    20869402.615
  20195166.674   -23031104.39449 -17928141.71648  20195165.987    20195171.457
  23669388.950    -6790575.17749  -5277948.49745  23669387.435    23669395.130
 04  7 19  3 20  0.0000000  0 10G19G31G29G10G27G26G13G28G 8G 7
  23189145.010   -11959648.58449  -9306828.74246  23189144.079    23189148.542
  21382584.205   -19848439.29149 -15218170.20847  21382583.576    21382589.372
  22608510.633   -12805927.78149  -9545571.91246  22608510.324    22608515.989
  24150134.361    -5719674.91449  -4447151.78845  24150133.270    24150141.502
  21094048.787   -17150090.53549 -13350739.26247  21094048.264    21094053.871
  23092334.283    -6941745.28549  -4980510.89145  23092334.239    23092339.658
  24171027.305    -3403130.67649  -2640394.06945  24171026.327    24171032.891
  20863270.413   -18970230.39449 -14765043.07847  20863269.689    20863274.043
  20195062.830   -23031650.25949 -17928567.05548  20195062.099    20195067.582
  23649735.268    -6893852.22049  -5358423.99445  23649734.070    23649742.070
 04  7 19  3 20 30.0000000  0 10G19G31G29G10G27G26G13G28G 8G 7
  23201466.410   -11894899.88649  -9256375.23746  23201465.399    23201469.821
  21366149.792   -19934802.54949 -15285466.23447  21366149.093    21366155.062
  22594516.783   -12879466.60849  -9602874.86246  22594516.491    22594521.925
  24163038.487    -5651864.92349  -4394312.90745  24163037.397    24163045.313
  21100587.967   -17115727.53349 -13323962.91147  21100587.367    21100593.007
  23075976.528    -7027708.16849  -5047494.94745  23075976.234    23075981.692
  24192747.467    -3288988.44549  -2551452.12445  24192746.790    24192753.263
  20857206.212   -19002098.15549 -14789875.08947  20857205.487    20857209.819
  20195025.334   -23031847.39549 -17928720.66548  20195024.605    20195029.998
  23630103.837    -6997015.67649  -5438811.01945  23630102.770    23630110.823
 04  7 19  3 21  0.0000000  0 10G19G31G29G10G27G26G13G28G 8G 7
  23213872.606   -11829705.87749  -9205574.72646  23213871.481    23213875.866
  21349795.068   -20020747.11749 -15352436.00647  21349794.445    21349800.360
  22580594.361   -12952630.17949  -9659885.41946  22580594.060    22580599.330
  24175997.089    -5583769.17049  -4341251.33445  24175996.016    24176003.490
  21107184.643   -17081061.73549 -13296950.60847  21107184.060    21107189.738
  23059685.752    -7113317.74149  -5114203.69145  23059685.442    23059691.025
  24214487.027    -3174744.87449  -2462431.23345  24214486.769    24214492.855
  20851206.138   -19033628.72349 -14814444.34847  20851205.411    20851209.698
  20195054.194   -23031695.88049 -17928602.59348  20195053.435    20195058.852
  23610494.735    -7100063.62049  -5519108.01445  23610493.606    23610501.392
 04  7 19  3 21 30.0000000  0 10G19G31G29G10G27G26G13G28G 8G 7
  23226363.059   -11764068.40949  -9154428.67146  23226361.934    23226366.292
  21333520.758   -20106270.01549 -15419077.18747  21333520.051    21333525.786
  22566743.777   -13025415.96749  -9716601.59446  22566743.419    22566748.599
  24189009.124    -5515390.51649  -4287969.31645  24189008.068    24189015.550
  21113839.073   -17046092.68849 -13269702.02147  21113838.504    21113844.160
  23043462.422    -7198571.20649  -5180634.94145  23043462.233    23043467.813
  24236245.735    -3060402.12049  -2373333.04645  24236245.675    24236251.732
  20845270.174   -19064822.38149 -14838751.08347  20845269.460    20845273.685
  20195149.702   -23031194.27549 -17928211.72948  20195148.939    20195154.287
  23590907.726    -7202993.72949  -5599313.18745  23590906.526    23590914.340
